<?xml version="1.0" encoding="UTF-8" standalone="no" ?>
<gpx xmlns="http://www.topografix.com/GPX/1/1" xmlns:xsi="http://www.w3.org/2001/XMLSchema-instance" xsi:schemaLocation="http://www.topografix.com/GPX/1/1 http://www.topografix.com/GPX/1/1/gpx.xsd" version="1.1" creator="VisuGPX - https://www.visugpx.com">
  <metadata>
    <name>Compostelle Nasbinals-St Chely</name>
  </metadata>
  <wpt lat="44.58848" lon="2.91977">
    <ele>791.2</ele>
  </wpt>
  <trk>
    <name><![CDATA[Compostelle Nasbinals-St Chely_2]]></name>
    <trkseg>
      <trkpt lat="44.58903" lon="2.92146">
        <ele>799.47</ele>
        <time>2012-08-10T09:14:43Z</time>
      </trkpt>
      <trkpt lat="44.58898" lon="2.92147">
        <ele>798.51</ele>
        <time>2012-08-10T09:14:44Z</time>
      </trkpt>
      <trkpt lat="44.58894" lon="2.92149">
        <ele>798.03</ele>
        <time>2012-08-10T09:14:45Z</time>
      </trkpt>
      <trkpt lat="44.58891" lon="2.92152">
        <ele>797.55</ele>
        <time>2012-08-10T09:14:46Z</time>
      </trkpt>
      <trkpt lat="44.58889" lon="2.92155">
        <ele>797.55</ele>
        <time>2012-08-10T09:14:47Z</time>
      </trkpt>
      <trkpt lat="44.58888" lon="2.92157">
        <ele>797.55</ele>
        <time>2012-08-10T09:14:48Z</time>
      </trkpt>
      <trkpt lat="44.58886" lon="2.92158">
        <ele>797.55</ele>
        <time>2012-08-10T09:14:49Z</time>
      </trkpt>
      <trkpt lat="44.58885" lon="2.9216">
        <ele>797.55</ele>
        <time>2012-08-10T09:14:50Z</time>
      </trkpt>
      <trkpt lat="44.58884" lon="2.92162">
        <ele>797.55</ele>
        <time>2012-08-10T09:14:51Z</time>
      </trkpt>
      <trkpt lat="44.58883" lon="2.92163">
        <ele>797.07</ele>
        <time>2012-08-10T09:14:52Z</time>
      </trkpt>
      <trkpt lat="44.58882" lon="2.92165">
        <ele>797.55</ele>
        <time>2012-08-10T09:14:53Z</time>
      </trkpt>
      <trkpt lat="44.58881" lon="2.92167">
        <ele>797.55</ele>
        <time>2012-08-10T09:14:54Z</time>
      </trkpt>
      <trkpt lat="44.58881" lon="2.92169">
        <ele>798.03</ele>
        <time>2012-08-10T09:14:55Z</time>
      </trkpt>
      <trkpt lat="44.58881" lon="2.92171">
        <ele>798.03</ele>
        <time>2012-08-10T09:14:56Z</time>
      </trkpt>
      <trkpt lat="44.58882" lon="2.92174">
        <ele>798.51</ele>
        <time>2012-08-10T09:14:57Z</time>
      </trkpt>
      <trkpt lat="44.58883" lon="2.92176">
        <ele>798.51</ele>
        <time>2012-08-10T09:14:58Z</time>
      </trkpt>
      <trkpt lat="44.58884" lon="2.92178">
        <ele>798.99</ele>
        <time>2012-08-10T09:14:59Z</time>
      </trkpt>
      <trkpt lat="44.58885" lon="2.9218">
        <ele>799.47</ele>
        <time>2012-08-10T09:15:00Z</time>
      </trkpt>
      <trkpt lat="44.58885" lon="2.92182">
        <ele>799.47</ele>
        <time>2012-08-10T09:15:01Z</time>
      </trkpt>
      <trkpt lat="44.58886" lon="2.92184">
        <ele>799.47</ele>
        <time>2012-08-10T09:15:02Z</time>
      </trkpt>
      <trkpt lat="44.58887" lon="2.92186">
        <ele>799.47</ele>
        <time>2012-08-10T09:15:03Z</time>
      </trkpt>
      <trkpt lat="44.58894" lon="2.92215">
        <ele>801.88</ele>
        <time>2012-08-10T09:15:18Z</time>
      </trkpt>
      <trkpt lat="44.58893" lon="2.92221">
        <ele>802.36</ele>
        <time>2012-08-10T09:15:21Z</time>
      </trkpt>
      <trkpt lat="44.58893" lon="2.92222">
        <ele>802.84</ele>
        <time>2012-08-10T09:15:22Z</time>
      </trkpt>
      <trkpt lat="44.5888" lon="2.92215">
        <ele>806.2</ele>
        <time>2012-08-10T09:15:35Z</time>
      </trkpt>
      <trkpt lat="44.58862" lon="2.92193">
        <ele>805.72</ele>
        <time>2012-08-10T09:15:51Z</time>
      </trkpt>
      <trkpt lat="44.5886" lon="2.92191">
        <ele>805.72</ele>
        <time>2012-08-10T09:15:53Z</time>
      </trkpt>
      <trkpt lat="44.58859" lon="2.92192">
        <ele>805.72</ele>
        <time>2012-08-10T09:15:54Z</time>
      </trkpt>
      <trkpt lat="44.58857" lon="2.92192">
        <ele>805.72</ele>
        <time>2012-08-10T09:15:55Z</time>
      </trkpt>
      <trkpt lat="44.58856" lon="2.92193">
        <ele>805.72</ele>
        <time>2012-08-10T09:15:56Z</time>
      </trkpt>
      <trkpt lat="44.58857" lon="2.92198">
        <ele>805.72</ele>
        <time>2012-08-10T09:15:59Z</time>
      </trkpt>
      <trkpt lat="44.58867" lon="2.92215">
        <ele>807.16</ele>
        <time>2012-08-10T09:16:10Z</time>
      </trkpt>
      <trkpt lat="44.58869" lon="2.92221">
        <ele>807.64</ele>
        <time>2012-08-10T09:16:14Z</time>
      </trkpt>
      <trkpt lat="44.5887" lon="2.92224">
        <ele>808.13</ele>
        <time>2012-08-10T09:16:16Z</time>
      </trkpt>
      <trkpt lat="44.58862" lon="2.9222">
        <ele>809.09</ele>
        <time>2012-08-10T09:16:26Z</time>
      </trkpt>
      <trkpt lat="44.58854" lon="2.92211">
        <ele>810.53</ele>
        <time>2012-08-10T09:16:33Z</time>
      </trkpt>
      <trkpt lat="44.58836" lon="2.92203">
        <ele>813.41</ele>
        <time>2012-08-10T09:16:48Z</time>
      </trkpt>
      <trkpt lat="44.58835" lon="2.92202">
        <ele>813.41</ele>
        <time>2012-08-10T09:16:49Z</time>
      </trkpt>
      <trkpt lat="44.58821" lon="2.92193">
        <ele>814.85</ele>
        <time>2012-08-10T09:17:01Z</time>
      </trkpt>
      <trkpt lat="44.58816" lon="2.92192">
        <ele>815.82</ele>
        <time>2012-08-10T09:17:05Z</time>
      </trkpt>
      <trkpt lat="44.58812" lon="2.92189">
        <ele>817.26</ele>
        <time>2012-08-10T09:17:09Z</time>
      </trkpt>
      <trkpt lat="44.58794" lon="2.92175">
        <ele>819.18</ele>
        <time>2012-08-10T09:17:27Z</time>
      </trkpt>
      <trkpt lat="44.5878" lon="2.92165">
        <ele>821.1</ele>
        <time>2012-08-10T09:17:42Z</time>
      </trkpt>
      <trkpt lat="44.58778" lon="2.92162">
        <ele>821.1</ele>
        <time>2012-08-10T09:17:44Z</time>
      </trkpt>
      <trkpt lat="44.58776" lon="2.9216">
        <ele>821.1</ele>
        <time>2012-08-10T09:17:46Z</time>
      </trkpt>
      <trkpt lat="44.5877" lon="2.92158">
        <ele>821.58</ele>
        <time>2012-08-10T09:17:50Z</time>
      </trkpt>
      <trkpt lat="44.58766" lon="2.92154">
        <ele>823.03</ele>
        <time>2012-08-10T09:17:54Z</time>
      </trkpt>
      <trkpt lat="44.58764" lon="2.92152">
        <ele>823.51</ele>
        <time>2012-08-10T09:17:56Z</time>
      </trkpt>
      <trkpt lat="44.58754" lon="2.92141">
        <ele>823.99</ele>
        <time>2012-08-10T09:18:07Z</time>
      </trkpt>
      <trkpt lat="44.58752" lon="2.92139">
        <ele>823.99</ele>
        <time>2012-08-10T09:18:10Z</time>
      </trkpt>
      <trkpt lat="44.58749" lon="2.92135">
        <ele>823.99</ele>
        <time>2012-08-10T09:18:14Z</time>
      </trkpt>
      <trkpt lat="44.58747" lon="2.92133">
        <ele>824.47</ele>
        <time>2012-08-10T09:18:16Z</time>
      </trkpt>
      <trkpt lat="44.58738" lon="2.92123">
        <ele>823.03</ele>
        <time>2012-08-10T09:18:25Z</time>
      </trkpt>
      <trkpt lat="44.58736" lon="2.92119">
        <ele>822.55</ele>
        <time>2012-08-10T09:18:28Z</time>
      </trkpt>
      <trkpt lat="44.58726" lon="2.92104">
        <ele>823.51</ele>
        <time>2012-08-10T09:18:43Z</time>
      </trkpt>
      <trkpt lat="44.58717" lon="2.92092">
        <ele>824.47</ele>
        <time>2012-08-10T09:18:55Z</time>
      </trkpt>
      <trkpt lat="44.58705" lon="2.92074">
        <ele>828.31</ele>
        <time>2012-08-10T09:19:10Z</time>
      </trkpt>
      <trkpt lat="44.58702" lon="2.9207">
        <ele>829.76</ele>
        <time>2012-08-10T09:19:13Z</time>
      </trkpt>
      <trkpt lat="44.5869" lon="2.92063">
        <ele>833.6</ele>
        <time>2012-08-10T09:19:26Z</time>
      </trkpt>
      <trkpt lat="44.58679" lon="2.92051">
        <ele>837.93</ele>
        <time>2012-08-10T09:19:39Z</time>
      </trkpt>
      <trkpt lat="44.58673" lon="2.92043">
        <ele>839.85</ele>
        <time>2012-08-10T09:19:46Z</time>
      </trkpt>
      <trkpt lat="44.58669" lon="2.92039">
        <ele>840.33</ele>
        <time>2012-08-10T09:19:49Z</time>
      </trkpt>
      <trkpt lat="44.58656" lon="2.92028">
        <ele>842.73</ele>
        <time>2012-08-10T09:19:58Z</time>
      </trkpt>
      <trkpt lat="44.58652" lon="2.92035">
        <ele>841.77</ele>
        <time>2012-08-10T09:20:09Z</time>
      </trkpt>
      <trkpt lat="44.58656" lon="2.9205">
        <ele>846.1</ele>
        <time>2012-08-10T09:20:24Z</time>
      </trkpt>
      <trkpt lat="44.58661" lon="2.92058">
        <ele>848.5</ele>
        <time>2012-08-10T09:20:34Z</time>
      </trkpt>
      <trkpt lat="44.58666" lon="2.92075">
        <ele>849.46</ele>
        <time>2012-08-10T09:20:49Z</time>
      </trkpt>
      <trkpt lat="44.58661" lon="2.92077">
        <ele>850.42</ele>
        <time>2012-08-10T09:21:00Z</time>
      </trkpt>
      <trkpt lat="44.58646" lon="2.92065">
        <ele>851.38</ele>
        <time>2012-08-10T09:21:12Z</time>
      </trkpt>
      <trkpt lat="44.58631" lon="2.92047">
        <ele>852.35</ele>
        <time>2012-08-10T09:21:26Z</time>
      </trkpt>
      <trkpt lat="44.58613" lon="2.92024">
        <ele>856.67</ele>
        <time>2012-08-10T09:21:41Z</time>
      </trkpt>
      <trkpt lat="44.58596" lon="2.91999">
        <ele>860.52</ele>
        <time>2012-08-10T09:21:56Z</time>
      </trkpt>
      <trkpt lat="44.58575" lon="2.91981">
        <ele>861.48</ele>
        <time>2012-08-10T09:22:11Z</time>
      </trkpt>
      <trkpt lat="44.58572" lon="2.91978">
        <ele>861.48</ele>
        <time>2012-08-10T09:22:13Z</time>
      </trkpt>
      <trkpt lat="44.58556" lon="2.9197">
        <ele>860.04</ele>
        <time>2012-08-10T09:22:24Z</time>
      </trkpt>
      <trkpt lat="44.58538" lon="2.91961">
        <ele>861</ele>
        <time>2012-08-10T09:22:35Z</time>
      </trkpt>
      <trkpt lat="44.58536" lon="2.9196">
        <ele>861</ele>
        <time>2012-08-10T09:22:36Z</time>
      </trkpt>
      <trkpt lat="44.58509" lon="2.91952">
        <ele>862.44</ele>
        <time>2012-08-10T09:22:52Z</time>
      </trkpt>
      <trkpt lat="44.58483" lon="2.91944">
        <ele>866.29</ele>
        <time>2012-08-10T09:23:08Z</time>
      </trkpt>
      <trkpt lat="44.58458" lon="2.91941">
        <ele>866.29</ele>
        <time>2012-08-10T09:23:24Z</time>
      </trkpt>
      <trkpt lat="44.58438" lon="2.91939">
        <ele>867.73</ele>
        <time>2012-08-10T09:23:36Z</time>
      </trkpt>
      <trkpt lat="44.58432" lon="2.91937">
        <ele>868.69</ele>
        <time>2012-08-10T09:23:40Z</time>
      </trkpt>
      <trkpt lat="44.58405" lon="2.91931">
        <ele>867.25</ele>
        <time>2012-08-10T09:23:57Z</time>
      </trkpt>
      <trkpt lat="44.58383" lon="2.9192">
        <ele>870.61</ele>
        <time>2012-08-10T09:24:14Z</time>
      </trkpt>
      <trkpt lat="44.58374" lon="2.91917">
        <ele>874.94</ele>
        <time>2012-08-10T09:24:20Z</time>
      </trkpt>
      <trkpt lat="44.58355" lon="2.91904">
        <ele>878.3</ele>
        <time>2012-08-10T09:24:33Z</time>
      </trkpt>
      <trkpt lat="44.58347" lon="2.91899">
        <ele>880.22</ele>
        <time>2012-08-10T09:24:38Z</time>
      </trkpt>
      <trkpt lat="44.58328" lon="2.91878">
        <ele>886.47</ele>
        <time>2012-08-10T09:24:54Z</time>
      </trkpt>
      <trkpt lat="44.58304" lon="2.91863">
        <ele>885.99</ele>
        <time>2012-08-10T09:25:08Z</time>
      </trkpt>
      <trkpt lat="44.583" lon="2.91861">
        <ele>885.51</ele>
        <time>2012-08-10T09:25:11Z</time>
      </trkpt>
      <trkpt lat="44.58287" lon="2.91856">
        <ele>885.51</ele>
        <time>2012-08-10T09:25:19Z</time>
      </trkpt>
      <trkpt lat="44.58281" lon="2.91852">
        <ele>885.51</ele>
        <time>2012-08-10T09:25:23Z</time>
      </trkpt>
      <trkpt lat="44.58259" lon="2.91844">
        <ele>882.63</ele>
        <time>2012-08-10T09:25:38Z</time>
      </trkpt>
      <trkpt lat="44.58248" lon="2.91839">
        <ele>882.63</ele>
        <time>2012-08-10T09:25:46Z</time>
      </trkpt>
      <trkpt lat="44.58242" lon="2.91837">
        <ele>883.11</ele>
        <time>2012-08-10T09:25:50Z</time>
      </trkpt>
      <trkpt lat="44.58214" lon="2.91826">
        <ele>885.03</ele>
        <time>2012-08-10T09:26:07Z</time>
      </trkpt>
      <trkpt lat="44.58188" lon="2.9182">
        <ele>885.99</ele>
        <time>2012-08-10T09:26:24Z</time>
      </trkpt>
      <trkpt lat="44.58161" lon="2.91808">
        <ele>885.03</ele>
        <time>2012-08-10T09:26:37Z</time>
      </trkpt>
      <trkpt lat="44.58156" lon="2.91808">
        <ele>884.07</ele>
        <time>2012-08-10T09:26:38Z</time>
      </trkpt>
      <trkpt lat="44.58151" lon="2.91806">
        <ele>883.59</ele>
        <time>2012-08-10T09:26:39Z</time>
      </trkpt>
      <trkpt lat="44.58146" lon="2.91803">
        <ele>883.11</ele>
        <time>2012-08-10T09:26:40Z</time>
      </trkpt>
      <trkpt lat="44.58118" lon="2.91784">
        <ele>878.78</ele>
        <time>2012-08-10T09:26:47Z</time>
      </trkpt>
      <trkpt lat="44.58113" lon="2.91781">
        <ele>878.78</ele>
        <time>2012-08-10T09:26:48Z</time>
      </trkpt>
      <trkpt lat="44.58108" lon="2.9178">
        <ele>878.3</ele>
        <time>2012-08-10T09:26:49Z</time>
      </trkpt>
      <trkpt lat="44.58103" lon="2.91779">
        <ele>877.34</ele>
        <time>2012-08-10T09:26:50Z</time>
      </trkpt>
      <trkpt lat="44.58097" lon="2.91779">
        <ele>876.86</ele>
        <time>2012-08-10T09:26:51Z</time>
      </trkpt>
      <trkpt lat="44.58091" lon="2.91779">
        <ele>876.86</ele>
        <time>2012-08-10T09:26:52Z</time>
      </trkpt>
      <trkpt lat="44.58076" lon="2.91783">
        <ele>875.9</ele>
        <time>2012-08-10T09:26:55Z</time>
      </trkpt>
      <trkpt lat="44.58072" lon="2.91785">
        <ele>875.42</ele>
        <time>2012-08-10T09:26:56Z</time>
      </trkpt>
      <trkpt lat="44.58041" lon="2.91791">
        <ele>875.42</ele>
        <time>2012-08-10T09:27:07Z</time>
      </trkpt>
      <trkpt lat="44.58004" lon="2.91801">
        <ele>875.42</ele>
        <time>2012-08-10T09:27:18Z</time>
      </trkpt>
      <trkpt lat="44.57958" lon="2.91815">
        <ele>878.3</ele>
        <time>2012-08-10T09:27:31Z</time>
      </trkpt>
      <trkpt lat="44.57909" lon="2.91827">
        <ele>879.74</ele>
        <time>2012-08-10T09:27:43Z</time>
      </trkpt>
      <trkpt lat="44.57873" lon="2.91849">
        <ele>876.86</ele>
        <time>2012-08-10T09:27:54Z</time>
      </trkpt>
      <trkpt lat="44.57855" lon="2.9186">
        <ele>873.01</ele>
        <time>2012-08-10T09:28:02Z</time>
      </trkpt>
      <trkpt lat="44.57854" lon="2.91863">
        <ele>873.01</ele>
        <time>2012-08-10T09:28:03Z</time>
      </trkpt>
      <trkpt lat="44.57837" lon="2.9187">
        <ele>870.13</ele>
        <time>2012-08-10T09:28:13Z</time>
      </trkpt>
      <trkpt lat="44.57829" lon="2.91872">
        <ele>870.13</ele>
        <time>2012-08-10T09:28:17Z</time>
      </trkpt>
      <trkpt lat="44.57824" lon="2.9187">
        <ele>869.65</ele>
        <time>2012-08-10T09:28:21Z</time>
      </trkpt>
      <trkpt lat="44.57802" lon="2.91845">
        <ele>869.65</ele>
        <time>2012-08-10T09:28:33Z</time>
      </trkpt>
      <trkpt lat="44.57798" lon="2.9182">
        <ele>870.13</ele>
        <time>2012-08-10T09:28:44Z</time>
      </trkpt>
      <trkpt lat="44.57793" lon="2.91807">
        <ele>870.61</ele>
        <time>2012-08-10T09:28:49Z</time>
      </trkpt>
      <trkpt lat="44.57791" lon="2.91804">
        <ele>871.09</ele>
        <time>2012-08-10T09:28:51Z</time>
      </trkpt>
      <trkpt lat="44.57789" lon="2.91799">
        <ele>870.61</ele>
        <time>2012-08-10T09:28:54Z</time>
      </trkpt>
      <trkpt lat="44.57784" lon="2.91791">
        <ele>873.01</ele>
        <time>2012-08-10T09:28:59Z</time>
      </trkpt>
      <trkpt lat="44.57785" lon="2.91785">
        <ele>873.98</ele>
        <time>2012-08-10T09:29:04Z</time>
      </trkpt>
      <trkpt lat="44.57784" lon="2.91783">
        <ele>874.46</ele>
        <time>2012-08-10T09:29:06Z</time>
      </trkpt>
      <trkpt lat="44.5778" lon="2.91764">
        <ele>873.98</ele>
        <time>2012-08-10T09:29:18Z</time>
      </trkpt>
      <trkpt lat="44.57778" lon="2.91749">
        <ele>873.98</ele>
        <time>2012-08-10T09:29:29Z</time>
      </trkpt>
      <trkpt lat="44.57779" lon="2.91746">
        <ele>873.98</ele>
        <time>2012-08-10T09:29:30Z</time>
      </trkpt>
      <trkpt lat="44.57784" lon="2.91726">
        <ele>876.86</ele>
        <time>2012-08-10T09:29:41Z</time>
      </trkpt>
      <trkpt lat="44.57787" lon="2.91693">
        <ele>875.9</ele>
        <time>2012-08-10T09:29:54Z</time>
      </trkpt>
      <trkpt lat="44.57789" lon="2.91647">
        <ele>869.17</ele>
        <time>2012-08-10T09:30:07Z</time>
      </trkpt>
      <trkpt lat="44.57791" lon="2.91594">
        <ele>862.92</ele>
        <time>2012-08-10T09:30:21Z</time>
      </trkpt>
      <trkpt lat="44.57792" lon="2.91589">
        <ele>861.96</ele>
        <time>2012-08-10T09:30:22Z</time>
      </trkpt>
      <trkpt lat="44.57793" lon="2.91584">
        <ele>861.96</ele>
        <time>2012-08-10T09:30:23Z</time>
      </trkpt>
      <trkpt lat="44.57793" lon="2.91578">
        <ele>861.48</ele>
        <time>2012-08-10T09:30:24Z</time>
      </trkpt>
      <trkpt lat="44.57792" lon="2.91572">
        <ele>861</ele>
        <time>2012-08-10T09:30:25Z</time>
      </trkpt>
      <trkpt lat="44.57799" lon="2.91515">
        <ele>863.4</ele>
        <time>2012-08-10T09:30:35Z</time>
      </trkpt>
      <trkpt lat="44.578" lon="2.91462">
        <ele>864.84</ele>
        <time>2012-08-10T09:30:45Z</time>
      </trkpt>
      <trkpt lat="44.57802" lon="2.91442">
        <ele>864.84</ele>
        <time>2012-08-10T09:30:49Z</time>
      </trkpt>
      <trkpt lat="44.57802" lon="2.91437">
        <ele>865.8</ele>
        <time>2012-08-10T09:30:50Z</time>
      </trkpt>
      <trkpt lat="44.57803" lon="2.91432">
        <ele>866.29</ele>
        <time>2012-08-10T09:30:51Z</time>
      </trkpt>
      <trkpt lat="44.57804" lon="2.91427">
        <ele>867.25</ele>
        <time>2012-08-10T09:30:52Z</time>
      </trkpt>
      <trkpt lat="44.57805" lon="2.91423">
        <ele>868.21</ele>
        <time>2012-08-10T09:30:53Z</time>
      </trkpt>
      <trkpt lat="44.57806" lon="2.91417">
        <ele>869.65</ele>
        <time>2012-08-10T09:30:54Z</time>
      </trkpt>
      <trkpt lat="44.5781" lon="2.91411">
        <ele>872.05</ele>
        <time>2012-08-10T09:30:55Z</time>
      </trkpt>
      <trkpt lat="44.57811" lon="2.91405">
        <ele>873.01</ele>
        <time>2012-08-10T09:30:56Z</time>
      </trkpt>
      <trkpt lat="44.57812" lon="2.91399">
        <ele>873.5</ele>
        <time>2012-08-10T09:30:57Z</time>
      </trkpt>
      <trkpt lat="44.57812" lon="2.91394">
        <ele>873.98</ele>
        <time>2012-08-10T09:30:58Z</time>
      </trkpt>
      <trkpt lat="44.57811" lon="2.91388">
        <ele>874.94</ele>
        <time>2012-08-10T09:30:59Z</time>
      </trkpt>
      <trkpt lat="44.57803" lon="2.91335">
        <ele>881.19</ele>
        <time>2012-08-10T09:31:09Z</time>
      </trkpt>
      <trkpt lat="44.5778" lon="2.91304">
        <ele>888.4</ele>
        <time>2012-08-10T09:31:19Z</time>
      </trkpt>
      <trkpt lat="44.5776" lon="2.91264">
        <ele>895.61</ele>
        <time>2012-08-10T09:31:29Z</time>
      </trkpt>
      <trkpt lat="44.57737" lon="2.912">
        <ele>904.74</ele>
        <time>2012-08-10T09:31:42Z</time>
      </trkpt>
      <trkpt lat="44.57706" lon="2.9116">
        <ele>906.66</ele>
        <time>2012-08-10T09:31:55Z</time>
      </trkpt>
      <trkpt lat="44.57671" lon="2.91104">
        <ele>906.18</ele>
        <time>2012-08-10T09:32:06Z</time>
      </trkpt>
      <trkpt lat="44.57654" lon="2.91074">
        <ele>906.66</ele>
        <time>2012-08-10T09:32:11Z</time>
      </trkpt>
      <trkpt lat="44.5765" lon="2.91069">
        <ele>906.66</ele>
        <time>2012-08-10T09:32:12Z</time>
      </trkpt>
      <trkpt lat="44.57646" lon="2.91064">
        <ele>906.66</ele>
        <time>2012-08-10T09:32:13Z</time>
      </trkpt>
      <trkpt lat="44.57641" lon="2.9106">
        <ele>906.66</ele>
        <time>2012-08-10T09:32:14Z</time>
      </trkpt>
      <trkpt lat="44.57637" lon="2.91057">
        <ele>907.14</ele>
        <time>2012-08-10T09:32:15Z</time>
      </trkpt>
      <trkpt lat="44.57608" lon="2.91035">
        <ele>908.58</ele>
        <time>2012-08-10T09:32:25Z</time>
      </trkpt>
      <trkpt lat="44.57602" lon="2.9103">
        <ele>910.03</ele>
        <time>2012-08-10T09:32:29Z</time>
      </trkpt>
      <trkpt lat="44.57591" lon="2.91013">
        <ele>911.95</ele>
        <time>2012-08-10T09:32:40Z</time>
      </trkpt>
      <trkpt lat="44.57589" lon="2.91">
        <ele>914.83</ele>
        <time>2012-08-10T09:32:51Z</time>
      </trkpt>
      <trkpt lat="44.57582" lon="2.90981">
        <ele>910.51</ele>
        <time>2012-08-10T09:33:06Z</time>
      </trkpt>
      <trkpt lat="44.57583" lon="2.90968">
        <ele>903.78</ele>
        <time>2012-08-10T09:33:23Z</time>
      </trkpt>
      <trkpt lat="44.57587" lon="2.90944">
        <ele>897.53</ele>
        <time>2012-08-10T09:33:37Z</time>
      </trkpt>
      <trkpt lat="44.5759" lon="2.90925">
        <ele>897.05</ele>
        <time>2012-08-10T09:33:52Z</time>
      </trkpt>
      <trkpt lat="44.57592" lon="2.90921">
        <ele>894.64</ele>
        <time>2012-08-10T09:34:07Z</time>
      </trkpt>
      <trkpt lat="44.5759" lon="2.90915">
        <ele>894.16</ele>
        <time>2012-08-10T09:34:20Z</time>
      </trkpt>
      <trkpt lat="44.57598" lon="2.909">
        <ele>896.57</ele>
        <time>2012-08-10T09:34:33Z</time>
      </trkpt>
      <trkpt lat="44.57599" lon="2.90885">
        <ele>896.57</ele>
        <time>2012-08-10T09:34:44Z</time>
      </trkpt>
      <trkpt lat="44.57599" lon="2.90874">
        <ele>900.41</ele>
        <time>2012-08-10T09:34:56Z</time>
      </trkpt>
      <trkpt lat="44.57603" lon="2.90862">
        <ele>903.3</ele>
        <time>2012-08-10T09:35:09Z</time>
      </trkpt>
      <trkpt lat="44.57603" lon="2.90849">
        <ele>902.33</ele>
        <time>2012-08-10T09:35:24Z</time>
      </trkpt>
      <trkpt lat="44.57599" lon="2.9083">
        <ele>902.82</ele>
        <time>2012-08-10T09:35:38Z</time>
      </trkpt>
      <trkpt lat="44.57598" lon="2.90815">
        <ele>904.74</ele>
        <time>2012-08-10T09:35:54Z</time>
      </trkpt>
      <trkpt lat="44.57605" lon="2.90802">
        <ele>905.7</ele>
        <time>2012-08-10T09:36:09Z</time>
      </trkpt>
      <trkpt lat="44.57611" lon="2.90789">
        <ele>905.7</ele>
        <time>2012-08-10T09:36:22Z</time>
      </trkpt>
      <trkpt lat="44.57612" lon="2.90773">
        <ele>907.14</ele>
        <time>2012-08-10T09:36:37Z</time>
      </trkpt>
      <trkpt lat="44.57614" lon="2.9076">
        <ele>909.54</ele>
        <time>2012-08-10T09:36:51Z</time>
      </trkpt>
      <trkpt lat="44.57614" lon="2.90755">
        <ele>910.51</ele>
        <time>2012-08-10T09:37:07Z</time>
      </trkpt>
      <trkpt lat="44.5761" lon="2.90738">
        <ele>911.47</ele>
        <time>2012-08-10T09:37:21Z</time>
      </trkpt>
      <trkpt lat="44.57608" lon="2.90722">
        <ele>911.47</ele>
        <time>2012-08-10T09:37:36Z</time>
      </trkpt>
      <trkpt lat="44.57602" lon="2.90703">
        <ele>916.27</ele>
        <time>2012-08-10T09:37:52Z</time>
      </trkpt>
      <trkpt lat="44.576" lon="2.9069">
        <ele>913.39</ele>
        <time>2012-08-10T09:38:08Z</time>
      </trkpt>
      <trkpt lat="44.57599" lon="2.90676">
        <ele>915.31</ele>
        <time>2012-08-10T09:38:21Z</time>
      </trkpt>
      <trkpt lat="44.57594" lon="2.9066">
        <ele>916.75</ele>
        <time>2012-08-10T09:38:35Z</time>
      </trkpt>
      <trkpt lat="44.57593" lon="2.90645">
        <ele>917.72</ele>
        <time>2012-08-10T09:38:48Z</time>
      </trkpt>
      <trkpt lat="44.57585" lon="2.90632">
        <ele>920.6</ele>
        <time>2012-08-10T09:39:00Z</time>
      </trkpt>
      <trkpt lat="44.57573" lon="2.9063">
        <ele>919.16</ele>
        <time>2012-08-10T09:39:16Z</time>
      </trkpt>
      <trkpt lat="44.57562" lon="2.90636">
        <ele>922.04</ele>
        <time>2012-08-10T09:39:31Z</time>
      </trkpt>
      <trkpt lat="44.57554" lon="2.90646">
        <ele>923</ele>
        <time>2012-08-10T09:39:47Z</time>
      </trkpt>
      <trkpt lat="44.57546" lon="2.90645">
        <ele>923.96</ele>
        <time>2012-08-10T09:39:57Z</time>
      </trkpt>
      <trkpt lat="44.57542" lon="2.90637">
        <ele>925.89</ele>
        <time>2012-08-10T09:40:11Z</time>
      </trkpt>
      <trkpt lat="44.5754" lon="2.90633">
        <ele>925.89</ele>
        <time>2012-08-10T09:40:28Z</time>
      </trkpt>
      <trkpt lat="44.5754" lon="2.90631">
        <ele>926.37</ele>
        <time>2012-08-10T09:40:29Z</time>
      </trkpt>
      <trkpt lat="44.57539" lon="2.90629">
        <ele>926.37</ele>
        <time>2012-08-10T09:40:30Z</time>
      </trkpt>
      <trkpt lat="44.57538" lon="2.90627">
        <ele>926.85</ele>
        <time>2012-08-10T09:40:31Z</time>
      </trkpt>
      <trkpt lat="44.57537" lon="2.90624">
        <ele>927.33</ele>
        <time>2012-08-10T09:40:32Z</time>
      </trkpt>
      <trkpt lat="44.57536" lon="2.90621">
        <ele>927.33</ele>
        <time>2012-08-10T09:40:33Z</time>
      </trkpt>
      <trkpt lat="44.57535" lon="2.90618">
        <ele>927.81</ele>
        <time>2012-08-10T09:40:34Z</time>
      </trkpt>
      <trkpt lat="44.57533" lon="2.90615">
        <ele>927.81</ele>
        <time>2012-08-10T09:40:35Z</time>
      </trkpt>
      <trkpt lat="44.57506" lon="2.90582">
        <ele>928.29</ele>
        <time>2012-08-10T09:40:48Z</time>
      </trkpt>
      <trkpt lat="44.5747" lon="2.90553">
        <ele>925.89</ele>
        <time>2012-08-10T09:41:02Z</time>
      </trkpt>
      <trkpt lat="44.57428" lon="2.90537">
        <ele>923</ele>
        <time>2012-08-10T09:41:10Z</time>
      </trkpt>
      <trkpt lat="44.57422" lon="2.90535">
        <ele>922.52</ele>
        <time>2012-08-10T09:41:11Z</time>
      </trkpt>
      <trkpt lat="44.57417" lon="2.90531">
        <ele>922.52</ele>
        <time>2012-08-10T09:41:12Z</time>
      </trkpt>
      <trkpt lat="44.57412" lon="2.90527">
        <ele>922.04</ele>
        <time>2012-08-10T09:41:13Z</time>
      </trkpt>
      <trkpt lat="44.57407" lon="2.90523">
        <ele>922.04</ele>
        <time>2012-08-10T09:41:14Z</time>
      </trkpt>
      <trkpt lat="44.57403" lon="2.90519">
        <ele>922.04</ele>
        <time>2012-08-10T09:41:15Z</time>
      </trkpt>
      <trkpt lat="44.57358" lon="2.90479">
        <ele>921.56</ele>
        <time>2012-08-10T09:41:26Z</time>
      </trkpt>
      <trkpt lat="44.57329" lon="2.90459">
        <ele>922.04</ele>
        <time>2012-08-10T09:41:37Z</time>
      </trkpt>
      <trkpt lat="44.57322" lon="2.90454">
        <ele>922.04</ele>
        <time>2012-08-10T09:41:39Z</time>
      </trkpt>
      <trkpt lat="44.57318" lon="2.90452">
        <ele>922.04</ele>
        <time>2012-08-10T09:41:40Z</time>
      </trkpt>
      <trkpt lat="44.57313" lon="2.90449">
        <ele>922.04</ele>
        <time>2012-08-10T09:41:41Z</time>
      </trkpt>
      <trkpt lat="44.57287" lon="2.90428">
        <ele>920.6</ele>
        <time>2012-08-10T09:41:49Z</time>
      </trkpt>
      <trkpt lat="44.57282" lon="2.90429">
        <ele>920.12</ele>
        <time>2012-08-10T09:41:50Z</time>
      </trkpt>
      <trkpt lat="44.57256" lon="2.90442">
        <ele>918.68</ele>
        <time>2012-08-10T09:42:02Z</time>
      </trkpt>
      <trkpt lat="44.57238" lon="2.90468">
        <ele>917.24</ele>
        <time>2012-08-10T09:42:12Z</time>
      </trkpt>
      <trkpt lat="44.57237" lon="2.9047">
        <ele>917.24</ele>
        <time>2012-08-10T09:42:13Z</time>
      </trkpt>
      <trkpt lat="44.57236" lon="2.90472">
        <ele>916.75</ele>
        <time>2012-08-10T09:42:14Z</time>
      </trkpt>
      <trkpt lat="44.57234" lon="2.90474">
        <ele>916.75</ele>
        <time>2012-08-10T09:42:15Z</time>
      </trkpt>
      <trkpt lat="44.57234" lon="2.90476">
        <ele>916.27</ele>
        <time>2012-08-10T09:42:16Z</time>
      </trkpt>
      <trkpt lat="44.57217" lon="2.90494">
        <ele>911.95</ele>
        <time>2012-08-10T09:42:28Z</time>
      </trkpt>
      <trkpt lat="44.57206" lon="2.90496">
        <ele>909.06</ele>
        <time>2012-08-10T09:42:40Z</time>
      </trkpt>
      <trkpt lat="44.57203" lon="2.90494">
        <ele>909.54</ele>
        <time>2012-08-10T09:42:50Z</time>
      </trkpt>
      <trkpt lat="44.57195" lon="2.90493">
        <ele>910.99</ele>
        <time>2012-08-10T09:42:57Z</time>
      </trkpt>
      <trkpt lat="44.57174" lon="2.90476">
        <ele>910.03</ele>
        <time>2012-08-10T09:43:10Z</time>
      </trkpt>
      <trkpt lat="44.57172" lon="2.90475">
        <ele>910.03</ele>
        <time>2012-08-10T09:43:11Z</time>
      </trkpt>
      <trkpt lat="44.57155" lon="2.90458">
        <ele>911.47</ele>
        <time>2012-08-10T09:43:21Z</time>
      </trkpt>
      <trkpt lat="44.57142" lon="2.90441">
        <ele>909.54</ele>
        <time>2012-08-10T09:43:33Z</time>
      </trkpt>
      <trkpt lat="44.5713" lon="2.90421">
        <ele>911.47</ele>
        <time>2012-08-10T09:43:42Z</time>
      </trkpt>
      <trkpt lat="44.57125" lon="2.90412">
        <ele>911.95</ele>
        <time>2012-08-10T09:43:45Z</time>
      </trkpt>
      <trkpt lat="44.57108" lon="2.90383">
        <ele>913.87</ele>
        <time>2012-08-10T09:43:55Z</time>
      </trkpt>
      <trkpt lat="44.5711" lon="2.90366">
        <ele>915.31</ele>
        <time>2012-08-10T09:43:59Z</time>
      </trkpt>
      <trkpt lat="44.571" lon="2.90325">
        <ele>915.79</ele>
        <time>2012-08-10T09:44:11Z</time>
      </trkpt>
      <trkpt lat="44.57079" lon="2.90288">
        <ele>912.91</ele>
        <time>2012-08-10T09:44:21Z</time>
      </trkpt>
      <trkpt lat="44.57057" lon="2.90249">
        <ele>910.03</ele>
        <time>2012-08-10T09:44:33Z</time>
      </trkpt>
      <trkpt lat="44.57034" lon="2.90218">
        <ele>907.14</ele>
        <time>2012-08-10T09:44:45Z</time>
      </trkpt>
      <trkpt lat="44.57027" lon="2.90202">
        <ele>907.62</ele>
        <time>2012-08-10T09:44:53Z</time>
      </trkpt>
      <trkpt lat="44.57027" lon="2.90182">
        <ele>906.18</ele>
        <time>2012-08-10T09:45:06Z</time>
      </trkpt>
      <trkpt lat="44.57026" lon="2.90169">
        <ele>904.26</ele>
        <time>2012-08-10T09:45:20Z</time>
      </trkpt>
      <trkpt lat="44.57026" lon="2.90168">
        <ele>903.78</ele>
        <time>2012-08-10T09:45:39Z</time>
      </trkpt>
      <trkpt lat="44.57025" lon="2.90165">
        <ele>902.82</ele>
        <time>2012-08-10T09:46:04Z</time>
      </trkpt>
      <trkpt lat="44.57024" lon="2.90158">
        <ele>902.33</ele>
        <time>2012-08-10T09:46:14Z</time>
      </trkpt>
      <trkpt lat="44.5702" lon="2.90146">
        <ele>900.89</ele>
        <time>2012-08-10T09:46:19Z</time>
      </trkpt>
      <trkpt lat="44.57018" lon="2.9014">
        <ele>900.41</ele>
        <time>2012-08-10T09:46:22Z</time>
      </trkpt>
      <trkpt lat="44.57" lon="2.90091">
        <ele>900.41</ele>
        <time>2012-08-10T09:46:35Z</time>
      </trkpt>
      <trkpt lat="44.56988" lon="2.90059">
        <ele>900.89</ele>
        <time>2012-08-10T09:46:45Z</time>
      </trkpt>
      <trkpt lat="44.56986" lon="2.90057">
        <ele>900.89</ele>
        <time>2012-08-10T09:46:46Z</time>
      </trkpt>
      <trkpt lat="44.56984" lon="2.90057">
        <ele>900.89</ele>
        <time>2012-08-10T09:46:47Z</time>
      </trkpt>
      <trkpt lat="44.56983" lon="2.90056">
        <ele>901.37</ele>
        <time>2012-08-10T09:46:48Z</time>
      </trkpt>
      <trkpt lat="44.56981" lon="2.90056">
        <ele>901.37</ele>
        <time>2012-08-10T09:46:49Z</time>
      </trkpt>
      <trkpt lat="44.56966" lon="2.90057">
        <ele>902.82</ele>
        <time>2012-08-10T09:47:02Z</time>
      </trkpt>
      <trkpt lat="44.56951" lon="2.90057">
        <ele>906.66</ele>
        <time>2012-08-10T09:47:15Z</time>
      </trkpt>
      <trkpt lat="44.56934" lon="2.90059">
        <ele>908.58</ele>
        <time>2012-08-10T09:47:28Z</time>
      </trkpt>
      <trkpt lat="44.56919" lon="2.90059">
        <ele>908.58</ele>
        <time>2012-08-10T09:47:41Z</time>
      </trkpt>
      <trkpt lat="44.56908" lon="2.90056">
        <ele>910.51</ele>
        <time>2012-08-10T09:47:50Z</time>
      </trkpt>
      <trkpt lat="44.56899" lon="2.90049">
        <ele>912.43</ele>
        <time>2012-08-10T09:48:01Z</time>
      </trkpt>
      <trkpt lat="44.56894" lon="2.90046">
        <ele>913.39</ele>
        <time>2012-08-10T09:48:08Z</time>
      </trkpt>
      <trkpt lat="44.56892" lon="2.90044">
        <ele>913.39</ele>
        <time>2012-08-10T09:48:10Z</time>
      </trkpt>
      <trkpt lat="44.56868" lon="2.90019">
        <ele>911.47</ele>
        <time>2012-08-10T09:48:19Z</time>
      </trkpt>
      <trkpt lat="44.56834" lon="2.89973">
        <ele>909.06</ele>
        <time>2012-08-10T09:48:32Z</time>
      </trkpt>
      <trkpt lat="44.56821" lon="2.89962">
        <ele>906.66</ele>
        <time>2012-08-10T09:48:37Z</time>
      </trkpt>
      <trkpt lat="44.56799" lon="2.89943">
        <ele>903.3</ele>
        <time>2012-08-10T09:48:43Z</time>
      </trkpt>
      <trkpt lat="44.56795" lon="2.89937">
        <ele>902.33</ele>
        <time>2012-08-10T09:48:44Z</time>
      </trkpt>
      <trkpt lat="44.56771" lon="2.89888">
        <ele>901.37</ele>
        <time>2012-08-10T09:48:54Z</time>
      </trkpt>
      <trkpt lat="44.56765" lon="2.89876">
        <ele>902.33</ele>
        <time>2012-08-10T09:49:00Z</time>
      </trkpt>
      <trkpt lat="44.56764" lon="2.89873">
        <ele>902.33</ele>
        <time>2012-08-10T09:49:01Z</time>
      </trkpt>
      <trkpt lat="44.56749" lon="2.89846">
        <ele>905.22</ele>
        <time>2012-08-10T09:49:16Z</time>
      </trkpt>
      <trkpt lat="44.56729" lon="2.89813">
        <ele>908.1</ele>
        <time>2012-08-10T09:49:33Z</time>
      </trkpt>
      <trkpt lat="44.5671" lon="2.89783">
        <ele>909.54</ele>
        <time>2012-08-10T09:49:49Z</time>
      </trkpt>
      <trkpt lat="44.56689" lon="2.89761">
        <ele>910.51</ele>
        <time>2012-08-10T09:50:01Z</time>
      </trkpt>
      <trkpt lat="44.56671" lon="2.89713">
        <ele>909.54</ele>
        <time>2012-08-10T09:50:14Z</time>
      </trkpt>
      <trkpt lat="44.56666" lon="2.89703">
        <ele>909.06</ele>
        <time>2012-08-10T09:50:16Z</time>
      </trkpt>
      <trkpt lat="44.56617" lon="2.89634">
        <ele>903.78</ele>
        <time>2012-08-10T09:50:26Z</time>
      </trkpt>
      <trkpt lat="44.56523" lon="2.89516">
        <ele>893.2</ele>
        <time>2012-08-10T09:50:38Z</time>
      </trkpt>
      <trkpt lat="44.56444" lon="2.89386">
        <ele>890.8</ele>
        <time>2012-08-10T09:50:51Z</time>
      </trkpt>
      <trkpt lat="44.56407" lon="2.89264">
        <ele>889.36</ele>
        <time>2012-08-10T09:51:05Z</time>
      </trkpt>
      <trkpt lat="44.564" lon="2.89238">
        <ele>888.88</ele>
        <time>2012-08-10T09:51:08Z</time>
      </trkpt>
      <trkpt lat="44.56354" lon="2.89095">
        <ele>883.59</ele>
        <time>2012-08-10T09:51:22Z</time>
      </trkpt>
      <trkpt lat="44.56329" lon="2.89032">
        <ele>881.19</ele>
        <time>2012-08-10T09:51:28Z</time>
      </trkpt>
      <trkpt lat="44.56325" lon="2.89023">
        <ele>880.71</ele>
        <time>2012-08-10T09:51:29Z</time>
      </trkpt>
      <trkpt lat="44.5632" lon="2.89015">
        <ele>880.71</ele>
        <time>2012-08-10T09:51:30Z</time>
      </trkpt>
      <trkpt lat="44.56315" lon="2.89006">
        <ele>880.22</ele>
        <time>2012-08-10T09:51:31Z</time>
      </trkpt>
      <trkpt lat="44.56311" lon="2.88997">
        <ele>879.74</ele>
        <time>2012-08-10T09:51:32Z</time>
      </trkpt>
      <trkpt lat="44.56258" lon="2.88901">
        <ele>873.98</ele>
        <time>2012-08-10T09:51:43Z</time>
      </trkpt>
      <trkpt lat="44.56196" lon="2.88817">
        <ele>867.73</ele>
        <time>2012-08-10T09:51:54Z</time>
      </trkpt>
      <trkpt lat="44.56084" lon="2.88732">
        <ele>862.44</ele>
        <time>2012-08-10T09:52:08Z</time>
      </trkpt>
      <trkpt lat="44.56017" lon="2.88692">
        <ele>861.48</ele>
        <time>2012-08-10T09:52:20Z</time>
      </trkpt>
      <trkpt lat="44.56012" lon="2.88689">
        <ele>861.48</ele>
        <time>2012-08-10T09:52:21Z</time>
      </trkpt>
      <trkpt lat="44.55983" lon="2.88668">
        <ele>861.48</ele>
        <time>2012-08-10T09:52:29Z</time>
      </trkpt>
      <trkpt lat="44.55959" lon="2.8863">
        <ele>861</ele>
        <time>2012-08-10T09:52:37Z</time>
      </trkpt>
      <trkpt lat="44.55946" lon="2.88586">
        <ele>861.96</ele>
        <time>2012-08-10T09:52:48Z</time>
      </trkpt>
      <trkpt lat="44.55942" lon="2.88545">
        <ele>862.92</ele>
        <time>2012-08-10T09:53:03Z</time>
      </trkpt>
      <trkpt lat="44.55948" lon="2.88507">
        <ele>863.88</ele>
        <time>2012-08-10T09:53:15Z</time>
      </trkpt>
      <trkpt lat="44.55961" lon="2.88465">
        <ele>866.77</ele>
        <time>2012-08-10T09:53:28Z</time>
      </trkpt>
      <trkpt lat="44.55975" lon="2.88426">
        <ele>868.69</ele>
        <time>2012-08-10T09:53:41Z</time>
      </trkpt>
      <trkpt lat="44.55991" lon="2.88378">
        <ele>868.69</ele>
        <time>2012-08-10T09:53:57Z</time>
      </trkpt>
      <trkpt lat="44.55997" lon="2.8835">
        <ele>869.17</ele>
        <time>2012-08-10T09:54:07Z</time>
      </trkpt>
      <trkpt lat="44.56" lon="2.8833">
        <ele>869.17</ele>
        <time>2012-08-10T09:54:13Z</time>
      </trkpt>
      <trkpt lat="44.56001" lon="2.88327">
        <ele>869.17</ele>
        <time>2012-08-10T09:54:14Z</time>
      </trkpt>
      <trkpt lat="44.56001" lon="2.88325">
        <ele>868.69</ele>
        <time>2012-08-10T09:54:15Z</time>
      </trkpt>
      <trkpt lat="44.56002" lon="2.88323">
        <ele>868.69</ele>
        <time>2012-08-10T09:54:16Z</time>
      </trkpt>
      <trkpt lat="44.56002" lon="2.8832">
        <ele>869.17</ele>
        <time>2012-08-10T09:54:17Z</time>
      </trkpt>
      <trkpt lat="44.56013" lon="2.88266">
        <ele>866.77</ele>
        <time>2012-08-10T09:54:30Z</time>
      </trkpt>
      <trkpt lat="44.56017" lon="2.88244">
        <ele>866.77</ele>
        <time>2012-08-10T09:54:34Z</time>
      </trkpt>
      <trkpt lat="44.56021" lon="2.88227">
        <ele>866.29</ele>
        <time>2012-08-10T09:54:37Z</time>
      </trkpt>
      <trkpt lat="44.56023" lon="2.88214">
        <ele>865.8</ele>
        <time>2012-08-10T09:54:39Z</time>
      </trkpt>
      <trkpt lat="44.56024" lon="2.88208">
        <ele>865.8</ele>
        <time>2012-08-10T09:54:40Z</time>
      </trkpt>
      <trkpt lat="44.56025" lon="2.88202">
        <ele>865.32</ele>
        <time>2012-08-10T09:54:41Z</time>
      </trkpt>
      <trkpt lat="44.56028" lon="2.88189">
        <ele>864.84</ele>
        <time>2012-08-10T09:54:43Z</time>
      </trkpt>
      <trkpt lat="44.56029" lon="2.88184">
        <ele>864.84</ele>
        <time>2012-08-10T09:54:44Z</time>
      </trkpt>
      <trkpt lat="44.5603" lon="2.88181">
        <ele>864.36</ele>
        <time>2012-08-10T09:54:45Z</time>
      </trkpt>
      <trkpt lat="44.5603" lon="2.8818">
        <ele>863.88</ele>
        <time>2012-08-10T09:54:58Z</time>
      </trkpt>
      <trkpt lat="44.56031" lon="2.88179">
        <ele>863.88</ele>
        <time>2012-08-10T09:55:41Z</time>
      </trkpt>
      <trkpt lat="44.56032" lon="2.88172">
        <ele>864.36</ele>
        <time>2012-08-10T09:56:05Z</time>
      </trkpt>
      <trkpt lat="44.56042" lon="2.88115">
        <ele>863.88</ele>
        <time>2012-08-10T09:56:19Z</time>
      </trkpt>
      <trkpt lat="44.56053" lon="2.88062">
        <ele>862.44</ele>
        <time>2012-08-10T09:56:31Z</time>
      </trkpt>
      <trkpt lat="44.5607" lon="2.87977">
        <ele>860.52</ele>
        <time>2012-08-10T09:56:47Z</time>
      </trkpt>
      <trkpt lat="44.56072" lon="2.87971">
        <ele>860.04</ele>
        <time>2012-08-10T09:56:48Z</time>
      </trkpt>
      <trkpt lat="44.56073" lon="2.87966">
        <ele>860.04</ele>
        <time>2012-08-10T09:56:49Z</time>
      </trkpt>
      <trkpt lat="44.56074" lon="2.8796">
        <ele>860.04</ele>
        <time>2012-08-10T09:56:50Z</time>
      </trkpt>
      <trkpt lat="44.56079" lon="2.87909">
        <ele>857.63</ele>
        <time>2012-08-10T09:56:58Z</time>
      </trkpt>
      <trkpt lat="44.56076" lon="2.87858">
        <ele>854.75</ele>
        <time>2012-08-10T09:57:08Z</time>
      </trkpt>
      <trkpt lat="44.56081" lon="2.87774">
        <ele>852.83</ele>
        <time>2012-08-10T09:57:24Z</time>
      </trkpt>
      <trkpt lat="44.56083" lon="2.87717">
        <ele>851.38</ele>
        <time>2012-08-10T09:57:38Z</time>
      </trkpt>
      <trkpt lat="44.56083" lon="2.87696">
        <ele>850.9</ele>
        <time>2012-08-10T09:57:42Z</time>
      </trkpt>
      <trkpt lat="44.56082" lon="2.8769">
        <ele>850.9</ele>
        <time>2012-08-10T09:57:43Z</time>
      </trkpt>
      <trkpt lat="44.56082" lon="2.87659">
        <ele>849.94</ele>
        <time>2012-08-10T09:57:48Z</time>
      </trkpt>
      <trkpt lat="44.56082" lon="2.87653">
        <ele>849.94</ele>
        <time>2012-08-10T09:57:49Z</time>
      </trkpt>
      <trkpt lat="44.56075" lon="2.87582">
        <ele>848.5</ele>
        <time>2012-08-10T09:57:59Z</time>
      </trkpt>
      <trkpt lat="44.56072" lon="2.87568">
        <ele>847.54</ele>
        <time>2012-08-10T09:58:01Z</time>
      </trkpt>
      <trkpt lat="44.5607" lon="2.87561">
        <ele>847.06</ele>
        <time>2012-08-10T09:58:02Z</time>
      </trkpt>
      <trkpt lat="44.56066" lon="2.87545">
        <ele>845.62</ele>
        <time>2012-08-10T09:58:04Z</time>
      </trkpt>
      <trkpt lat="44.56064" lon="2.87538">
        <ele>845.62</ele>
        <time>2012-08-10T09:58:05Z</time>
      </trkpt>
      <trkpt lat="44.56047" lon="2.87502">
        <ele>843.69</ele>
        <time>2012-08-10T09:58:13Z</time>
      </trkpt>
      <trkpt lat="44.56028" lon="2.87459">
        <ele>841.77</ele>
        <time>2012-08-10T09:58:25Z</time>
      </trkpt>
      <trkpt lat="44.56001" lon="2.8741">
        <ele>839.37</ele>
        <time>2012-08-10T09:58:38Z</time>
      </trkpt>
      <trkpt lat="44.5598" lon="2.87375">
        <ele>837.93</ele>
        <time>2012-08-10T09:58:49Z</time>
      </trkpt>
      <trkpt lat="44.55968" lon="2.87355">
        <ele>836.48</ele>
        <time>2012-08-10T09:58:56Z</time>
      </trkpt>
      <trkpt lat="44.55968" lon="2.87351">
        <ele>836.48</ele>
        <time>2012-08-10T09:58:57Z</time>
      </trkpt>
      <trkpt lat="44.55967" lon="2.87347">
        <ele>836</ele>
        <time>2012-08-10T09:58:58Z</time>
      </trkpt>
      <trkpt lat="44.55966" lon="2.87344">
        <ele>836</ele>
        <time>2012-08-10T09:58:59Z</time>
      </trkpt>
      <trkpt lat="44.55964" lon="2.87342">
        <ele>836</ele>
        <time>2012-08-10T09:59:00Z</time>
      </trkpt>
      <trkpt lat="44.55961" lon="2.8734">
        <ele>835.52</ele>
        <time>2012-08-10T09:59:01Z</time>
      </trkpt>
      <trkpt lat="44.55959" lon="2.87339">
        <ele>835.52</ele>
        <time>2012-08-10T09:59:02Z</time>
      </trkpt>
      <trkpt lat="44.55955" lon="2.87338">
        <ele>835.52</ele>
        <time>2012-08-10T09:59:03Z</time>
      </trkpt>
      <trkpt lat="44.55944" lon="2.87337">
        <ele>835.04</ele>
        <time>2012-08-10T09:59:06Z</time>
      </trkpt>
      <trkpt lat="44.5594" lon="2.87338">
        <ele>834.56</ele>
        <time>2012-08-10T09:59:07Z</time>
      </trkpt>
      <trkpt lat="44.55896" lon="2.87353">
        <ele>831.68</ele>
        <time>2012-08-10T09:59:19Z</time>
      </trkpt>
      <trkpt lat="44.5587" lon="2.87369">
        <ele>829.27</ele>
        <time>2012-08-10T09:59:31Z</time>
      </trkpt>
      <trkpt lat="44.55869" lon="2.87369">
        <ele>829.27</ele>
        <time>2012-08-10T09:59:32Z</time>
      </trkpt>
      <trkpt lat="44.55868" lon="2.87367">
        <ele>829.27</ele>
        <time>2012-08-10T09:59:33Z</time>
      </trkpt>
      <trkpt lat="44.55868" lon="2.87365">
        <ele>829.27</ele>
        <time>2012-08-10T09:59:34Z</time>
      </trkpt>
      <trkpt lat="44.55868" lon="2.87363">
        <ele>829.76</ele>
        <time>2012-08-10T09:59:35Z</time>
      </trkpt>
      <trkpt lat="44.5587" lon="2.8736">
        <ele>829.27</ele>
        <time>2012-08-10T09:59:47Z</time>
      </trkpt>
      <trkpt lat="44.5587" lon="2.87359">
        <ele>830.24</ele>
        <time>2012-08-10T09:59:59Z</time>
      </trkpt>
      <trkpt lat="44.55869" lon="2.87358">
        <ele>829.27</ele>
        <time>2012-08-10T10:00:29Z</time>
      </trkpt>
      <trkpt lat="44.55868" lon="2.87358">
        <ele>829.27</ele>
        <time>2012-08-10T10:01:00Z</time>
      </trkpt>
      <trkpt lat="44.55867" lon="2.87358">
        <ele>829.27</ele>
        <time>2012-08-10T10:01:28Z</time>
      </trkpt>
      <trkpt lat="44.55867" lon="2.87358">
        <ele>829.76</ele>
        <time>2012-08-10T10:02:06Z</time>
      </trkpt>
      <trkpt lat="44.55867" lon="2.87359">
        <ele>829.76</ele>
        <time>2012-08-10T10:02:38Z</time>
      </trkpt>
      <trkpt lat="44.55868" lon="2.87358">
        <ele>828.79</ele>
        <time>2012-08-10T10:03:10Z</time>
      </trkpt>
      <trkpt lat="44.55868" lon="2.87359">
        <ele>827.83</ele>
        <time>2012-08-10T10:03:35Z</time>
      </trkpt>
      <trkpt lat="44.55868" lon="2.87359">
        <ele>827.35</ele>
        <time>2012-08-10T10:04:04Z</time>
      </trkpt>
      <trkpt lat="44.55867" lon="2.87359">
        <ele>828.31</ele>
        <time>2012-08-10T10:04:39Z</time>
      </trkpt>
      <trkpt lat="44.55867" lon="2.87358">
        <ele>829.76</ele>
        <time>2012-08-10T10:05:12Z</time>
      </trkpt>
      <trkpt lat="44.55867" lon="2.87358">
        <ele>830.72</ele>
        <time>2012-08-10T10:05:41Z</time>
      </trkpt>
      <trkpt lat="44.55867" lon="2.87358">
        <ele>831.68</ele>
        <time>2012-08-10T10:06:13Z</time>
      </trkpt>
      <trkpt lat="44.55867" lon="2.87357">
        <ele>831.68</ele>
        <time>2012-08-10T10:06:46Z</time>
      </trkpt>
      <trkpt lat="44.55866" lon="2.87357">
        <ele>831.68</ele>
        <time>2012-08-10T10:07:18Z</time>
      </trkpt>
      <trkpt lat="44.55866" lon="2.87356">
        <ele>831.68</ele>
        <time>2012-08-10T10:07:29Z</time>
      </trkpt>
      <trkpt lat="44.55866" lon="2.87354">
        <ele>831.68</ele>
        <time>2012-08-10T10:07:30Z</time>
      </trkpt>
      <trkpt lat="44.55863" lon="2.87334">
        <ele>831.2</ele>
        <time>2012-08-10T10:07:37Z</time>
      </trkpt>
      <trkpt lat="44.55863" lon="2.8733">
        <ele>831.2</ele>
        <time>2012-08-10T10:07:38Z</time>
      </trkpt>
      <trkpt lat="44.55864" lon="2.87305">
        <ele>830.72</ele>
        <time>2012-08-10T10:07:44Z</time>
      </trkpt>
      <trkpt lat="44.55872" lon="2.87256">
        <ele>831.68</ele>
        <time>2012-08-10T10:07:58Z</time>
      </trkpt>
      <trkpt lat="44.5587" lon="2.87195">
        <ele>831.2</ele>
        <time>2012-08-10T10:08:12Z</time>
      </trkpt>
      <trkpt lat="44.55865" lon="2.87133">
        <ele>832.16</ele>
        <time>2012-08-10T10:08:24Z</time>
      </trkpt>
      <trkpt lat="44.5585" lon="2.87074">
        <ele>831.68</ele>
        <time>2012-08-10T10:08:35Z</time>
      </trkpt>
      <trkpt lat="44.55848" lon="2.87068">
        <ele>831.68</ele>
        <time>2012-08-10T10:08:36Z</time>
      </trkpt>
      <trkpt lat="44.55846" lon="2.87063">
        <ele>831.68</ele>
        <time>2012-08-10T10:08:37Z</time>
      </trkpt>
      <trkpt lat="44.55843" lon="2.87057">
        <ele>831.68</ele>
        <time>2012-08-10T10:08:38Z</time>
      </trkpt>
      <trkpt lat="44.55841" lon="2.87052">
        <ele>831.68</ele>
        <time>2012-08-10T10:08:39Z</time>
      </trkpt>
      <trkpt lat="44.55838" lon="2.87046">
        <ele>832.16</ele>
        <time>2012-08-10T10:08:40Z</time>
      </trkpt>
      <trkpt lat="44.55836" lon="2.87041">
        <ele>832.16</ele>
        <time>2012-08-10T10:08:41Z</time>
      </trkpt>
      <trkpt lat="44.55833" lon="2.87036">
        <ele>832.64</ele>
        <time>2012-08-10T10:08:42Z</time>
      </trkpt>
      <trkpt lat="44.558" lon="2.86971">
        <ele>833.12</ele>
        <time>2012-08-10T10:08:56Z</time>
      </trkpt>
      <trkpt lat="44.55778" lon="2.86926">
        <ele>833.12</ele>
        <time>2012-08-10T10:09:08Z</time>
      </trkpt>
      <trkpt lat="44.55754" lon="2.86877">
        <ele>832.16</ele>
        <time>2012-08-10T10:09:22Z</time>
      </trkpt>
      <trkpt lat="44.55728" lon="2.86833">
        <ele>829.76</ele>
        <time>2012-08-10T10:09:33Z</time>
      </trkpt>
      <trkpt lat="44.55725" lon="2.86829">
        <ele>829.27</ele>
        <time>2012-08-10T10:09:34Z</time>
      </trkpt>
      <trkpt lat="44.55716" lon="2.86816">
        <ele>828.31</ele>
        <time>2012-08-10T10:09:38Z</time>
      </trkpt>
      <trkpt lat="44.55691" lon="2.86783">
        <ele>826.87</ele>
        <time>2012-08-10T10:09:49Z</time>
      </trkpt>
      <trkpt lat="44.55672" lon="2.86744">
        <ele>825.43</ele>
        <time>2012-08-10T10:09:59Z</time>
      </trkpt>
      <trkpt lat="44.55659" lon="2.86732">
        <ele>825.43</ele>
        <time>2012-08-10T10:10:03Z</time>
      </trkpt>
      <trkpt lat="44.55656" lon="2.86728">
        <ele>825.43</ele>
        <time>2012-08-10T10:10:04Z</time>
      </trkpt>
      <trkpt lat="44.55627" lon="2.86703">
        <ele>822.55</ele>
        <time>2012-08-10T10:10:14Z</time>
      </trkpt>
      <trkpt lat="44.55625" lon="2.86701">
        <ele>822.55</ele>
        <time>2012-08-10T10:10:15Z</time>
      </trkpt>
      <trkpt lat="44.55623" lon="2.86699">
        <ele>822.06</ele>
        <time>2012-08-10T10:10:16Z</time>
      </trkpt>
      <trkpt lat="44.5562" lon="2.86697">
        <ele>822.06</ele>
        <time>2012-08-10T10:10:17Z</time>
      </trkpt>
      <trkpt lat="44.55618" lon="2.86695">
        <ele>822.06</ele>
        <time>2012-08-10T10:10:18Z</time>
      </trkpt>
      <trkpt lat="44.55589" lon="2.86674">
        <ele>820.14</ele>
        <time>2012-08-10T10:10:28Z</time>
      </trkpt>
      <trkpt lat="44.55555" lon="2.8664">
        <ele>815.82</ele>
        <time>2012-08-10T10:10:41Z</time>
      </trkpt>
      <trkpt lat="44.55523" lon="2.86605">
        <ele>811.01</ele>
        <time>2012-08-10T10:10:54Z</time>
      </trkpt>
      <trkpt lat="44.55521" lon="2.86601">
        <ele>810.53</ele>
        <time>2012-08-10T10:10:56Z</time>
      </trkpt>
      <trkpt lat="44.55519" lon="2.86599">
        <ele>810.05</ele>
        <time>2012-08-10T10:10:57Z</time>
      </trkpt>
      <trkpt lat="44.5549" lon="2.86576">
        <ele>807.64</ele>
        <time>2012-08-10T10:11:07Z</time>
      </trkpt>
      <trkpt lat="44.55468" lon="2.86557">
        <ele>805.72</ele>
        <time>2012-08-10T10:11:14Z</time>
      </trkpt>
      <trkpt lat="44.55465" lon="2.86552">
        <ele>805.72</ele>
        <time>2012-08-10T10:11:15Z</time>
      </trkpt>
      <trkpt lat="44.55463" lon="2.86548">
        <ele>805.24</ele>
        <time>2012-08-10T10:11:16Z</time>
      </trkpt>
      <trkpt lat="44.55444" lon="2.86515">
        <ele>803.32</ele>
        <time>2012-08-10T10:11:24Z</time>
      </trkpt>
      <trkpt lat="44.55442" lon="2.86515">
        <ele>803.32</ele>
        <time>2012-08-10T10:11:25Z</time>
      </trkpt>
      <trkpt lat="44.55439" lon="2.86516">
        <ele>802.84</ele>
        <time>2012-08-10T10:11:26Z</time>
      </trkpt>
      <trkpt lat="44.55437" lon="2.86519">
        <ele>802.84</ele>
        <time>2012-08-10T10:11:27Z</time>
      </trkpt>
      <trkpt lat="44.55435" lon="2.86522">
        <ele>802.36</ele>
        <time>2012-08-10T10:11:28Z</time>
      </trkpt>
      <trkpt lat="44.55433" lon="2.86527">
        <ele>802.36</ele>
        <time>2012-08-10T10:11:29Z</time>
      </trkpt>
      <trkpt lat="44.55432" lon="2.86532">
        <ele>801.88</ele>
        <time>2012-08-10T10:11:30Z</time>
      </trkpt>
      <trkpt lat="44.55417" lon="2.86553">
        <ele>800.92</ele>
        <time>2012-08-10T10:11:36Z</time>
      </trkpt>
      <trkpt lat="44.55414" lon="2.86553">
        <ele>800.44</ele>
        <time>2012-08-10T10:11:37Z</time>
      </trkpt>
      <trkpt lat="44.55409" lon="2.86552">
        <ele>799.95</ele>
        <time>2012-08-10T10:11:38Z</time>
      </trkpt>
      <trkpt lat="44.55404" lon="2.86551">
        <ele>799.47</ele>
        <time>2012-08-10T10:11:39Z</time>
      </trkpt>
      <trkpt lat="44.55401" lon="2.86551">
        <ele>798.99</ele>
        <time>2012-08-10T10:11:40Z</time>
      </trkpt>
      <trkpt lat="44.55398" lon="2.8655">
        <ele>798.51</ele>
        <time>2012-08-10T10:11:41Z</time>
      </trkpt>
      <trkpt lat="44.55394" lon="2.8655">
        <ele>798.03</ele>
        <time>2012-08-10T10:11:42Z</time>
      </trkpt>
      <trkpt lat="44.55364" lon="2.8655">
        <ele>794.67</ele>
        <time>2012-08-10T10:11:49Z</time>
      </trkpt>
      <trkpt lat="44.55359" lon="2.8655">
        <ele>794.19</ele>
        <time>2012-08-10T10:11:50Z</time>
      </trkpt>
      <trkpt lat="44.55339" lon="2.86547">
        <ele>790.82</ele>
        <time>2012-08-10T10:11:55Z</time>
      </trkpt>
      <trkpt lat="44.55331" lon="2.86545">
        <ele>789.86</ele>
        <time>2012-08-10T10:11:57Z</time>
      </trkpt>
      <trkpt lat="44.55295" lon="2.86536">
        <ele>785.53</ele>
        <time>2012-08-10T10:12:08Z</time>
      </trkpt>
      <trkpt lat="44.55272" lon="2.86521">
        <ele>777.84</ele>
        <time>2012-08-10T10:12:20Z</time>
      </trkpt>
      <trkpt lat="44.55253" lon="2.86496">
        <ele>770.63</ele>
        <time>2012-08-10T10:12:33Z</time>
      </trkpt>
      <trkpt lat="44.55245" lon="2.8649">
        <ele>768.71</ele>
        <time>2012-08-10T10:12:37Z</time>
      </trkpt>
      <trkpt lat="44.55243" lon="2.86491">
        <ele>768.71</ele>
        <time>2012-08-10T10:12:38Z</time>
      </trkpt>
      <trkpt lat="44.55239" lon="2.8649">
        <ele>768.23</ele>
        <time>2012-08-10T10:12:39Z</time>
      </trkpt>
      <trkpt lat="44.55236" lon="2.86489">
        <ele>767.75</ele>
        <time>2012-08-10T10:12:40Z</time>
      </trkpt>
      <trkpt lat="44.55233" lon="2.86488">
        <ele>767.75</ele>
        <time>2012-08-10T10:12:41Z</time>
      </trkpt>
      <trkpt lat="44.55194" lon="2.86477">
        <ele>762.94</ele>
        <time>2012-08-10T10:12:50Z</time>
      </trkpt>
      <trkpt lat="44.55162" lon="2.86468">
        <ele>760.54</ele>
        <time>2012-08-10T10:13:00Z</time>
      </trkpt>
      <trkpt lat="44.55102" lon="2.86452">
        <ele>762.94</ele>
        <time>2012-08-10T10:13:13Z</time>
      </trkpt>
      <trkpt lat="44.55072" lon="2.86433">
        <ele>763.9</ele>
        <time>2012-08-10T10:13:23Z</time>
      </trkpt>
      <trkpt lat="44.5504" lon="2.86404">
        <ele>762.94</ele>
        <time>2012-08-10T10:13:35Z</time>
      </trkpt>
      <trkpt lat="44.55008" lon="2.86358">
        <ele>758.14</ele>
        <time>2012-08-10T10:13:48Z</time>
      </trkpt>
      <trkpt lat="44.54992" lon="2.86348">
        <ele>758.62</ele>
        <time>2012-08-10T10:13:54Z</time>
      </trkpt>
      <trkpt lat="44.54986" lon="2.86345">
        <ele>758.62</ele>
        <time>2012-08-10T10:13:55Z</time>
      </trkpt>
      <trkpt lat="44.54983" lon="2.86344">
        <ele>759.1</ele>
        <time>2012-08-10T10:13:56Z</time>
      </trkpt>
      <trkpt lat="44.54979" lon="2.86341">
        <ele>758.62</ele>
        <time>2012-08-10T10:13:57Z</time>
      </trkpt>
      <trkpt lat="44.54976" lon="2.8634">
        <ele>758.62</ele>
        <time>2012-08-10T10:13:58Z</time>
      </trkpt>
      <trkpt lat="44.54973" lon="2.86338">
        <ele>758.62</ele>
        <time>2012-08-10T10:13:59Z</time>
      </trkpt>
      <trkpt lat="44.5497" lon="2.86337">
        <ele>758.14</ele>
        <time>2012-08-10T10:14:00Z</time>
      </trkpt>
      <trkpt lat="44.54968" lon="2.86336">
        <ele>758.14</ele>
        <time>2012-08-10T10:14:01Z</time>
      </trkpt>
      <trkpt lat="44.54965" lon="2.86334">
        <ele>758.14</ele>
        <time>2012-08-10T10:14:02Z</time>
      </trkpt>
      <trkpt lat="44.54938" lon="2.86323">
        <ele>756.69</ele>
        <time>2012-08-10T10:14:11Z</time>
      </trkpt>
      <trkpt lat="44.54936" lon="2.86323">
        <ele>757.18</ele>
        <time>2012-08-10T10:14:12Z</time>
      </trkpt>
      <trkpt lat="44.54933" lon="2.86322">
        <ele>757.18</ele>
        <time>2012-08-10T10:14:13Z</time>
      </trkpt>
      <trkpt lat="44.54931" lon="2.86321">
        <ele>756.69</ele>
        <time>2012-08-10T10:14:14Z</time>
      </trkpt>
      <trkpt lat="44.54928" lon="2.8632">
        <ele>756.69</ele>
        <time>2012-08-10T10:14:15Z</time>
      </trkpt>
      <trkpt lat="44.54926" lon="2.86319">
        <ele>756.21</ele>
        <time>2012-08-10T10:14:16Z</time>
      </trkpt>
      <trkpt lat="44.54923" lon="2.86317">
        <ele>755.73</ele>
        <time>2012-08-10T10:14:17Z</time>
      </trkpt>
      <trkpt lat="44.54921" lon="2.86315">
        <ele>755.25</ele>
        <time>2012-08-10T10:14:18Z</time>
      </trkpt>
      <trkpt lat="44.54919" lon="2.86312">
        <ele>755.25</ele>
        <time>2012-08-10T10:14:19Z</time>
      </trkpt>
      <trkpt lat="44.54877" lon="2.8629">
        <ele>753.81</ele>
        <time>2012-08-10T10:14:29Z</time>
      </trkpt>
      <trkpt lat="44.54843" lon="2.86262">
        <ele>751.89</ele>
        <time>2012-08-10T10:14:40Z</time>
      </trkpt>
      <trkpt lat="44.54842" lon="2.86259">
        <ele>751.41</ele>
        <time>2012-08-10T10:14:41Z</time>
      </trkpt>
      <trkpt lat="44.54837" lon="2.86251">
        <ele>749.49</ele>
        <time>2012-08-10T10:14:44Z</time>
      </trkpt>
      <trkpt lat="44.54834" lon="2.86248">
        <ele>749.49</ele>
        <time>2012-08-10T10:14:45Z</time>
      </trkpt>
      <trkpt lat="44.54832" lon="2.86245">
        <ele>749</ele>
        <time>2012-08-10T10:14:46Z</time>
      </trkpt>
      <trkpt lat="44.54801" lon="2.86206">
        <ele>740.83</ele>
        <time>2012-08-10T10:14:58Z</time>
      </trkpt>
      <trkpt lat="44.54784" lon="2.86184">
        <ele>734.58</ele>
        <time>2012-08-10T10:15:08Z</time>
      </trkpt>
      <trkpt lat="44.54783" lon="2.86182">
        <ele>730.74</ele>
        <time>2012-08-10T10:15:38Z</time>
      </trkpt>
      <trkpt lat="44.54782" lon="2.8618">
        <ele>730.26</ele>
        <time>2012-08-10T10:15:45Z</time>
      </trkpt>
      <trkpt lat="44.54782" lon="2.86177">
        <ele>730.26</ele>
        <time>2012-08-10T10:15:46Z</time>
      </trkpt>
      <trkpt lat="44.54781" lon="2.86174">
        <ele>730.26</ele>
        <time>2012-08-10T10:15:47Z</time>
      </trkpt>
      <trkpt lat="44.54779" lon="2.8617">
        <ele>730.26</ele>
        <time>2012-08-10T10:15:48Z</time>
      </trkpt>
      <trkpt lat="44.54777" lon="2.86167">
        <ele>730.26</ele>
        <time>2012-08-10T10:15:49Z</time>
      </trkpt>
      <trkpt lat="44.5476" lon="2.86127">
        <ele>726.89</ele>
        <time>2012-08-10T10:15:59Z</time>
      </trkpt>
      <trkpt lat="44.54752" lon="2.86084">
        <ele>723.53</ele>
        <time>2012-08-10T10:16:08Z</time>
      </trkpt>
      <trkpt lat="44.54719" lon="2.86011">
        <ele>721.61</ele>
        <time>2012-08-10T10:16:20Z</time>
      </trkpt>
      <trkpt lat="44.54712" lon="2.86004">
        <ele>721.61</ele>
        <time>2012-08-10T10:16:22Z</time>
      </trkpt>
      <trkpt lat="44.54679" lon="2.85978">
        <ele>718.72</ele>
        <time>2012-08-10T10:16:33Z</time>
      </trkpt>
      <trkpt lat="44.5465" lon="2.85969">
        <ele>717.28</ele>
        <time>2012-08-10T10:16:44Z</time>
      </trkpt>
      <trkpt lat="44.54628" lon="2.85962">
        <ele>715.84</ele>
        <time>2012-08-10T10:16:58Z</time>
      </trkpt>
      <trkpt lat="44.546" lon="2.85954">
        <ele>715.36</ele>
        <time>2012-08-10T10:17:09Z</time>
      </trkpt>
      <trkpt lat="44.54581" lon="2.8595">
        <ele>714.88</ele>
        <time>2012-08-10T10:17:13Z</time>
      </trkpt>
      <trkpt lat="44.54549" lon="2.85941">
        <ele>712.47</ele>
        <time>2012-08-10T10:17:21Z</time>
      </trkpt>
      <trkpt lat="44.54506" lon="2.85944">
        <ele>708.15</ele>
        <time>2012-08-10T10:17:31Z</time>
      </trkpt>
      <trkpt lat="44.54497" lon="2.85947">
        <ele>707.19</ele>
        <time>2012-08-10T10:17:33Z</time>
      </trkpt>
      <trkpt lat="44.54491" lon="2.85947">
        <ele>706.23</ele>
        <time>2012-08-10T10:17:34Z</time>
      </trkpt>
      <trkpt lat="44.54486" lon="2.85947">
        <ele>705.75</ele>
        <time>2012-08-10T10:17:35Z</time>
      </trkpt>
      <trkpt lat="44.54443" lon="2.85937">
        <ele>701.9</ele>
        <time>2012-08-10T10:17:45Z</time>
      </trkpt>
      <trkpt lat="44.54402" lon="2.85903">
        <ele>698.53</ele>
        <time>2012-08-10T10:17:58Z</time>
      </trkpt>
      <trkpt lat="44.54365" lon="2.85873">
        <ele>691.33</ele>
        <time>2012-08-10T10:18:09Z</time>
      </trkpt>
      <trkpt lat="44.54361" lon="2.8587">
        <ele>690.36</ele>
        <time>2012-08-10T10:18:11Z</time>
      </trkpt>
      <trkpt lat="44.54358" lon="2.85867">
        <ele>689.88</ele>
        <time>2012-08-10T10:18:12Z</time>
      </trkpt>
      <trkpt lat="44.54356" lon="2.85865">
        <ele>689.4</ele>
        <time>2012-08-10T10:18:13Z</time>
      </trkpt>
      <trkpt lat="44.54354" lon="2.85861">
        <ele>688.92</ele>
        <time>2012-08-10T10:18:14Z</time>
      </trkpt>
      <trkpt lat="44.54351" lon="2.85857">
        <ele>688.92</ele>
        <time>2012-08-10T10:18:15Z</time>
      </trkpt>
      <trkpt lat="44.54314" lon="2.85807">
        <ele>686.04</ele>
        <time>2012-08-10T10:18:26Z</time>
      </trkpt>
      <trkpt lat="44.54293" lon="2.85778">
        <ele>684.6</ele>
        <time>2012-08-10T10:18:33Z</time>
      </trkpt>
      <trkpt lat="44.54291" lon="2.85773">
        <ele>684.6</ele>
        <time>2012-08-10T10:18:34Z</time>
      </trkpt>
      <trkpt lat="44.54277" lon="2.85743">
        <ele>684.6</ele>
        <time>2012-08-10T10:18:40Z</time>
      </trkpt>
      <trkpt lat="44.54271" lon="2.85733">
        <ele>684.12</ele>
        <time>2012-08-10T10:18:42Z</time>
      </trkpt>
      <trkpt lat="44.54265" lon="2.85723">
        <ele>683.63</ele>
        <time>2012-08-10T10:18:44Z</time>
      </trkpt>
      <trkpt lat="44.54262" lon="2.85719">
        <ele>684.12</ele>
        <time>2012-08-10T10:18:45Z</time>
      </trkpt>
      <trkpt lat="44.5426" lon="2.85715">
        <ele>684.12</ele>
        <time>2012-08-10T10:18:46Z</time>
      </trkpt>
      <trkpt lat="44.54258" lon="2.8571">
        <ele>684.12</ele>
        <time>2012-08-10T10:18:47Z</time>
      </trkpt>
      <trkpt lat="44.54256" lon="2.85706">
        <ele>684.12</ele>
        <time>2012-08-10T10:18:48Z</time>
      </trkpt>
      <trkpt lat="44.54253" lon="2.85702">
        <ele>684.12</ele>
        <time>2012-08-10T10:18:49Z</time>
      </trkpt>
      <trkpt lat="44.54229" lon="2.85656">
        <ele>683.15</ele>
        <time>2012-08-10T10:18:58Z</time>
      </trkpt>
      <trkpt lat="44.54225" lon="2.8565">
        <ele>683.15</ele>
        <time>2012-08-10T10:18:59Z</time>
      </trkpt>
      <trkpt lat="44.54204" lon="2.85615">
        <ele>681.23</ele>
        <time>2012-08-10T10:19:07Z</time>
      </trkpt>
      <trkpt lat="44.54203" lon="2.85611">
        <ele>680.75</ele>
        <time>2012-08-10T10:19:08Z</time>
      </trkpt>
      <trkpt lat="44.54186" lon="2.85582">
        <ele>678.83</ele>
        <time>2012-08-10T10:19:14Z</time>
      </trkpt>
      <trkpt lat="44.54162" lon="2.8555">
        <ele>675.46</ele>
        <time>2012-08-10T10:19:19Z</time>
      </trkpt>
      <trkpt lat="44.54159" lon="2.85544">
        <ele>674.98</ele>
        <time>2012-08-10T10:19:20Z</time>
      </trkpt>
      <trkpt lat="44.5415" lon="2.85532">
        <ele>673.54</ele>
        <time>2012-08-10T10:19:22Z</time>
      </trkpt>
      <trkpt lat="44.54125" lon="2.85504">
        <ele>670.66</ele>
        <time>2012-08-10T10:19:29Z</time>
      </trkpt>
      <trkpt lat="44.54114" lon="2.8549">
        <ele>670.18</ele>
        <time>2012-08-10T10:19:32Z</time>
      </trkpt>
      <trkpt lat="44.54111" lon="2.85486">
        <ele>670.18</ele>
        <time>2012-08-10T10:19:33Z</time>
      </trkpt>
      <trkpt lat="44.54109" lon="2.85484">
        <ele>669.7</ele>
        <time>2012-08-10T10:19:34Z</time>
      </trkpt>
      <trkpt lat="44.54107" lon="2.85482">
        <ele>669.7</ele>
        <time>2012-08-10T10:19:35Z</time>
      </trkpt>
      <trkpt lat="44.54106" lon="2.85479">
        <ele>668.73</ele>
        <time>2012-08-10T10:19:36Z</time>
      </trkpt>
      <trkpt lat="44.54106" lon="2.85478">
        <ele>668.25</ele>
        <time>2012-08-10T10:19:37Z</time>
      </trkpt>
      <trkpt lat="44.54105" lon="2.85476">
        <ele>667.77</ele>
        <time>2012-08-10T10:19:38Z</time>
      </trkpt>
      <trkpt lat="44.54103" lon="2.85473">
        <ele>667.29</ele>
        <time>2012-08-10T10:19:39Z</time>
      </trkpt>
      <trkpt lat="44.541" lon="2.85472">
        <ele>666.81</ele>
        <time>2012-08-10T10:19:40Z</time>
      </trkpt>
      <trkpt lat="44.54096" lon="2.8547">
        <ele>666.33</ele>
        <time>2012-08-10T10:19:41Z</time>
      </trkpt>
      <trkpt lat="44.54093" lon="2.85468">
        <ele>665.37</ele>
        <time>2012-08-10T10:19:42Z</time>
      </trkpt>
      <trkpt lat="44.54089" lon="2.85465">
        <ele>664.89</ele>
        <time>2012-08-10T10:19:43Z</time>
      </trkpt>
      <trkpt lat="44.54058" lon="2.8544">
        <ele>661.52</ele>
        <time>2012-08-10T10:19:52Z</time>
      </trkpt>
      <trkpt lat="44.54055" lon="2.85437">
        <ele>661.52</ele>
        <time>2012-08-10T10:19:53Z</time>
      </trkpt>
      <trkpt lat="44.54047" lon="2.85431">
        <ele>661.04</ele>
        <time>2012-08-10T10:19:55Z</time>
      </trkpt>
      <trkpt lat="44.54042" lon="2.85428">
        <ele>661.04</ele>
        <time>2012-08-10T10:19:56Z</time>
      </trkpt>
      <trkpt lat="44.54027" lon="2.85414">
        <ele>659.6</ele>
        <time>2012-08-10T10:20:00Z</time>
      </trkpt>
      <trkpt lat="44.54024" lon="2.85408">
        <ele>659.6</ele>
        <time>2012-08-10T10:20:01Z</time>
      </trkpt>
      <trkpt lat="44.54022" lon="2.85403">
        <ele>659.12</ele>
        <time>2012-08-10T10:20:02Z</time>
      </trkpt>
      <trkpt lat="44.54018" lon="2.85395">
        <ele>658.64</ele>
        <time>2012-08-10T10:20:04Z</time>
      </trkpt>
      <trkpt lat="44.54015" lon="2.85391">
        <ele>658.16</ele>
        <time>2012-08-10T10:20:05Z</time>
      </trkpt>
      <trkpt lat="44.54012" lon="2.85387">
        <ele>658.16</ele>
        <time>2012-08-10T10:20:06Z</time>
      </trkpt>
      <trkpt lat="44.53984" lon="2.8536">
        <ele>649.99</ele>
        <time>2012-08-10T10:20:15Z</time>
      </trkpt>
      <trkpt lat="44.53954" lon="2.85335">
        <ele>642.78</ele>
        <time>2012-08-10T10:20:26Z</time>
      </trkpt>
      <trkpt lat="44.53947" lon="2.8533">
        <ele>642.3</ele>
        <time>2012-08-10T10:20:28Z</time>
      </trkpt>
      <trkpt lat="44.53917" lon="2.85319">
        <ele>639.89</ele>
        <time>2012-08-10T10:20:35Z</time>
      </trkpt>
      <trkpt lat="44.53856" lon="2.85305">
        <ele>631.72</ele>
        <time>2012-08-10T10:20:45Z</time>
      </trkpt>
      <trkpt lat="44.53837" lon="2.85299">
        <ele>629.8</ele>
        <time>2012-08-10T10:20:49Z</time>
      </trkpt>
      <trkpt lat="44.53832" lon="2.85296">
        <ele>628.84</ele>
        <time>2012-08-10T10:20:50Z</time>
      </trkpt>
      <trkpt lat="44.53814" lon="2.85283">
        <ele>624.03</ele>
        <time>2012-08-10T10:20:58Z</time>
      </trkpt>
      <trkpt lat="44.53814" lon="2.85282">
        <ele>623.55</ele>
        <time>2012-08-10T10:21:17Z</time>
      </trkpt>
      <trkpt lat="44.53814" lon="2.85282">
        <ele>624.03</ele>
        <time>2012-08-10T10:21:18Z</time>
      </trkpt>
      <trkpt lat="44.53815" lon="2.85284">
        <ele>624.03</ele>
        <time>2012-08-10T10:21:19Z</time>
      </trkpt>
      <trkpt lat="44.53814" lon="2.8529">
        <ele>624.03</ele>
        <time>2012-08-10T10:21:28Z</time>
      </trkpt>
      <trkpt lat="44.53809" lon="2.85286">
        <ele>623.07</ele>
        <time>2012-08-10T10:21:36Z</time>
      </trkpt>
      <trkpt lat="44.5381" lon="2.85282">
        <ele>623.07</ele>
        <time>2012-08-10T10:21:47Z</time>
      </trkpt>
      <trkpt lat="44.53812" lon="2.85282">
        <ele>621.63</ele>
        <time>2012-08-10T10:22:21Z</time>
      </trkpt>
      <trkpt lat="44.53813" lon="2.85282">
        <ele>621.63</ele>
        <time>2012-08-10T10:22:58Z</time>
      </trkpt>
      <trkpt lat="44.53813" lon="2.85282">
        <ele>621.63</ele>
        <time>2012-08-10T10:23:35Z</time>
      </trkpt>
      <trkpt lat="44.53813" lon="2.85281">
        <ele>621.63</ele>
        <time>2012-08-10T10:24:12Z</time>
      </trkpt>
      <trkpt lat="44.53813" lon="2.85281">
        <ele>622.11</ele>
        <time>2012-08-10T10:24:51Z</time>
      </trkpt>
      <trkpt lat="44.53813" lon="2.85281">
        <ele>622.59</ele>
        <time>2012-08-10T10:25:28Z</time>
      </trkpt>
      <trkpt lat="44.53813" lon="2.85281">
        <ele>622.59</ele>
        <time>2012-08-10T10:26:00Z</time>
      </trkpt>
      <trkpt lat="44.53812" lon="2.85283">
        <ele>622.11</ele>
        <time>2012-08-10T10:26:37Z</time>
      </trkpt>
      <trkpt lat="44.53812" lon="2.85283">
        <ele>623.55</ele>
        <time>2012-08-10T10:27:10Z</time>
      </trkpt>
      <trkpt lat="44.53812" lon="2.85284">
        <ele>623.07</ele>
        <time>2012-08-10T10:27:46Z</time>
      </trkpt>
      <trkpt lat="44.53812" lon="2.85283">
        <ele>622.59</ele>
        <time>2012-08-10T10:28:20Z</time>
      </trkpt>
      <trkpt lat="44.53811" lon="2.85282">
        <ele>620.67</ele>
        <time>2012-08-10T10:28:57Z</time>
      </trkpt>
      <trkpt lat="44.53811" lon="2.85283">
        <ele>620.19</ele>
        <time>2012-08-10T10:29:33Z</time>
      </trkpt>
      <trkpt lat="44.53811" lon="2.85283">
        <ele>620.67</ele>
        <time>2012-08-10T10:30:05Z</time>
      </trkpt>
      <trkpt lat="44.53811" lon="2.85282">
        <ele>621.15</ele>
        <time>2012-08-10T10:30:42Z</time>
      </trkpt>
      <trkpt lat="44.5381" lon="2.85282">
        <ele>621.15</ele>
        <time>2012-08-10T10:31:18Z</time>
      </trkpt>
      <trkpt lat="44.53811" lon="2.85282">
        <ele>621.63</ele>
        <time>2012-08-10T10:31:52Z</time>
      </trkpt>
      <trkpt lat="44.5381" lon="2.85281">
        <ele>621.63</ele>
        <time>2012-08-10T10:32:28Z</time>
      </trkpt>
      <trkpt lat="44.5381" lon="2.85282">
        <ele>621.63</ele>
        <time>2012-08-10T10:33:08Z</time>
      </trkpt>
      <trkpt lat="44.53809" lon="2.85282">
        <ele>621.63</ele>
        <time>2012-08-10T10:33:46Z</time>
      </trkpt>
      <trkpt lat="44.5381" lon="2.85282">
        <ele>621.63</ele>
        <time>2012-08-10T10:34:25Z</time>
      </trkpt>
      <trkpt lat="44.5381" lon="2.85282">
        <ele>622.11</ele>
        <time>2012-08-10T10:35:11Z</time>
      </trkpt>
      <trkpt lat="44.53811" lon="2.85282">
        <ele>623.07</ele>
        <time>2012-08-10T10:35:52Z</time>
      </trkpt>
      <trkpt lat="44.53811" lon="2.85283">
        <ele>622.11</ele>
        <time>2012-08-10T10:36:36Z</time>
      </trkpt>
      <trkpt lat="44.53812" lon="2.85284">
        <ele>621.63</ele>
        <time>2012-08-10T10:37:18Z</time>
      </trkpt>
      <trkpt lat="44.53812" lon="2.85283">
        <ele>621.63</ele>
        <time>2012-08-10T10:37:58Z</time>
      </trkpt>
      <trkpt lat="44.53812" lon="2.85283">
        <ele>621.63</ele>
        <time>2012-08-10T10:38:38Z</time>
      </trkpt>
      <trkpt lat="44.53812" lon="2.85283">
        <ele>622.11</ele>
        <time>2012-08-10T10:39:19Z</time>
      </trkpt>
      <trkpt lat="44.53812" lon="2.85283">
        <ele>623.07</ele>
        <time>2012-08-10T10:39:58Z</time>
      </trkpt>
      <trkpt lat="44.53812" lon="2.85282">
        <ele>623.07</ele>
        <time>2012-08-10T10:40:29Z</time>
      </trkpt>
      <trkpt lat="44.53812" lon="2.85283">
        <ele>623.55</ele>
        <time>2012-08-10T10:41:05Z</time>
      </trkpt>
      <trkpt lat="44.53812" lon="2.85283">
        <ele>623.55</ele>
        <time>2012-08-10T10:41:40Z</time>
      </trkpt>
      <trkpt lat="44.53812" lon="2.85283">
        <ele>623.55</ele>
        <time>2012-08-10T10:42:16Z</time>
      </trkpt>
      <trkpt lat="44.53811" lon="2.85283">
        <ele>624.03</ele>
        <time>2012-08-10T10:42:49Z</time>
      </trkpt>
      <trkpt lat="44.53811" lon="2.85282">
        <ele>624.51</ele>
        <time>2012-08-10T10:43:25Z</time>
      </trkpt>
      <trkpt lat="44.53812" lon="2.85282">
        <ele>625.47</ele>
        <time>2012-08-10T10:44:03Z</time>
      </trkpt>
      <trkpt lat="44.53811" lon="2.85283">
        <ele>625.96</ele>
        <time>2012-08-10T10:44:40Z</time>
      </trkpt>
      <trkpt lat="44.53812" lon="2.85284">
        <ele>625.96</ele>
        <time>2012-08-10T10:45:20Z</time>
      </trkpt>
      <trkpt lat="44.53811" lon="2.85283">
        <ele>625.47</ele>
        <time>2012-08-10T10:45:56Z</time>
      </trkpt>
      <trkpt lat="44.53811" lon="2.85284">
        <ele>624.51</ele>
        <time>2012-08-10T10:46:35Z</time>
      </trkpt>
      <trkpt lat="44.5381" lon="2.85284">
        <ele>624.03</ele>
        <time>2012-08-10T10:47:16Z</time>
      </trkpt>
      <trkpt lat="44.5381" lon="2.85282">
        <ele>623.07</ele>
        <time>2012-08-10T10:47:59Z</time>
      </trkpt>
      <trkpt lat="44.53812" lon="2.85282">
        <ele>623.55</ele>
        <time>2012-08-10T10:48:42Z</time>
      </trkpt>
      <trkpt lat="44.53812" lon="2.85282">
        <ele>623.07</ele>
        <time>2012-08-10T10:49:22Z</time>
      </trkpt>
      <trkpt lat="44.53812" lon="2.85283">
        <ele>622.59</ele>
        <time>2012-08-10T10:50:00Z</time>
      </trkpt>
      <trkpt lat="44.53812" lon="2.85283">
        <ele>622.59</ele>
        <time>2012-08-10T10:50:36Z</time>
      </trkpt>
      <trkpt lat="44.53812" lon="2.85283">
        <ele>622.11</ele>
        <time>2012-08-10T10:51:03Z</time>
      </trkpt>
      <trkpt lat="44.53812" lon="2.85282">
        <ele>622.11</ele>
        <time>2012-08-10T10:51:21Z</time>
      </trkpt>
      <trkpt lat="44.53811" lon="2.85283">
        <ele>623.55</ele>
        <time>2012-08-10T10:51:55Z</time>
      </trkpt>
      <trkpt lat="44.53811" lon="2.85284">
        <ele>624.51</ele>
        <time>2012-08-10T10:52:34Z</time>
      </trkpt>
      <trkpt lat="44.53811" lon="2.85284">
        <ele>624.03</ele>
        <time>2012-08-10T10:53:12Z</time>
      </trkpt>
      <trkpt lat="44.53811" lon="2.85284">
        <ele>625.96</ele>
        <time>2012-08-10T10:53:51Z</time>
      </trkpt>
      <trkpt lat="44.5381" lon="2.85284">
        <ele>625.47</ele>
        <time>2012-08-10T10:54:27Z</time>
      </trkpt>
      <trkpt lat="44.5381" lon="2.85282">
        <ele>625.47</ele>
        <time>2012-08-10T10:55:02Z</time>
      </trkpt>
      <trkpt lat="44.53809" lon="2.85282">
        <ele>624.99</ele>
        <time>2012-08-10T10:55:35Z</time>
      </trkpt>
      <trkpt lat="44.53811" lon="2.85283">
        <ele>624.03</ele>
        <time>2012-08-10T10:56:13Z</time>
      </trkpt>
      <trkpt lat="44.53812" lon="2.85284">
        <ele>623.07</ele>
        <time>2012-08-10T10:56:49Z</time>
      </trkpt>
      <trkpt lat="44.53813" lon="2.85284">
        <ele>622.11</ele>
        <time>2012-08-10T10:57:22Z</time>
      </trkpt>
      <trkpt lat="44.53813" lon="2.85285">
        <ele>621.63</ele>
        <time>2012-08-10T10:57:58Z</time>
      </trkpt>
      <trkpt lat="44.53814" lon="2.85283">
        <ele>621.15</ele>
        <time>2012-08-10T10:58:29Z</time>
      </trkpt>
      <trkpt lat="44.53814" lon="2.85285">
        <ele>620.19</ele>
        <time>2012-08-10T10:59:03Z</time>
      </trkpt>
      <trkpt lat="44.53813" lon="2.85286">
        <ele>620.67</ele>
        <time>2012-08-10T10:59:37Z</time>
      </trkpt>
      <trkpt lat="44.53814" lon="2.85284">
        <ele>620.19</ele>
        <time>2012-08-10T11:00:07Z</time>
      </trkpt>
      <trkpt lat="44.53813" lon="2.85285">
        <ele>619.71</ele>
        <time>2012-08-10T11:00:41Z</time>
      </trkpt>
      <trkpt lat="44.53813" lon="2.85286">
        <ele>620.67</ele>
        <time>2012-08-10T11:01:15Z</time>
      </trkpt>
      <trkpt lat="44.53813" lon="2.85284">
        <ele>622.11</ele>
        <time>2012-08-10T11:01:50Z</time>
      </trkpt>
      <trkpt lat="44.53813" lon="2.85282">
        <ele>623.55</ele>
        <time>2012-08-10T11:02:25Z</time>
      </trkpt>
      <trkpt lat="44.53812" lon="2.85282">
        <ele>624.03</ele>
        <time>2012-08-10T11:03:01Z</time>
      </trkpt>
      <trkpt lat="44.53811" lon="2.85282">
        <ele>624.03</ele>
        <time>2012-08-10T11:03:37Z</time>
      </trkpt>
      <trkpt lat="44.53811" lon="2.85282">
        <ele>623.55</ele>
        <time>2012-08-10T11:04:13Z</time>
      </trkpt>
      <trkpt lat="44.53812" lon="2.85285">
        <ele>624.51</ele>
        <time>2012-08-10T11:04:56Z</time>
      </trkpt>
      <trkpt lat="44.53811" lon="2.85285">
        <ele>626.44</ele>
        <time>2012-08-10T11:05:33Z</time>
      </trkpt>
      <trkpt lat="44.53812" lon="2.85285">
        <ele>626.92</ele>
        <time>2012-08-10T11:06:05Z</time>
      </trkpt>
      <trkpt lat="44.53813" lon="2.85285">
        <ele>627.4</ele>
        <time>2012-08-10T11:06:36Z</time>
      </trkpt>
      <trkpt lat="44.53814" lon="2.85284">
        <ele>627.88</ele>
        <time>2012-08-10T11:07:14Z</time>
      </trkpt>
      <trkpt lat="44.53813" lon="2.85283">
        <ele>627.88</ele>
        <time>2012-08-10T11:07:47Z</time>
      </trkpt>
      <trkpt lat="44.53813" lon="2.85283">
        <ele>625.96</ele>
        <time>2012-08-10T11:08:21Z</time>
      </trkpt>
      <trkpt lat="44.53813" lon="2.85284">
        <ele>625.96</ele>
        <time>2012-08-10T11:08:50Z</time>
      </trkpt>
      <trkpt lat="44.53813" lon="2.85283">
        <ele>624.03</ele>
        <time>2012-08-10T11:09:22Z</time>
      </trkpt>
      <trkpt lat="44.53813" lon="2.85284">
        <ele>623.55</ele>
        <time>2012-08-10T11:09:55Z</time>
      </trkpt>
      <trkpt lat="44.53813" lon="2.85283">
        <ele>624.99</ele>
        <time>2012-08-10T11:10:26Z</time>
      </trkpt>
      <trkpt lat="44.53813" lon="2.85284">
        <ele>625.47</ele>
        <time>2012-08-10T11:10:55Z</time>
      </trkpt>
      <trkpt lat="44.53812" lon="2.85283">
        <ele>624.03</ele>
        <time>2012-08-10T11:11:26Z</time>
      </trkpt>
      <trkpt lat="44.53815" lon="2.85288">
        <ele>624.51</ele>
        <time>2012-08-10T11:11:49Z</time>
      </trkpt>
      <trkpt lat="44.53817" lon="2.85284">
        <ele>623.55</ele>
        <time>2012-08-10T11:12:00Z</time>
      </trkpt>
      <trkpt lat="44.53816" lon="2.85282">
        <ele>623.55</ele>
        <time>2012-08-10T11:12:01Z</time>
      </trkpt>
      <trkpt lat="44.53813" lon="2.8528">
        <ele>623.55</ele>
        <time>2012-08-10T11:12:02Z</time>
      </trkpt>
      <trkpt lat="44.53811" lon="2.85277">
        <ele>623.55</ele>
        <time>2012-08-10T11:12:03Z</time>
      </trkpt>
      <trkpt lat="44.53808" lon="2.85274">
        <ele>623.55</ele>
        <time>2012-08-10T11:12:04Z</time>
      </trkpt>
      <trkpt lat="44.53805" lon="2.85271">
        <ele>623.07</ele>
        <time>2012-08-10T11:12:05Z</time>
      </trkpt>
      <trkpt lat="44.53801" lon="2.85268">
        <ele>623.07</ele>
        <time>2012-08-10T11:12:06Z</time>
      </trkpt>
      <trkpt lat="44.53772" lon="2.85242">
        <ele>620.67</ele>
        <time>2012-08-10T11:12:14Z</time>
      </trkpt>
      <trkpt lat="44.53769" lon="2.85238">
        <ele>620.19</ele>
        <time>2012-08-10T11:12:15Z</time>
      </trkpt>
      <trkpt lat="44.53765" lon="2.85234">
        <ele>619.71</ele>
        <time>2012-08-10T11:12:16Z</time>
      </trkpt>
      <trkpt lat="44.53761" lon="2.85231">
        <ele>619.23</ele>
        <time>2012-08-10T11:12:17Z</time>
      </trkpt>
      <trkpt lat="44.53757" lon="2.85227">
        <ele>619.23</ele>
        <time>2012-08-10T11:12:18Z</time>
      </trkpt>
      <trkpt lat="44.53735" lon="2.85207">
        <ele>615.38</ele>
        <time>2012-08-10T11:12:23Z</time>
      </trkpt>
      <trkpt lat="44.53731" lon="2.85202">
        <ele>614.42</ele>
        <time>2012-08-10T11:12:24Z</time>
      </trkpt>
      <trkpt lat="44.53685" lon="2.85152">
        <ele>607.21</ele>
        <time>2012-08-10T11:12:36Z</time>
      </trkpt>
      <trkpt lat="44.53652" lon="2.85128">
        <ele>601.92</ele>
        <time>2012-08-10T11:12:47Z</time>
      </trkpt>
      <trkpt lat="44.53627" lon="2.8513">
        <ele>594.23</ele>
        <time>2012-08-10T11:12:55Z</time>
      </trkpt>
      <trkpt lat="44.53626" lon="2.85133">
        <ele>593.27</ele>
        <time>2012-08-10T11:12:56Z</time>
      </trkpt>
      <trkpt lat="44.53623" lon="2.85136">
        <ele>592.31</ele>
        <time>2012-08-10T11:12:57Z</time>
      </trkpt>
      <trkpt lat="44.53621" lon="2.85139">
        <ele>591.35</ele>
        <time>2012-08-10T11:12:58Z</time>
      </trkpt>
      <trkpt lat="44.53619" lon="2.85142">
        <ele>590.39</ele>
        <time>2012-08-10T11:12:59Z</time>
      </trkpt>
      <trkpt lat="44.53612" lon="2.8516">
        <ele>585.58</ele>
        <time>2012-08-10T11:13:05Z</time>
      </trkpt>
      <trkpt lat="44.53611" lon="2.85161">
        <ele>584.62</ele>
        <time>2012-08-10T11:13:06Z</time>
      </trkpt>
      <trkpt lat="44.53609" lon="2.85161">
        <ele>584.14</ele>
        <time>2012-08-10T11:13:07Z</time>
      </trkpt>
      <trkpt lat="44.53608" lon="2.85161">
        <ele>583.66</ele>
        <time>2012-08-10T11:13:08Z</time>
      </trkpt>
      <trkpt lat="44.53605" lon="2.85161">
        <ele>583.18</ele>
        <time>2012-08-10T11:13:09Z</time>
      </trkpt>
      <trkpt lat="44.53602" lon="2.8516">
        <ele>582.22</ele>
        <time>2012-08-10T11:13:10Z</time>
      </trkpt>
      <trkpt lat="44.536" lon="2.85159">
        <ele>581.73</ele>
        <time>2012-08-10T11:13:11Z</time>
      </trkpt>
      <trkpt lat="44.53597" lon="2.85157">
        <ele>581.25</ele>
        <time>2012-08-10T11:13:12Z</time>
      </trkpt>
      <trkpt lat="44.5358" lon="2.85135">
        <ele>575.97</ele>
        <time>2012-08-10T11:13:20Z</time>
      </trkpt>
      <trkpt lat="44.53574" lon="2.85106">
        <ele>571.16</ele>
        <time>2012-08-10T11:13:27Z</time>
      </trkpt>
      <trkpt lat="44.53573" lon="2.85101">
        <ele>570.68</ele>
        <time>2012-08-10T11:13:28Z</time>
      </trkpt>
      <trkpt lat="44.53573" lon="2.85097">
        <ele>570.2</ele>
        <time>2012-08-10T11:13:29Z</time>
      </trkpt>
      <trkpt lat="44.53574" lon="2.85091">
        <ele>569.72</ele>
        <time>2012-08-10T11:13:30Z</time>
      </trkpt>
      <trkpt lat="44.53574" lon="2.85085">
        <ele>569.24</ele>
        <time>2012-08-10T11:13:31Z</time>
      </trkpt>
      <trkpt lat="44.53575" lon="2.85079">
        <ele>569.24</ele>
        <time>2012-08-10T11:13:32Z</time>
      </trkpt>
      <trkpt lat="44.53576" lon="2.85073">
        <ele>568.28</ele>
        <time>2012-08-10T11:13:33Z</time>
      </trkpt>
      <trkpt lat="44.53576" lon="2.85066">
        <ele>567.32</ele>
        <time>2012-08-10T11:13:34Z</time>
      </trkpt>
      <trkpt lat="44.53574" lon="2.85047">
        <ele>566.35</ele>
        <time>2012-08-10T11:13:38Z</time>
      </trkpt>
      <trkpt lat="44.53575" lon="2.85042">
        <ele>565.87</ele>
        <time>2012-08-10T11:13:39Z</time>
      </trkpt>
      <trkpt lat="44.53576" lon="2.85037">
        <ele>565.87</ele>
        <time>2012-08-10T11:13:40Z</time>
      </trkpt>
      <trkpt lat="44.53574" lon="2.85031">
        <ele>565.87</ele>
        <time>2012-08-10T11:13:41Z</time>
      </trkpt>
      <trkpt lat="44.53572" lon="2.85025">
        <ele>565.39</ele>
        <time>2012-08-10T11:13:42Z</time>
      </trkpt>
      <trkpt lat="44.53554" lon="2.85006">
        <ele>562.99</ele>
        <time>2012-08-10T11:13:50Z</time>
      </trkpt>
      <trkpt lat="44.53552" lon="2.85005">
        <ele>562.99</ele>
        <time>2012-08-10T11:13:51Z</time>
      </trkpt>
      <trkpt lat="44.53541" lon="2.84998">
        <ele>561.55</ele>
        <time>2012-08-10T11:13:56Z</time>
      </trkpt>
      <trkpt lat="44.53533" lon="2.85">
        <ele>560.59</ele>
        <time>2012-08-10T11:14:01Z</time>
      </trkpt>
      <trkpt lat="44.53529" lon="2.85001">
        <ele>559.62</ele>
        <time>2012-08-10T11:14:03Z</time>
      </trkpt>
      <trkpt lat="44.53505" lon="2.84999">
        <ele>556.26</ele>
        <time>2012-08-10T11:14:16Z</time>
      </trkpt>
      <trkpt lat="44.53474" lon="2.84984">
        <ele>555.78</ele>
        <time>2012-08-10T11:14:29Z</time>
      </trkpt>
      <trkpt lat="44.53457" lon="2.84975">
        <ele>555.78</ele>
        <time>2012-08-10T11:14:36Z</time>
      </trkpt>
      <trkpt lat="44.53449" lon="2.84943">
        <ele>550.97</ele>
        <time>2012-08-10T11:14:49Z</time>
      </trkpt>
      <trkpt lat="44.53424" lon="2.84921">
        <ele>546.65</ele>
        <time>2012-08-10T11:15:00Z</time>
      </trkpt>
      <trkpt lat="44.53405" lon="2.84927">
        <ele>544.24</ele>
        <time>2012-08-10T11:15:07Z</time>
      </trkpt>
      <trkpt lat="44.5339" lon="2.84953">
        <ele>539.44</ele>
        <time>2012-08-10T11:15:18Z</time>
      </trkpt>
      <trkpt lat="44.53376" lon="2.84972">
        <ele>533.19</ele>
        <time>2012-08-10T11:15:27Z</time>
      </trkpt>
      <trkpt lat="44.53375" lon="2.84947">
        <ele>522.61</ele>
        <time>2012-08-10T11:15:35Z</time>
      </trkpt>
      <trkpt lat="44.53375" lon="2.84943">
        <ele>521.17</ele>
        <time>2012-08-10T11:15:36Z</time>
      </trkpt>
      <trkpt lat="44.53375" lon="2.8493">
        <ele>515.4</ele>
        <time>2012-08-10T11:15:41Z</time>
      </trkpt>
      <trkpt lat="44.53375" lon="2.84915">
        <ele>509.16</ele>
        <time>2012-08-10T11:15:47Z</time>
      </trkpt>
      <trkpt lat="44.53361" lon="2.84923">
        <ele>501.95</ele>
        <time>2012-08-10T11:15:56Z</time>
      </trkpt>
      <trkpt lat="44.53357" lon="2.84929">
        <ele>499.06</ele>
        <time>2012-08-10T11:15:59Z</time>
      </trkpt>
      <trkpt lat="44.53346" lon="2.84947">
        <ele>489.45</ele>
        <time>2012-08-10T11:16:09Z</time>
      </trkpt>
      <trkpt lat="44.53339" lon="2.84962">
        <ele>485.12</ele>
        <time>2012-08-10T11:16:17Z</time>
      </trkpt>
      <trkpt lat="44.53336" lon="2.8497">
        <ele>485.12</ele>
        <time>2012-08-10T11:16:21Z</time>
      </trkpt>
      <trkpt lat="44.53333" lon="2.85029">
        <ele>486.56</ele>
        <time>2012-08-10T11:16:34Z</time>
      </trkpt>
      <trkpt lat="44.53333" lon="2.85034">
        <ele>487.05</ele>
        <time>2012-08-10T11:16:36Z</time>
      </trkpt>
      <trkpt lat="44.53337" lon="2.85057">
        <ele>492.81</ele>
        <time>2012-08-10T11:16:44Z</time>
      </trkpt>
      <trkpt lat="44.5334" lon="2.85087">
        <ele>496.18</ele>
        <time>2012-08-10T11:16:57Z</time>
      </trkpt>
      <trkpt lat="44.53342" lon="2.85094">
        <ele>494.74</ele>
        <time>2012-08-10T11:17:12Z</time>
      </trkpt>
      <trkpt lat="44.53342" lon="2.85109">
        <ele>497.14</ele>
        <time>2012-08-10T11:17:36Z</time>
      </trkpt>
      <trkpt lat="44.53356" lon="2.85151">
        <ele>497.62</ele>
        <time>2012-08-10T11:17:49Z</time>
      </trkpt>
      <trkpt lat="44.53358" lon="2.85158">
        <ele>498.1</ele>
        <time>2012-08-10T11:17:51Z</time>
      </trkpt>
      <trkpt lat="44.53368" lon="2.8517">
        <ele>500.02</ele>
        <time>2012-08-10T11:17:57Z</time>
      </trkpt>
      <trkpt lat="44.53365" lon="2.8518">
        <ele>501.46</ele>
        <time>2012-08-10T11:18:01Z</time>
      </trkpt>
      <trkpt lat="44.53338" lon="2.85168">
        <ele>501.95</ele>
        <time>2012-08-10T11:18:12Z</time>
      </trkpt>
      <trkpt lat="44.53332" lon="2.85159">
        <ele>501.95</ele>
        <time>2012-08-10T11:18:15Z</time>
      </trkpt>
      <trkpt lat="44.53326" lon="2.85164">
        <ele>500.02</ele>
        <time>2012-08-10T11:18:20Z</time>
      </trkpt>
      <trkpt lat="44.5333" lon="2.85174">
        <ele>498.58</ele>
        <time>2012-08-10T11:18:24Z</time>
      </trkpt>
      <trkpt lat="44.53331" lon="2.85187">
        <ele>495.7</ele>
        <time>2012-08-10T11:18:29Z</time>
      </trkpt>
      <trkpt lat="44.53341" lon="2.85223">
        <ele>488.49</ele>
        <time>2012-08-10T11:18:41Z</time>
      </trkpt>
      <trkpt lat="44.53352" lon="2.85238">
        <ele>483.2</ele>
        <time>2012-08-10T11:18:52Z</time>
      </trkpt>
      <trkpt lat="44.53354" lon="2.8524">
        <ele>482.24</ele>
        <time>2012-08-10T11:19:03Z</time>
      </trkpt>
      <trkpt lat="44.53366" lon="2.85263">
        <ele>475.99</ele>
        <time>2012-08-10T11:19:14Z</time>
      </trkpt>
      <trkpt lat="44.53361" lon="2.85287">
        <ele>473.11</ele>
        <time>2012-08-10T11:19:23Z</time>
      </trkpt>
      <trkpt lat="44.53359" lon="2.85291">
        <ele>472.14</ele>
        <time>2012-08-10T11:19:25Z</time>
      </trkpt>
      <trkpt lat="44.53353" lon="2.85304">
        <ele>471.18</ele>
        <time>2012-08-10T11:19:32Z</time>
      </trkpt>
      <trkpt lat="44.53351" lon="2.85321">
        <ele>472.14</ele>
        <time>2012-08-10T11:19:42Z</time>
      </trkpt>
      <trkpt lat="44.53358" lon="2.85349">
        <ele>471.18</ele>
        <time>2012-08-10T11:19:51Z</time>
      </trkpt>
      <trkpt lat="44.5337" lon="2.85373">
        <ele>474.07</ele>
        <time>2012-08-10T11:20:02Z</time>
      </trkpt>
      <trkpt lat="44.5337" lon="2.85376">
        <ele>474.55</ele>
        <time>2012-08-10T11:20:05Z</time>
      </trkpt>
      <trkpt lat="44.53357" lon="2.85374">
        <ele>476.95</ele>
        <time>2012-08-10T11:20:12Z</time>
      </trkpt>
      <trkpt lat="44.53345" lon="2.85376">
        <ele>478.87</ele>
        <time>2012-08-10T11:20:24Z</time>
      </trkpt>
      <trkpt lat="44.53341" lon="2.85378">
        <ele>479.35</ele>
        <time>2012-08-10T11:20:36Z</time>
      </trkpt>
      <trkpt lat="44.53339" lon="2.8538">
        <ele>479.84</ele>
        <time>2012-08-10T11:20:49Z</time>
      </trkpt>
      <trkpt lat="44.53335" lon="2.85381">
        <ele>479.84</ele>
        <time>2012-08-10T11:21:00Z</time>
      </trkpt>
      <trkpt lat="44.53327" lon="2.85386">
        <ele>480.32</ele>
        <time>2012-08-10T11:21:08Z</time>
      </trkpt>
      <trkpt lat="44.53324" lon="2.85391">
        <ele>480.32</ele>
        <time>2012-08-10T11:21:11Z</time>
      </trkpt>
      <trkpt lat="44.53315" lon="2.85406">
        <ele>479.35</ele>
        <time>2012-08-10T11:21:25Z</time>
      </trkpt>
      <trkpt lat="44.53304" lon="2.85401">
        <ele>473.59</ele>
        <time>2012-08-10T11:21:37Z</time>
      </trkpt>
      <trkpt lat="44.53304" lon="2.85393">
        <ele>468.78</ele>
        <time>2012-08-10T11:21:50Z</time>
      </trkpt>
      <trkpt lat="44.53305" lon="2.85391">
        <ele>466.38</ele>
        <time>2012-08-10T11:22:01Z</time>
      </trkpt>
      <trkpt lat="44.533" lon="2.85379">
        <ele>464.45</ele>
        <time>2012-08-10T11:22:14Z</time>
      </trkpt>
      <trkpt lat="44.53292" lon="2.85363">
        <ele>464.93</ele>
        <time>2012-08-10T11:22:30Z</time>
      </trkpt>
      <trkpt lat="44.53287" lon="2.85354">
        <ele>463.97</ele>
        <time>2012-08-10T11:22:45Z</time>
      </trkpt>
      <trkpt lat="44.53286" lon="2.85353">
        <ele>463.97</ele>
        <time>2012-08-10T11:22:46Z</time>
      </trkpt>
      <trkpt lat="44.5328" lon="2.85332">
        <ele>463.01</ele>
        <time>2012-08-10T11:22:52Z</time>
      </trkpt>
      <trkpt lat="44.53278" lon="2.85326">
        <ele>463.01</ele>
        <time>2012-08-10T11:22:53Z</time>
      </trkpt>
      <trkpt lat="44.53277" lon="2.85319">
        <ele>463.01</ele>
        <time>2012-08-10T11:22:54Z</time>
      </trkpt>
      <trkpt lat="44.5327" lon="2.85272">
        <ele>461.09</ele>
        <time>2012-08-10T11:23:01Z</time>
      </trkpt>
      <trkpt lat="44.53266" lon="2.85238">
        <ele>460.13</ele>
        <time>2012-08-10T11:23:06Z</time>
      </trkpt>
      <trkpt lat="44.53263" lon="2.85225">
        <ele>459.17</ele>
        <time>2012-08-10T11:23:08Z</time>
      </trkpt>
      <trkpt lat="44.53262" lon="2.8522">
        <ele>458.21</ele>
        <time>2012-08-10T11:23:09Z</time>
      </trkpt>
      <trkpt lat="44.53256" lon="2.85207">
        <ele>456.28</ele>
        <time>2012-08-10T11:23:12Z</time>
      </trkpt>
      <trkpt lat="44.53253" lon="2.85202">
        <ele>455.32</ele>
        <time>2012-08-10T11:23:13Z</time>
      </trkpt>
      <trkpt lat="44.53251" lon="2.85199">
        <ele>454.84</ele>
        <time>2012-08-10T11:23:14Z</time>
      </trkpt>
      <trkpt lat="44.53246" lon="2.85189">
        <ele>452.92</ele>
        <time>2012-08-10T11:23:18Z</time>
      </trkpt>
      <trkpt lat="44.53233" lon="2.85172">
        <ele>449.55</ele>
        <time>2012-08-10T11:23:24Z</time>
      </trkpt>
      <trkpt lat="44.53224" lon="2.85144">
        <ele>446.67</ele>
        <time>2012-08-10T11:23:30Z</time>
      </trkpt>
      <trkpt lat="44.5322" lon="2.85141">
        <ele>446.19</ele>
        <time>2012-08-10T11:23:31Z</time>
      </trkpt>
      <trkpt lat="44.53216" lon="2.8514">
        <ele>445.71</ele>
        <time>2012-08-10T11:23:32Z</time>
      </trkpt>
      <trkpt lat="44.53213" lon="2.85139">
        <ele>445.23</ele>
        <time>2012-08-10T11:23:33Z</time>
      </trkpt>
      <trkpt lat="44.5321" lon="2.85137">
        <ele>444.75</ele>
        <time>2012-08-10T11:23:34Z</time>
      </trkpt>
      <trkpt lat="44.53189" lon="2.85123">
        <ele>443.79</ele>
        <time>2012-08-10T11:23:41Z</time>
      </trkpt>
      <trkpt lat="44.53187" lon="2.85118">
        <ele>443.31</ele>
        <time>2012-08-10T11:23:42Z</time>
      </trkpt>
      <trkpt lat="44.5318" lon="2.85099">
        <ele>442.34</ele>
        <time>2012-08-10T11:23:46Z</time>
      </trkpt>
      <trkpt lat="44.53179" lon="2.85094">
        <ele>441.86</ele>
        <time>2012-08-10T11:23:47Z</time>
      </trkpt>
      <trkpt lat="44.53178" lon="2.85089">
        <ele>441.86</ele>
        <time>2012-08-10T11:23:48Z</time>
      </trkpt>
      <trkpt lat="44.53176" lon="2.85087">
        <ele>441.38</ele>
        <time>2012-08-10T11:23:49Z</time>
      </trkpt>
      <trkpt lat="44.53173" lon="2.85085">
        <ele>441.38</ele>
        <time>2012-08-10T11:23:50Z</time>
      </trkpt>
      <trkpt lat="44.53171" lon="2.85083">
        <ele>441.38</ele>
        <time>2012-08-10T11:23:51Z</time>
      </trkpt>
      <trkpt lat="44.53169" lon="2.8508">
        <ele>440.9</ele>
        <time>2012-08-10T11:23:52Z</time>
      </trkpt>
      <trkpt lat="44.53168" lon="2.85078">
        <ele>440.9</ele>
        <time>2012-08-10T11:23:53Z</time>
      </trkpt>
      <trkpt lat="44.53167" lon="2.85075">
        <ele>440.42</ele>
        <time>2012-08-10T11:23:54Z</time>
      </trkpt>
      <trkpt lat="44.53165" lon="2.85072">
        <ele>440.42</ele>
        <time>2012-08-10T11:23:55Z</time>
      </trkpt>
      <trkpt lat="44.53163" lon="2.85068">
        <ele>440.42</ele>
        <time>2012-08-10T11:23:56Z</time>
      </trkpt>
      <trkpt lat="44.53161" lon="2.85065">
        <ele>439.94</ele>
        <time>2012-08-10T11:23:57Z</time>
      </trkpt>
      <trkpt lat="44.5316" lon="2.85062">
        <ele>439.94</ele>
        <time>2012-08-10T11:23:58Z</time>
      </trkpt>
      <trkpt lat="44.5316" lon="2.85058">
        <ele>439.94</ele>
        <time>2012-08-10T11:23:59Z</time>
      </trkpt>
      <trkpt lat="44.5316" lon="2.85053">
        <ele>439.46</ele>
        <time>2012-08-10T11:24:00Z</time>
      </trkpt>
      <trkpt lat="44.5316" lon="2.85047">
        <ele>438.98</ele>
        <time>2012-08-10T11:24:01Z</time>
      </trkpt>
      <trkpt lat="44.53158" lon="2.84991">
        <ele>431.77</ele>
        <time>2012-08-10T11:24:12Z</time>
      </trkpt>
      <trkpt lat="44.53158" lon="2.84986">
        <ele>430.81</ele>
        <time>2012-08-10T11:24:13Z</time>
      </trkpt>
      <trkpt lat="44.53159" lon="2.84968">
        <ele>425.52</ele>
        <time>2012-08-10T11:24:18Z</time>
      </trkpt>
      <trkpt lat="44.53183" lon="2.84923">
        <ele>417.83</ele>
        <time>2012-08-10T11:24:29Z</time>
      </trkpt>
      <trkpt lat="44.53194" lon="2.84874">
        <ele>411.1</ele>
        <time>2012-08-10T11:24:39Z</time>
      </trkpt>
      <trkpt lat="44.53179" lon="2.84839">
        <ele>405.81</ele>
        <time>2012-08-10T11:24:48Z</time>
      </trkpt>
      <trkpt lat="44.53144" lon="2.84823">
        <ele>410.62</ele>
        <time>2012-08-10T11:25:00Z</time>
      </trkpt>
      <trkpt lat="44.53127" lon="2.84813">
        <ele>415.43</ele>
        <time>2012-08-10T11:25:12Z</time>
      </trkpt>
      <trkpt lat="44.53128" lon="2.84813">
        <ele>418.31</ele>
        <time>2012-08-10T11:25:27Z</time>
      </trkpt>
      <trkpt lat="44.53126" lon="2.84814">
        <ele>419.75</ele>
        <time>2012-08-10T11:25:39Z</time>
      </trkpt>
      <trkpt lat="44.53126" lon="2.84814">
        <ele>419.75</ele>
        <time>2012-08-10T11:25:41Z</time>
      </trkpt>
      <trkpt lat="44.53124" lon="2.84814">
        <ele>420.71</ele>
        <time>2012-08-10T11:25:43Z</time>
      </trkpt>
      <trkpt lat="44.53116" lon="2.84795">
        <ele>420.71</ele>
        <time>2012-08-10T11:25:54Z</time>
      </trkpt>
      <trkpt lat="44.53104" lon="2.84779">
        <ele>424.56</ele>
        <time>2012-08-10T11:26:05Z</time>
      </trkpt>
      <trkpt lat="44.53087" lon="2.84756">
        <ele>435.61</ele>
        <time>2012-08-10T11:26:20Z</time>
      </trkpt>
      <trkpt lat="44.53071" lon="2.84734">
        <ele>442.34</ele>
        <time>2012-08-10T11:26:35Z</time>
      </trkpt>
      <trkpt lat="44.53065" lon="2.84729">
        <ele>445.71</ele>
        <time>2012-08-10T11:26:40Z</time>
      </trkpt>
      <trkpt lat="44.5306" lon="2.84724">
        <ele>447.63</ele>
        <time>2012-08-10T11:26:44Z</time>
      </trkpt>
      <trkpt lat="44.53048" lon="2.847">
        <ele>444.27</ele>
        <time>2012-08-10T11:26:57Z</time>
      </trkpt>
      <trkpt lat="44.53043" lon="2.8469">
        <ele>441.86</ele>
        <time>2012-08-10T11:27:04Z</time>
      </trkpt>
      <trkpt lat="44.53041" lon="2.84687">
        <ele>441.86</ele>
        <time>2012-08-10T11:27:06Z</time>
      </trkpt>
      <trkpt lat="44.53019" lon="2.84663">
        <ele>442.82</ele>
        <time>2012-08-10T11:27:22Z</time>
      </trkpt>
      <trkpt lat="44.53001" lon="2.84642">
        <ele>440.9</ele>
        <time>2012-08-10T11:27:36Z</time>
      </trkpt>
      <trkpt lat="44.52999" lon="2.84634">
        <ele>440.9</ele>
        <time>2012-08-10T11:27:40Z</time>
      </trkpt>
      <trkpt lat="44.52998" lon="2.84616">
        <ele>438.02</ele>
        <time>2012-08-10T11:27:46Z</time>
      </trkpt>
      <trkpt lat="44.53002" lon="2.84587">
        <ele>439.94</ele>
        <time>2012-08-10T11:28:00Z</time>
      </trkpt>
      <trkpt lat="44.53002" lon="2.84583">
        <ele>439.94</ele>
        <time>2012-08-10T11:28:02Z</time>
      </trkpt>
      <trkpt lat="44.52997" lon="2.84572">
        <ele>441.38</ele>
        <time>2012-08-10T11:28:07Z</time>
      </trkpt>
      <trkpt lat="44.52989" lon="2.84569">
        <ele>441.38</ele>
        <time>2012-08-10T11:28:11Z</time>
      </trkpt>
      <trkpt lat="44.52969" lon="2.84575">
        <ele>439.46</ele>
        <time>2012-08-10T11:28:27Z</time>
      </trkpt>
      <trkpt lat="44.5295" lon="2.84592">
        <ele>439.94</ele>
        <time>2012-08-10T11:28:36Z</time>
      </trkpt>
      <trkpt lat="44.52943" lon="2.84599">
        <ele>440.42</ele>
        <time>2012-08-10T11:28:40Z</time>
      </trkpt>
      <trkpt lat="44.52927" lon="2.84619">
        <ele>445.23</ele>
        <time>2012-08-10T11:28:51Z</time>
      </trkpt>
      <trkpt lat="44.52905" lon="2.84654">
        <ele>451</ele>
        <time>2012-08-10T11:29:06Z</time>
      </trkpt>
      <trkpt lat="44.52885" lon="2.84684">
        <ele>452.92</ele>
        <time>2012-08-10T11:29:19Z</time>
      </trkpt>
      <trkpt lat="44.52858" lon="2.84696">
        <ele>450.03</ele>
        <time>2012-08-10T11:29:34Z</time>
      </trkpt>
      <trkpt lat="44.52842" lon="2.84685">
        <ele>449.55</ele>
        <time>2012-08-10T11:29:42Z</time>
      </trkpt>
      <trkpt lat="44.52835" lon="2.84682">
        <ele>449.07</ele>
        <time>2012-08-10T11:29:54Z</time>
      </trkpt>
      <trkpt lat="44.52833" lon="2.84681">
        <ele>448.59</ele>
        <time>2012-08-10T11:30:06Z</time>
      </trkpt>
      <trkpt lat="44.52833" lon="2.8468">
        <ele>446.67</ele>
        <time>2012-08-10T11:30:41Z</time>
      </trkpt>
      <trkpt lat="44.52832" lon="2.8468">
        <ele>448.11</ele>
        <time>2012-08-10T11:31:08Z</time>
      </trkpt>
      <trkpt lat="44.52831" lon="2.84676">
        <ele>446.67</ele>
        <time>2012-08-10T11:31:40Z</time>
      </trkpt>
      <trkpt lat="44.52832" lon="2.84677">
        <ele>446.19</ele>
        <time>2012-08-10T11:32:08Z</time>
      </trkpt>
      <trkpt lat="44.52833" lon="2.84675">
        <ele>445.23</ele>
        <time>2012-08-10T11:32:23Z</time>
      </trkpt>
      <trkpt lat="44.52839" lon="2.84635">
        <ele>442.34</ele>
        <time>2012-08-10T11:32:37Z</time>
      </trkpt>
      <trkpt lat="44.5285" lon="2.84606">
        <ele>441.38</ele>
        <time>2012-08-10T11:32:50Z</time>
      </trkpt>
      <trkpt lat="44.52851" lon="2.84598">
        <ele>441.38</ele>
        <time>2012-08-10T11:32:54Z</time>
      </trkpt>
      <trkpt lat="44.52853" lon="2.84594">
        <ele>442.82</ele>
        <time>2012-08-10T11:32:57Z</time>
      </trkpt>
      <trkpt lat="44.52856" lon="2.84597">
        <ele>443.31</ele>
        <time>2012-08-10T11:33:00Z</time>
      </trkpt>
      <trkpt lat="44.52862" lon="2.84609">
        <ele>444.75</ele>
        <time>2012-08-10T11:33:13Z</time>
      </trkpt>
      <trkpt lat="44.52862" lon="2.84609">
        <ele>446.19</ele>
        <time>2012-08-10T11:33:35Z</time>
      </trkpt>
      <trkpt lat="44.52864" lon="2.84612">
        <ele>447.63</ele>
        <time>2012-08-10T11:33:53Z</time>
      </trkpt>
      <trkpt lat="44.52864" lon="2.84613">
        <ele>447.63</ele>
        <time>2012-08-10T11:33:54Z</time>
      </trkpt>
      <trkpt lat="44.52868" lon="2.84624">
        <ele>449.07</ele>
        <time>2012-08-10T11:34:03Z</time>
      </trkpt>
      <trkpt lat="44.52874" lon="2.84623">
        <ele>451</ele>
        <time>2012-08-10T11:34:17Z</time>
      </trkpt>
      <trkpt lat="44.52876" lon="2.84621">
        <ele>451.96</ele>
        <time>2012-08-10T11:34:39Z</time>
      </trkpt>
      <trkpt lat="44.52879" lon="2.84612">
        <ele>456.76</ele>
        <time>2012-08-10T11:34:51Z</time>
      </trkpt>
      <trkpt lat="44.52882" lon="2.84605">
        <ele>457.72</ele>
        <time>2012-08-10T11:34:57Z</time>
      </trkpt>
      <trkpt lat="44.52892" lon="2.84593">
        <ele>458.69</ele>
        <time>2012-08-10T11:35:13Z</time>
      </trkpt>
      <trkpt lat="44.52892" lon="2.84592">
        <ele>458.69</ele>
        <time>2012-08-10T11:35:15Z</time>
      </trkpt>
      <trkpt lat="44.52902" lon="2.84574">
        <ele>461.57</ele>
        <time>2012-08-10T11:35:31Z</time>
      </trkpt>
      <trkpt lat="44.52906" lon="2.84565">
        <ele>461.57</ele>
        <time>2012-08-10T11:35:38Z</time>
      </trkpt>
      <trkpt lat="44.52913" lon="2.84549">
        <ele>463.49</ele>
        <time>2012-08-10T11:35:53Z</time>
      </trkpt>
      <trkpt lat="44.52919" lon="2.84531">
        <ele>465.42</ele>
        <time>2012-08-10T11:36:07Z</time>
      </trkpt>
      <trkpt lat="44.52922" lon="2.84527">
        <ele>465.42</ele>
        <time>2012-08-10T11:36:12Z</time>
      </trkpt>
      <trkpt lat="44.52927" lon="2.84516">
        <ele>466.86</ele>
        <time>2012-08-10T11:36:26Z</time>
      </trkpt>
      <trkpt lat="44.52932" lon="2.84502">
        <ele>470.22</ele>
        <time>2012-08-10T11:36:40Z</time>
      </trkpt>
      <trkpt lat="44.52941" lon="2.84492">
        <ele>471.66</ele>
        <time>2012-08-10T11:36:55Z</time>
      </trkpt>
      <trkpt lat="44.52946" lon="2.84485">
        <ele>474.07</ele>
        <time>2012-08-10T11:37:10Z</time>
      </trkpt>
      <trkpt lat="44.52952" lon="2.84476">
        <ele>476.47</ele>
        <time>2012-08-10T11:37:25Z</time>
      </trkpt>
      <trkpt lat="44.5296" lon="2.84464">
        <ele>481.28</ele>
        <time>2012-08-10T11:37:40Z</time>
      </trkpt>
      <trkpt lat="44.52964" lon="2.84456">
        <ele>484.16</ele>
        <time>2012-08-10T11:37:56Z</time>
      </trkpt>
      <trkpt lat="44.52976" lon="2.84446">
        <ele>485.12</ele>
        <time>2012-08-10T11:38:12Z</time>
      </trkpt>
      <trkpt lat="44.5298" lon="2.84446">
        <ele>486.56</ele>
        <time>2012-08-10T11:38:28Z</time>
      </trkpt>
      <trkpt lat="44.52986" lon="2.84447">
        <ele>488.01</ele>
        <time>2012-08-10T11:38:49Z</time>
      </trkpt>
      <trkpt lat="44.52995" lon="2.84447">
        <ele>487.53</ele>
        <time>2012-08-10T11:39:03Z</time>
      </trkpt>
      <trkpt lat="44.53005" lon="2.84447">
        <ele>488.49</ele>
        <time>2012-08-10T11:39:17Z</time>
      </trkpt>
      <trkpt lat="44.53013" lon="2.84443">
        <ele>489.93</ele>
        <time>2012-08-10T11:39:31Z</time>
      </trkpt>
      <trkpt lat="44.53018" lon="2.84435">
        <ele>490.41</ele>
        <time>2012-08-10T11:39:43Z</time>
      </trkpt>
      <trkpt lat="44.53026" lon="2.84423">
        <ele>492.33</ele>
        <time>2012-08-10T11:39:59Z</time>
      </trkpt>
      <trkpt lat="44.53028" lon="2.84418">
        <ele>492.33</ele>
        <time>2012-08-10T11:40:12Z</time>
      </trkpt>
      <trkpt lat="44.53035" lon="2.8441">
        <ele>494.74</ele>
        <time>2012-08-10T11:40:25Z</time>
      </trkpt>
      <trkpt lat="44.53042" lon="2.844">
        <ele>497.62</ele>
        <time>2012-08-10T11:40:40Z</time>
      </trkpt>
      <trkpt lat="44.5305" lon="2.84388">
        <ele>500.02</ele>
        <time>2012-08-10T11:40:54Z</time>
      </trkpt>
      <trkpt lat="44.53057" lon="2.84379">
        <ele>501.46</ele>
        <time>2012-08-10T11:41:05Z</time>
      </trkpt>
      <trkpt lat="44.53066" lon="2.84361">
        <ele>502.43</ele>
        <time>2012-08-10T11:41:23Z</time>
      </trkpt>
      <trkpt lat="44.53075" lon="2.84348">
        <ele>504.35</ele>
        <time>2012-08-10T11:41:37Z</time>
      </trkpt>
      <trkpt lat="44.5308" lon="2.84335">
        <ele>505.31</ele>
        <time>2012-08-10T11:41:51Z</time>
      </trkpt>
      <trkpt lat="44.53088" lon="2.84321">
        <ele>506.27</ele>
        <time>2012-08-10T11:42:05Z</time>
      </trkpt>
      <trkpt lat="44.53093" lon="2.84308">
        <ele>508.19</ele>
        <time>2012-08-10T11:42:19Z</time>
      </trkpt>
      <trkpt lat="44.53097" lon="2.84291">
        <ele>508.67</ele>
        <time>2012-08-10T11:42:33Z</time>
      </trkpt>
      <trkpt lat="44.53097" lon="2.84289">
        <ele>508.67</ele>
        <time>2012-08-10T11:42:35Z</time>
      </trkpt>
      <trkpt lat="44.53099" lon="2.84267">
        <ele>510.6</ele>
        <time>2012-08-10T11:42:52Z</time>
      </trkpt>
      <trkpt lat="44.53102" lon="2.84263">
        <ele>510.12</ele>
        <time>2012-08-10T11:42:56Z</time>
      </trkpt>
      <trkpt lat="44.53107" lon="2.84257">
        <ele>510.12</ele>
        <time>2012-08-10T11:43:04Z</time>
      </trkpt>
      <trkpt lat="44.53118" lon="2.84243">
        <ele>513.48</ele>
        <time>2012-08-10T11:43:20Z</time>
      </trkpt>
      <trkpt lat="44.53124" lon="2.84232">
        <ele>515.88</ele>
        <time>2012-08-10T11:43:34Z</time>
      </trkpt>
      <trkpt lat="44.53132" lon="2.84216">
        <ele>517.33</ele>
        <time>2012-08-10T11:43:49Z</time>
      </trkpt>
      <trkpt lat="44.53128" lon="2.84205">
        <ele>516.85</ele>
        <time>2012-08-10T11:43:59Z</time>
      </trkpt>
      <trkpt lat="44.53123" lon="2.84187">
        <ele>517.33</ele>
        <time>2012-08-10T11:44:15Z</time>
      </trkpt>
      <trkpt lat="44.53121" lon="2.84182">
        <ele>517.33</ele>
        <time>2012-08-10T11:44:20Z</time>
      </trkpt>
      <trkpt lat="44.53116" lon="2.84175">
        <ele>516.37</ele>
        <time>2012-08-10T11:44:27Z</time>
      </trkpt>
      <trkpt lat="44.53112" lon="2.84153">
        <ele>518.77</ele>
        <time>2012-08-10T11:44:44Z</time>
      </trkpt>
      <trkpt lat="44.53112" lon="2.84153">
        <ele>517.81</ele>
        <time>2012-08-10T11:45:01Z</time>
      </trkpt>
      <trkpt lat="44.53113" lon="2.84152">
        <ele>517.33</ele>
        <time>2012-08-10T11:45:38Z</time>
      </trkpt>
      <trkpt lat="44.5311" lon="2.8414">
        <ele>518.77</ele>
        <time>2012-08-10T11:45:54Z</time>
      </trkpt>
      <trkpt lat="44.53111" lon="2.84135">
        <ele>517.81</ele>
        <time>2012-08-10T11:46:10Z</time>
      </trkpt>
      <trkpt lat="44.53109" lon="2.84118">
        <ele>519.25</ele>
        <time>2012-08-10T11:46:19Z</time>
      </trkpt>
      <trkpt lat="44.53114" lon="2.84093">
        <ele>522.13</ele>
        <time>2012-08-10T11:46:35Z</time>
      </trkpt>
      <trkpt lat="44.53112" lon="2.84082">
        <ele>521.17</ele>
        <time>2012-08-10T11:46:43Z</time>
      </trkpt>
      <trkpt lat="44.53106" lon="2.84062">
        <ele>519.73</ele>
        <time>2012-08-10T11:46:49Z</time>
      </trkpt>
      <trkpt lat="44.53104" lon="2.84056">
        <ele>519.73</ele>
        <time>2012-08-10T11:46:50Z</time>
      </trkpt>
      <trkpt lat="44.53102" lon="2.8405">
        <ele>519.25</ele>
        <time>2012-08-10T11:46:51Z</time>
      </trkpt>
      <trkpt lat="44.531" lon="2.84044">
        <ele>519.25</ele>
        <time>2012-08-10T11:46:52Z</time>
      </trkpt>
      <trkpt lat="44.53092" lon="2.84028">
        <ele>518.29</ele>
        <time>2012-08-10T11:46:55Z</time>
      </trkpt>
      <trkpt lat="44.5309" lon="2.84024">
        <ele>518.29</ele>
        <time>2012-08-10T11:46:56Z</time>
      </trkpt>
      <trkpt lat="44.53087" lon="2.8402">
        <ele>518.29</ele>
        <time>2012-08-10T11:46:57Z</time>
      </trkpt>
      <trkpt lat="44.53085" lon="2.84016">
        <ele>518.29</ele>
        <time>2012-08-10T11:46:58Z</time>
      </trkpt>
      <trkpt lat="44.53083" lon="2.84012">
        <ele>517.81</ele>
        <time>2012-08-10T11:46:59Z</time>
      </trkpt>
      <trkpt lat="44.53081" lon="2.84009">
        <ele>517.81</ele>
        <time>2012-08-10T11:47:00Z</time>
      </trkpt>
      <trkpt lat="44.5308" lon="2.84007">
        <ele>517.81</ele>
        <time>2012-08-10T11:47:01Z</time>
      </trkpt>
      <trkpt lat="44.53078" lon="2.84004">
        <ele>517.33</ele>
        <time>2012-08-10T11:47:02Z</time>
      </trkpt>
      <trkpt lat="44.53067" lon="2.83983">
        <ele>514.92</ele>
        <time>2012-08-10T11:47:07Z</time>
      </trkpt>
      <trkpt lat="44.53062" lon="2.83973">
        <ele>513.96</ele>
        <time>2012-08-10T11:47:09Z</time>
      </trkpt>
      <trkpt lat="44.53059" lon="2.8397">
        <ele>513.48</ele>
        <time>2012-08-10T11:47:10Z</time>
      </trkpt>
      <trkpt lat="44.5304" lon="2.83957">
        <ele>511.56</ele>
        <time>2012-08-10T11:47:15Z</time>
      </trkpt>
      <trkpt lat="44.53036" lon="2.83955">
        <ele>511.08</ele>
        <time>2012-08-10T11:47:16Z</time>
      </trkpt>
      <trkpt lat="44.53032" lon="2.83953">
        <ele>510.6</ele>
        <time>2012-08-10T11:47:17Z</time>
      </trkpt>
      <trkpt lat="44.53028" lon="2.83952">
        <ele>510.12</ele>
        <time>2012-08-10T11:47:18Z</time>
      </trkpt>
      <trkpt lat="44.53024" lon="2.8395">
        <ele>509.64</ele>
        <time>2012-08-10T11:47:19Z</time>
      </trkpt>
      <trkpt lat="44.5302" lon="2.83948">
        <ele>509.16</ele>
        <time>2012-08-10T11:47:20Z</time>
      </trkpt>
      <trkpt lat="44.53016" lon="2.83946">
        <ele>509.16</ele>
        <time>2012-08-10T11:47:21Z</time>
      </trkpt>
      <trkpt lat="44.52985" lon="2.83936">
        <ele>507.71</ele>
        <time>2012-08-10T11:47:30Z</time>
      </trkpt>
      <trkpt lat="44.52956" lon="2.83924">
        <ele>506.27</ele>
        <time>2012-08-10T11:47:38Z</time>
      </trkpt>
      <trkpt lat="44.52954" lon="2.83921">
        <ele>505.79</ele>
        <time>2012-08-10T11:47:39Z</time>
      </trkpt>
      <trkpt lat="44.52953" lon="2.83917">
        <ele>504.83</ele>
        <time>2012-08-10T11:47:40Z</time>
      </trkpt>
      <trkpt lat="44.52952" lon="2.83913">
        <ele>504.35</ele>
        <time>2012-08-10T11:47:41Z</time>
      </trkpt>
      <trkpt lat="44.5295" lon="2.8391">
        <ele>503.87</ele>
        <time>2012-08-10T11:47:42Z</time>
      </trkpt>
      <trkpt lat="44.52947" lon="2.83899">
        <ele>502.91</ele>
        <time>2012-08-10T11:47:44Z</time>
      </trkpt>
      <trkpt lat="44.52946" lon="2.83893">
        <ele>502.43</ele>
        <time>2012-08-10T11:47:45Z</time>
      </trkpt>
      <trkpt lat="44.52946" lon="2.83887">
        <ele>501.46</ele>
        <time>2012-08-10T11:47:46Z</time>
      </trkpt>
      <trkpt lat="44.52946" lon="2.83882">
        <ele>500.98</ele>
        <time>2012-08-10T11:47:47Z</time>
      </trkpt>
      <trkpt lat="44.52946" lon="2.83877">
        <ele>500.5</ele>
        <time>2012-08-10T11:47:48Z</time>
      </trkpt>
      <trkpt lat="44.52946" lon="2.83872">
        <ele>500.02</ele>
        <time>2012-08-10T11:47:49Z</time>
      </trkpt>
      <trkpt lat="44.52946" lon="2.83867">
        <ele>500.02</ele>
        <time>2012-08-10T11:47:50Z</time>
      </trkpt>
      <trkpt lat="44.52946" lon="2.83863">
        <ele>499.54</ele>
        <time>2012-08-10T11:47:51Z</time>
      </trkpt>
      <trkpt lat="44.52937" lon="2.83816">
        <ele>497.14</ele>
        <time>2012-08-10T11:48:02Z</time>
      </trkpt>
      <trkpt lat="44.52933" lon="2.83807">
        <ele>496.66</ele>
        <time>2012-08-10T11:48:06Z</time>
      </trkpt>
      <trkpt lat="44.52927" lon="2.83794">
        <ele>495.22</ele>
        <time>2012-08-10T11:48:12Z</time>
      </trkpt>
      <trkpt lat="44.52923" lon="2.83773">
        <ele>492.81</ele>
        <time>2012-08-10T11:48:24Z</time>
      </trkpt>
      <trkpt lat="44.52924" lon="2.83771">
        <ele>492.33</ele>
        <time>2012-08-10T11:48:38Z</time>
      </trkpt>
      <trkpt lat="44.52929" lon="2.83763">
        <ele>492.81</ele>
        <time>2012-08-10T11:48:51Z</time>
      </trkpt>
      <trkpt lat="44.52938" lon="2.83758">
        <ele>490.89</ele>
        <time>2012-08-10T11:49:02Z</time>
      </trkpt>
      <trkpt lat="44.52947" lon="2.83758">
        <ele>491.85</ele>
        <time>2012-08-10T11:49:15Z</time>
      </trkpt>
      <trkpt lat="44.52956" lon="2.83757">
        <ele>491.37</ele>
        <time>2012-08-10T11:49:27Z</time>
      </trkpt>
      <trkpt lat="44.52965" lon="2.83755">
        <ele>488.49</ele>
        <time>2012-08-10T11:49:41Z</time>
      </trkpt>
      <trkpt lat="44.52973" lon="2.83758">
        <ele>488.49</ele>
        <time>2012-08-10T11:49:51Z</time>
      </trkpt>
      <trkpt lat="44.52982" lon="2.83763">
        <ele>486.56</ele>
        <time>2012-08-10T11:50:03Z</time>
      </trkpt>
      <trkpt lat="44.52987" lon="2.83764">
        <ele>484.64</ele>
        <time>2012-08-10T11:50:14Z</time>
      </trkpt>
      <trkpt lat="44.52988" lon="2.83765">
        <ele>484.16</ele>
        <time>2012-08-10T11:50:17Z</time>
      </trkpt>
      <trkpt lat="44.52995" lon="2.83765">
        <ele>484.16</ele>
        <time>2012-08-10T11:50:24Z</time>
      </trkpt>
      <trkpt lat="44.53001" lon="2.83765">
        <ele>484.16</ele>
        <time>2012-08-10T11:50:27Z</time>
      </trkpt>
      <trkpt lat="44.53004" lon="2.83762">
        <ele>483.68</ele>
        <time>2012-08-10T11:50:30Z</time>
      </trkpt>
      <trkpt lat="44.53003" lon="2.83755">
        <ele>483.68</ele>
        <time>2012-08-10T11:50:34Z</time>
      </trkpt>
      <trkpt lat="44.52996" lon="2.83746">
        <ele>485.12</ele>
        <time>2012-08-10T11:50:46Z</time>
      </trkpt>
      <trkpt lat="44.52991" lon="2.83736">
        <ele>486.08</ele>
        <time>2012-08-10T11:51:01Z</time>
      </trkpt>
      <trkpt lat="44.52987" lon="2.83727">
        <ele>485.12</ele>
        <time>2012-08-10T11:51:11Z</time>
      </trkpt>
      <trkpt lat="44.52982" lon="2.83718">
        <ele>485.12</ele>
        <time>2012-08-10T11:51:22Z</time>
      </trkpt>
      <trkpt lat="44.52977" lon="2.83706">
        <ele>487.05</ele>
        <time>2012-08-10T11:51:33Z</time>
      </trkpt>
      <trkpt lat="44.52972" lon="2.83696">
        <ele>488.97</ele>
        <time>2012-08-10T11:51:44Z</time>
      </trkpt>
      <trkpt lat="44.5297" lon="2.83682">
        <ele>489.93</ele>
        <time>2012-08-10T11:51:57Z</time>
      </trkpt>
      <trkpt lat="44.5297" lon="2.83681">
        <ele>489.93</ele>
        <time>2012-08-10T11:51:58Z</time>
      </trkpt>
      <trkpt lat="44.52967" lon="2.83666">
        <ele>489.93</ele>
        <time>2012-08-10T11:52:14Z</time>
      </trkpt>
      <trkpt lat="44.52967" lon="2.83652">
        <ele>489.45</ele>
        <time>2012-08-10T11:52:27Z</time>
      </trkpt>
      <trkpt lat="44.52967" lon="2.83646">
        <ele>491.37</ele>
        <time>2012-08-10T11:52:37Z</time>
      </trkpt>
      <trkpt lat="44.52968" lon="2.83634">
        <ele>493.77</ele>
        <time>2012-08-10T11:52:52Z</time>
      </trkpt>
      <trkpt lat="44.52968" lon="2.83624">
        <ele>494.74</ele>
        <time>2012-08-10T11:53:00Z</time>
      </trkpt>
      <trkpt lat="44.52967" lon="2.83611">
        <ele>496.18</ele>
        <time>2012-08-10T11:53:12Z</time>
      </trkpt>
      <trkpt lat="44.52965" lon="2.83585">
        <ele>496.66</ele>
        <time>2012-08-10T11:53:30Z</time>
      </trkpt>
      <trkpt lat="44.52964" lon="2.83578">
        <ele>496.18</ele>
        <time>2012-08-10T11:53:36Z</time>
      </trkpt>
      <trkpt lat="44.52966" lon="2.83558">
        <ele>496.66</ele>
        <time>2012-08-10T11:53:50Z</time>
      </trkpt>
      <trkpt lat="44.52964" lon="2.83546">
        <ele>496.66</ele>
        <time>2012-08-10T11:53:59Z</time>
      </trkpt>
      <trkpt lat="44.52959" lon="2.83534">
        <ele>498.58</ele>
        <time>2012-08-10T11:54:14Z</time>
      </trkpt>
      <trkpt lat="44.52955" lon="2.83519">
        <ele>500.5</ele>
        <time>2012-08-10T11:54:29Z</time>
      </trkpt>
      <trkpt lat="44.5295" lon="2.835">
        <ele>501.46</ele>
        <time>2012-08-10T11:54:45Z</time>
      </trkpt>
      <trkpt lat="44.52951" lon="2.83494">
        <ele>501.46</ele>
        <time>2012-08-10T11:54:49Z</time>
      </trkpt>
      <trkpt lat="44.52949" lon="2.8347">
        <ele>499.54</ele>
        <time>2012-08-10T11:55:04Z</time>
      </trkpt>
      <trkpt lat="44.52945" lon="2.83448">
        <ele>500.98</ele>
        <time>2012-08-10T11:55:19Z</time>
      </trkpt>
      <trkpt lat="44.52942" lon="2.83428">
        <ele>502.43</ele>
        <time>2012-08-10T11:55:32Z</time>
      </trkpt>
      <trkpt lat="44.52934" lon="2.83409">
        <ele>503.87</ele>
        <time>2012-08-10T11:55:48Z</time>
      </trkpt>
      <trkpt lat="44.52928" lon="2.83396">
        <ele>505.79</ele>
        <time>2012-08-10T11:56:00Z</time>
      </trkpt>
      <trkpt lat="44.52923" lon="2.83388">
        <ele>506.75</ele>
        <time>2012-08-10T11:56:08Z</time>
      </trkpt>
      <trkpt lat="44.52919" lon="2.83379">
        <ele>508.19</ele>
        <time>2012-08-10T11:56:20Z</time>
      </trkpt>
      <trkpt lat="44.52918" lon="2.83378">
        <ele>508.67</ele>
        <time>2012-08-10T11:56:22Z</time>
      </trkpt>
      <trkpt lat="44.52906" lon="2.83366">
        <ele>511.56</ele>
        <time>2012-08-10T11:56:37Z</time>
      </trkpt>
      <trkpt lat="44.52895" lon="2.83357">
        <ele>510.6</ele>
        <time>2012-08-10T11:56:51Z</time>
      </trkpt>
      <trkpt lat="44.52887" lon="2.83346">
        <ele>512.52</ele>
        <time>2012-08-10T11:57:03Z</time>
      </trkpt>
      <trkpt lat="44.52884" lon="2.83339">
        <ele>513.48</ele>
        <time>2012-08-10T11:57:10Z</time>
      </trkpt>
      <trkpt lat="44.52881" lon="2.83328">
        <ele>514.92</ele>
        <time>2012-08-10T11:57:19Z</time>
      </trkpt>
      <trkpt lat="44.52876" lon="2.83309">
        <ele>514.92</ele>
        <time>2012-08-10T11:57:36Z</time>
      </trkpt>
      <trkpt lat="44.52875" lon="2.83305">
        <ele>515.88</ele>
        <time>2012-08-10T11:57:40Z</time>
      </trkpt>
      <trkpt lat="44.52869" lon="2.83287">
        <ele>518.77</ele>
        <time>2012-08-10T11:57:56Z</time>
      </trkpt>
      <trkpt lat="44.52863" lon="2.83268">
        <ele>520.21</ele>
        <time>2012-08-10T11:58:13Z</time>
      </trkpt>
      <trkpt lat="44.52861" lon="2.83264">
        <ele>520.69</ele>
        <time>2012-08-10T11:58:17Z</time>
      </trkpt>
      <trkpt lat="44.52856" lon="2.83253">
        <ele>521.17</ele>
        <time>2012-08-10T11:58:25Z</time>
      </trkpt>
      <trkpt lat="44.52849" lon="2.83236">
        <ele>521.65</ele>
        <time>2012-08-10T11:58:39Z</time>
      </trkpt>
      <trkpt lat="44.52851" lon="2.83224">
        <ele>523.58</ele>
        <time>2012-08-10T11:58:49Z</time>
      </trkpt>
      <trkpt lat="44.52857" lon="2.832">
        <ele>524.54</ele>
        <time>2012-08-10T11:59:06Z</time>
      </trkpt>
      <trkpt lat="44.52861" lon="2.83186">
        <ele>523.09</ele>
        <time>2012-08-10T11:59:17Z</time>
      </trkpt>
      <trkpt lat="44.5286" lon="2.8318">
        <ele>523.09</ele>
        <time>2012-08-10T11:59:19Z</time>
      </trkpt>
      <trkpt lat="44.52822" lon="2.83144">
        <ele>519.73</ele>
        <time>2012-08-10T11:59:33Z</time>
      </trkpt>
      <trkpt lat="44.52794" lon="2.83155">
        <ele>519.25</ele>
        <time>2012-08-10T11:59:44Z</time>
      </trkpt>
      <trkpt lat="44.52763" lon="2.83179">
        <ele>519.73</ele>
        <time>2012-08-10T11:59:59Z</time>
      </trkpt>
      <trkpt lat="44.5273" lon="2.83207">
        <ele>520.69</ele>
        <time>2012-08-10T12:00:15Z</time>
      </trkpt>
      <trkpt lat="44.52717" lon="2.8324">
        <ele>522.13</ele>
        <time>2012-08-10T12:00:27Z</time>
      </trkpt>
      <trkpt lat="44.52692" lon="2.83288">
        <ele>522.13</ele>
        <time>2012-08-10T12:00:40Z</time>
      </trkpt>
      <trkpt lat="44.52657" lon="2.83327">
        <ele>521.65</ele>
        <time>2012-08-10T12:00:52Z</time>
      </trkpt>
      <trkpt lat="44.52629" lon="2.83344">
        <ele>522.13</ele>
        <time>2012-08-10T12:01:02Z</time>
      </trkpt>
      <trkpt lat="44.52588" lon="2.83352">
        <ele>521.17</ele>
        <time>2012-08-10T12:01:17Z</time>
      </trkpt>
      <trkpt lat="44.52585" lon="2.8335">
        <ele>521.17</ele>
        <time>2012-08-10T12:01:18Z</time>
      </trkpt>
      <trkpt lat="44.52582" lon="2.83347">
        <ele>520.69</ele>
        <time>2012-08-10T12:01:19Z</time>
      </trkpt>
      <trkpt lat="44.52581" lon="2.83343">
        <ele>520.21</ele>
        <time>2012-08-10T12:01:20Z</time>
      </trkpt>
      <trkpt lat="44.5258" lon="2.83339">
        <ele>520.21</ele>
        <time>2012-08-10T12:01:21Z</time>
      </trkpt>
      <trkpt lat="44.52576" lon="2.83312">
        <ele>519.25</ele>
        <time>2012-08-10T12:01:33Z</time>
      </trkpt>
      <trkpt lat="44.52568" lon="2.83286">
        <ele>518.29</ele>
        <time>2012-08-10T12:01:42Z</time>
      </trkpt>
      <trkpt lat="44.52548" lon="2.83204">
        <ele>513</ele>
        <time>2012-08-10T12:01:53Z</time>
      </trkpt>
      <trkpt lat="44.52545" lon="2.83198">
        <ele>513</ele>
        <time>2012-08-10T12:01:54Z</time>
      </trkpt>
      <trkpt lat="44.52543" lon="2.83194">
        <ele>512.52</ele>
        <time>2012-08-10T12:01:55Z</time>
      </trkpt>
      <trkpt lat="44.52528" lon="2.83152">
        <ele>508.67</ele>
        <time>2012-08-10T12:02:05Z</time>
      </trkpt>
      <trkpt lat="44.52527" lon="2.83146">
        <ele>508.19</ele>
        <time>2012-08-10T12:02:06Z</time>
      </trkpt>
      <trkpt lat="44.52526" lon="2.83139">
        <ele>507.71</ele>
        <time>2012-08-10T12:02:07Z</time>
      </trkpt>
      <trkpt lat="44.52524" lon="2.83132">
        <ele>507.23</ele>
        <time>2012-08-10T12:02:08Z</time>
      </trkpt>
      <trkpt lat="44.52522" lon="2.83125">
        <ele>506.75</ele>
        <time>2012-08-10T12:02:09Z</time>
      </trkpt>
      <trkpt lat="44.52507" lon="2.8309">
        <ele>501.95</ele>
        <time>2012-08-10T12:02:18Z</time>
      </trkpt>
      <trkpt lat="44.52505" lon="2.83087">
        <ele>501.46</ele>
        <time>2012-08-10T12:02:19Z</time>
      </trkpt>
      <trkpt lat="44.52502" lon="2.83085">
        <ele>500.98</ele>
        <time>2012-08-10T12:02:20Z</time>
      </trkpt>
      <trkpt lat="44.5247" lon="2.8307">
        <ele>494.26</ele>
        <time>2012-08-10T12:02:32Z</time>
      </trkpt>
      <trkpt lat="44.52468" lon="2.83067">
        <ele>493.77</ele>
        <time>2012-08-10T12:02:33Z</time>
      </trkpt>
      <trkpt lat="44.52467" lon="2.83063">
        <ele>492.81</ele>
        <time>2012-08-10T12:02:34Z</time>
      </trkpt>
      <trkpt lat="44.52452" lon="2.83013">
        <ele>487.53</ele>
        <time>2012-08-10T12:02:46Z</time>
      </trkpt>
      <trkpt lat="44.52443" lon="2.82979">
        <ele>484.16</ele>
        <time>2012-08-10T12:02:58Z</time>
      </trkpt>
      <trkpt lat="44.52439" lon="2.82962">
        <ele>484.16</ele>
        <time>2012-08-10T12:03:01Z</time>
      </trkpt>
      <trkpt lat="44.52431" lon="2.82917">
        <ele>480.8</ele>
        <time>2012-08-10T12:03:11Z</time>
      </trkpt>
      <trkpt lat="44.52431" lon="2.82912">
        <ele>480.32</ele>
        <time>2012-08-10T12:03:13Z</time>
      </trkpt>
      <trkpt lat="44.5243" lon="2.82909">
        <ele>480.32</ele>
        <time>2012-08-10T12:03:14Z</time>
      </trkpt>
      <trkpt lat="44.52424" lon="2.82867">
        <ele>475.99</ele>
        <time>2012-08-10T12:03:26Z</time>
      </trkpt>
      <trkpt lat="44.52424" lon="2.82858">
        <ele>475.03</ele>
        <time>2012-08-10T12:03:28Z</time>
      </trkpt>
      <trkpt lat="44.52422" lon="2.82855">
        <ele>475.03</ele>
        <time>2012-08-10T12:03:29Z</time>
      </trkpt>
      <trkpt lat="44.52419" lon="2.82852">
        <ele>474.55</ele>
        <time>2012-08-10T12:03:30Z</time>
      </trkpt>
      <trkpt lat="44.52395" lon="2.82831">
        <ele>469.26</ele>
        <time>2012-08-10T12:03:40Z</time>
      </trkpt>
      <trkpt lat="44.52395" lon="2.82828">
        <ele>468.3</ele>
        <time>2012-08-10T12:03:41Z</time>
      </trkpt>
      <trkpt lat="44.52406" lon="2.82789">
        <ele>463.01</ele>
        <time>2012-08-10T12:03:51Z</time>
      </trkpt>
      <trkpt lat="44.52413" lon="2.82749">
        <ele>458.69</ele>
        <time>2012-08-10T12:04:01Z</time>
      </trkpt>
      <trkpt lat="44.52412" lon="2.82746">
        <ele>458.21</ele>
        <time>2012-08-10T12:04:02Z</time>
      </trkpt>
      <trkpt lat="44.52411" lon="2.82745">
        <ele>457.72</ele>
        <time>2012-08-10T12:04:03Z</time>
      </trkpt>
      <trkpt lat="44.52409" lon="2.82744">
        <ele>457.24</ele>
        <time>2012-08-10T12:04:04Z</time>
      </trkpt>
      <trkpt lat="44.52406" lon="2.82743">
        <ele>456.76</ele>
        <time>2012-08-10T12:04:05Z</time>
      </trkpt>
      <trkpt lat="44.52404" lon="2.82743">
        <ele>456.28</ele>
        <time>2012-08-10T12:04:06Z</time>
      </trkpt>
      <trkpt lat="44.52402" lon="2.82741">
        <ele>455.8</ele>
        <time>2012-08-10T12:04:07Z</time>
      </trkpt>
      <trkpt lat="44.52401" lon="2.82738">
        <ele>455.32</ele>
        <time>2012-08-10T12:04:08Z</time>
      </trkpt>
      <trkpt lat="44.52401" lon="2.82734">
        <ele>454.84</ele>
        <time>2012-08-10T12:04:09Z</time>
      </trkpt>
      <trkpt lat="44.52401" lon="2.82729">
        <ele>454.36</ele>
        <time>2012-08-10T12:04:10Z</time>
      </trkpt>
      <trkpt lat="44.524" lon="2.82723">
        <ele>454.36</ele>
        <time>2012-08-10T12:04:11Z</time>
      </trkpt>
      <trkpt lat="44.52399" lon="2.82719">
        <ele>453.88</ele>
        <time>2012-08-10T12:04:12Z</time>
      </trkpt>
      <trkpt lat="44.52397" lon="2.82714">
        <ele>452.92</ele>
        <time>2012-08-10T12:04:13Z</time>
      </trkpt>
      <trkpt lat="44.52395" lon="2.82709">
        <ele>451.96</ele>
        <time>2012-08-10T12:04:14Z</time>
      </trkpt>
      <trkpt lat="44.52387" lon="2.82695">
        <ele>450.03</ele>
        <time>2012-08-10T12:04:17Z</time>
      </trkpt>
      <trkpt lat="44.52371" lon="2.8267">
        <ele>445.71</ele>
        <time>2012-08-10T12:04:25Z</time>
      </trkpt>
      <trkpt lat="44.52337" lon="2.82634">
        <ele>439.94</ele>
        <time>2012-08-10T12:04:36Z</time>
      </trkpt>
      <trkpt lat="44.52312" lon="2.82603">
        <ele>436.58</ele>
        <time>2012-08-10T12:04:44Z</time>
      </trkpt>
      <trkpt lat="44.52309" lon="2.82599">
        <ele>436.58</ele>
        <time>2012-08-10T12:04:45Z</time>
      </trkpt>
      <trkpt lat="44.52304" lon="2.8259">
        <ele>436.1</ele>
        <time>2012-08-10T12:04:47Z</time>
      </trkpt>
      <trkpt lat="44.52297" lon="2.82577">
        <ele>434.65</ele>
        <time>2012-08-10T12:04:50Z</time>
      </trkpt>
      <trkpt lat="44.52248" lon="2.82508">
        <ele>428.89</ele>
        <time>2012-08-10T12:05:00Z</time>
      </trkpt>
      <trkpt lat="44.52179" lon="2.82379">
        <ele>421.19</ele>
        <time>2012-08-10T12:05:12Z</time>
      </trkpt>
      <trkpt lat="44.52104" lon="2.82215">
        <ele>412.06</ele>
        <time>2012-08-10T12:05:26Z</time>
      </trkpt>
      <trkpt lat="44.52037" lon="2.8207">
        <ele>401.49</ele>
        <time>2012-08-10T12:05:40Z</time>
      </trkpt>
      <trkpt lat="44.51985" lon="2.81992">
        <ele>396.2</ele>
        <time>2012-08-10T12:05:50Z</time>
      </trkpt>
      <trkpt lat="44.51925" lon="2.81941">
        <ele>392.36</ele>
        <time>2012-08-10T12:06:00Z</time>
      </trkpt>
      <trkpt lat="44.51863" lon="2.81925">
        <ele>388.51</ele>
        <time>2012-08-10T12:06:10Z</time>
      </trkpt>
      <trkpt lat="44.51782" lon="2.81936">
        <ele>383.7</ele>
        <time>2012-08-10T12:06:22Z</time>
      </trkpt>
      <trkpt lat="44.51775" lon="2.81936">
        <ele>383.22</ele>
        <time>2012-08-10T12:06:23Z</time>
      </trkpt>
      <trkpt lat="44.51769" lon="2.81934">
        <ele>382.74</ele>
        <time>2012-08-10T12:06:24Z</time>
      </trkpt>
      <trkpt lat="44.51701" lon="2.81907">
        <ele>377.94</ele>
        <time>2012-08-10T12:06:35Z</time>
      </trkpt>
      <trkpt lat="44.51672" lon="2.81894">
        <ele>375.05</ele>
        <time>2012-08-10T12:06:40Z</time>
      </trkpt>
      <trkpt lat="44.51666" lon="2.81889">
        <ele>374.57</ele>
        <time>2012-08-10T12:06:41Z</time>
      </trkpt>
      <trkpt lat="44.51662" lon="2.81882">
        <ele>374.09</ele>
        <time>2012-08-10T12:06:42Z</time>
      </trkpt>
      <trkpt lat="44.51657" lon="2.81875">
        <ele>373.61</ele>
        <time>2012-08-10T12:06:43Z</time>
      </trkpt>
      <trkpt lat="44.51654" lon="2.81866">
        <ele>373.13</ele>
        <time>2012-08-10T12:06:44Z</time>
      </trkpt>
      <trkpt lat="44.51651" lon="2.81856">
        <ele>372.17</ele>
        <time>2012-08-10T12:06:45Z</time>
      </trkpt>
      <trkpt lat="44.51648" lon="2.81846">
        <ele>371.69</ele>
        <time>2012-08-10T12:06:46Z</time>
      </trkpt>
      <trkpt lat="44.51647" lon="2.81835">
        <ele>371.21</ele>
        <time>2012-08-10T12:06:47Z</time>
      </trkpt>
      <trkpt lat="44.51646" lon="2.81824">
        <ele>370.24</ele>
        <time>2012-08-10T12:06:48Z</time>
      </trkpt>
      <trkpt lat="44.51638" lon="2.8167">
        <ele>366.88</ele>
        <time>2012-08-10T12:07:02Z</time>
      </trkpt>
      <trkpt lat="44.5163" lon="2.81624">
        <ele>366.88</ele>
        <time>2012-08-10T12:07:08Z</time>
      </trkpt>
      <trkpt lat="44.51628" lon="2.81619">
        <ele>366.88</ele>
        <time>2012-08-10T12:07:09Z</time>
      </trkpt>
      <trkpt lat="44.51621" lon="2.81607">
        <ele>366.88</ele>
        <time>2012-08-10T12:07:12Z</time>
      </trkpt>
      <trkpt lat="44.51618" lon="2.81604">
        <ele>366.88</ele>
        <time>2012-08-10T12:07:13Z</time>
      </trkpt>
      <trkpt lat="44.51616" lon="2.81602">
        <ele>367.36</ele>
        <time>2012-08-10T12:07:14Z</time>
      </trkpt>
      <trkpt lat="44.51592" lon="2.81561">
        <ele>368.8</ele>
        <time>2012-08-10T12:07:28Z</time>
      </trkpt>
      <trkpt lat="44.51582" lon="2.81493">
        <ele>368.32</ele>
        <time>2012-08-10T12:07:45Z</time>
      </trkpt>
      <trkpt lat="44.5158" lon="2.81434">
        <ele>368.32</ele>
        <time>2012-08-10T12:07:59Z</time>
      </trkpt>
      <trkpt lat="44.51582" lon="2.81417">
        <ele>368.8</ele>
        <time>2012-08-10T12:08:06Z</time>
      </trkpt>
      <trkpt lat="44.51581" lon="2.81413">
        <ele>369.76</ele>
        <time>2012-08-10T12:08:09Z</time>
      </trkpt>
      <trkpt lat="44.5158" lon="2.81412">
        <ele>369.76</ele>
        <time>2012-08-10T12:08:10Z</time>
      </trkpt>
      <trkpt lat="44.51579" lon="2.81411">
        <ele>369.76</ele>
        <time>2012-08-10T12:08:11Z</time>
      </trkpt>
      <trkpt lat="44.51576" lon="2.81408">
        <ele>369.76</ele>
        <time>2012-08-10T12:08:15Z</time>
      </trkpt>
      <trkpt lat="44.51575" lon="2.81409">
        <ele>369.76</ele>
        <time>2012-08-10T12:08:16Z</time>
      </trkpt>
      <trkpt lat="44.51573" lon="2.8141">
        <ele>369.76</ele>
        <time>2012-08-10T12:08:17Z</time>
      </trkpt>
      <trkpt lat="44.5157" lon="2.81411">
        <ele>369.28</ele>
        <time>2012-08-10T12:08:18Z</time>
      </trkpt>
      <trkpt lat="44.51567" lon="2.81413">
        <ele>369.28</ele>
        <time>2012-08-10T12:08:19Z</time>
      </trkpt>
      <trkpt lat="44.51564" lon="2.81414">
        <ele>369.76</ele>
        <time>2012-08-10T12:08:20Z</time>
      </trkpt>
      <trkpt lat="44.51561" lon="2.81414">
        <ele>369.76</ele>
        <time>2012-08-10T12:08:21Z</time>
      </trkpt>
      <trkpt lat="44.51516" lon="2.81418">
        <ele>371.21</ele>
        <time>2012-08-10T12:08:36Z</time>
      </trkpt>
      <trkpt lat="44.51473" lon="2.81428">
        <ele>370.73</ele>
        <time>2012-08-10T12:08:49Z</time>
      </trkpt>
      <trkpt lat="44.51463" lon="2.8145">
        <ele>370.73</ele>
        <time>2012-08-10T12:08:56Z</time>
      </trkpt>
      <trkpt lat="44.51469" lon="2.81447">
        <ele>370.73</ele>
        <time>2012-08-10T12:08:59Z</time>
      </trkpt>
      <trkpt lat="44.51489" lon="2.81417">
        <ele>371.69</ele>
        <time>2012-08-10T12:09:13Z</time>
      </trkpt>
      <trkpt lat="44.51491" lon="2.81414">
        <ele>373.13</ele>
        <time>2012-08-10T12:09:23Z</time>
      </trkpt>
      <trkpt lat="44.51492" lon="2.81413">
        <ele>373.61</ele>
        <time>2012-08-10T12:09:47Z</time>
      </trkpt>
      <trkpt lat="44.51491" lon="2.81411">
        <ele>374.09</ele>
        <time>2012-08-10T12:10:16Z</time>
      </trkpt>
      <trkpt lat="44.5149" lon="2.8141">
        <ele>375.53</ele>
        <time>2012-08-10T12:10:48Z</time>
      </trkpt>
      <trkpt lat="44.51491" lon="2.81409">
        <ele>375.05</ele>
        <time>2012-08-10T12:11:17Z</time>
      </trkpt>
      <trkpt lat="44.5149" lon="2.8141">
        <ele>376.01</ele>
        <time>2012-08-10T12:11:47Z</time>
      </trkpt>
      <trkpt lat="44.51492" lon="2.8141">
        <ele>375.53</ele>
        <time>2012-08-10T12:12:20Z</time>
      </trkpt>
      <trkpt lat="44.51491" lon="2.8141">
        <ele>376.97</ele>
        <time>2012-08-10T12:12:51Z</time>
      </trkpt>
      <trkpt lat="44.51492" lon="2.81411">
        <ele>377.94</ele>
        <time>2012-08-10T12:13:22Z</time>
      </trkpt>
      <trkpt lat="44.51492" lon="2.81412">
        <ele>378.9</ele>
        <time>2012-08-10T12:13:53Z</time>
      </trkpt>
      <trkpt lat="44.5149" lon="2.81411">
        <ele>380.82</ele>
        <time>2012-08-10T12:14:27Z</time>
      </trkpt>
      <trkpt lat="44.51491" lon="2.8141">
        <ele>380.82</ele>
        <time>2012-08-10T12:14:59Z</time>
      </trkpt>
      <trkpt lat="44.51492" lon="2.81408">
        <ele>380.82</ele>
        <time>2012-08-10T12:15:32Z</time>
      </trkpt>
      <trkpt lat="44.51491" lon="2.8141">
        <ele>382.26</ele>
        <time>2012-08-10T12:15:58Z</time>
      </trkpt>
      <trkpt lat="44.51493" lon="2.8141">
        <ele>382.26</ele>
        <time>2012-08-10T12:16:27Z</time>
      </trkpt>
      <trkpt lat="44.51493" lon="2.81409">
        <ele>382.26</ele>
        <time>2012-08-10T12:16:56Z</time>
      </trkpt>
      <trkpt lat="44.51492" lon="2.81408">
        <ele>382.26</ele>
        <time>2012-08-10T12:17:32Z</time>
      </trkpt>
      <trkpt lat="44.51493" lon="2.81407">
        <ele>382.26</ele>
        <time>2012-08-10T12:18:13Z</time>
      </trkpt>
      <trkpt lat="44.51492" lon="2.81407">
        <ele>383.22</ele>
        <time>2012-08-10T12:18:47Z</time>
      </trkpt>
      <trkpt lat="44.51493" lon="2.81408">
        <ele>382.26</ele>
        <time>2012-08-10T12:19:19Z</time>
      </trkpt>
      <trkpt lat="44.51494" lon="2.81408">
        <ele>382.74</ele>
        <time>2012-08-10T12:19:44Z</time>
      </trkpt>
      <trkpt lat="44.51493" lon="2.81408">
        <ele>383.22</ele>
        <time>2012-08-10T12:20:14Z</time>
      </trkpt>
      <trkpt lat="44.51494" lon="2.81408">
        <ele>383.22</ele>
        <time>2012-08-10T12:20:46Z</time>
      </trkpt>
      <trkpt lat="44.51495" lon="2.81406">
        <ele>383.7</ele>
        <time>2012-08-10T12:21:21Z</time>
      </trkpt>
      <trkpt lat="44.51495" lon="2.81408">
        <ele>386.59</ele>
        <time>2012-08-10T12:21:40Z</time>
      </trkpt>
      <trkpt lat="44.51471" lon="2.81435">
        <ele>392.36</ele>
        <time>2012-08-10T12:21:53Z</time>
      </trkpt>
      <trkpt lat="44.51458" lon="2.81485">
        <ele>392.36</ele>
        <time>2012-08-10T12:22:05Z</time>
      </trkpt>
      <trkpt lat="44.51451" lon="2.81529">
        <ele>383.22</ele>
        <time>2012-08-10T12:22:16Z</time>
      </trkpt>
      <trkpt lat="44.51451" lon="2.81531">
        <ele>383.22</ele>
        <time>2012-08-10T12:22:17Z</time>
      </trkpt>
      <trkpt lat="44.51436" lon="2.81571">
        <ele>384.18</ele>
        <time>2012-08-10T12:22:29Z</time>
      </trkpt>
      <trkpt lat="44.51411" lon="2.81641">
        <ele>380.82</ele>
        <time>2012-08-10T12:22:44Z</time>
      </trkpt>
      <trkpt lat="44.51406" lon="2.81646">
        <ele>379.86</ele>
        <time>2012-08-10T12:22:45Z</time>
      </trkpt>
      <trkpt lat="44.51374" lon="2.81659">
        <ele>370.24</ele>
        <time>2012-08-10T12:22:54Z</time>
      </trkpt>
      <trkpt lat="44.51337" lon="2.81655">
        <ele>363.04</ele>
        <time>2012-08-10T12:23:05Z</time>
      </trkpt>
      <trkpt lat="44.51256" lon="2.81627">
        <ele>357.75</ele>
        <time>2012-08-10T12:23:21Z</time>
      </trkpt>
      <trkpt lat="44.51226" lon="2.81616">
        <ele>355.34</ele>
        <time>2012-08-10T12:23:27Z</time>
      </trkpt>
      <trkpt lat="44.51223" lon="2.81612">
        <ele>354.86</ele>
        <time>2012-08-10T12:23:28Z</time>
      </trkpt>
      <trkpt lat="44.51221" lon="2.81606">
        <ele>354.86</ele>
        <time>2012-08-10T12:23:29Z</time>
      </trkpt>
      <trkpt lat="44.51219" lon="2.81599">
        <ele>354.38</ele>
        <time>2012-08-10T12:23:30Z</time>
      </trkpt>
      <trkpt lat="44.51218" lon="2.81592">
        <ele>353.9</ele>
        <time>2012-08-10T12:23:31Z</time>
      </trkpt>
      <trkpt lat="44.51216" lon="2.81585">
        <ele>353.9</ele>
        <time>2012-08-10T12:23:32Z</time>
      </trkpt>
      <trkpt lat="44.51211" lon="2.81566">
        <ele>353.42</ele>
        <time>2012-08-10T12:23:35Z</time>
      </trkpt>
      <trkpt lat="44.51207" lon="2.81547">
        <ele>352.94</ele>
        <time>2012-08-10T12:23:38Z</time>
      </trkpt>
      <trkpt lat="44.51206" lon="2.81541">
        <ele>352.46</ele>
        <time>2012-08-10T12:23:39Z</time>
      </trkpt>
      <trkpt lat="44.51204" lon="2.81534">
        <ele>351.98</ele>
        <time>2012-08-10T12:23:40Z</time>
      </trkpt>
      <trkpt lat="44.51172" lon="2.81422">
        <ele>350.54</ele>
        <time>2012-08-10T12:23:57Z</time>
      </trkpt>
      <trkpt lat="44.51165" lon="2.81402">
        <ele>350.06</ele>
        <time>2012-08-10T12:24:00Z</time>
      </trkpt>
      <trkpt lat="44.51162" lon="2.81395">
        <ele>349.58</ele>
        <time>2012-08-10T12:24:01Z</time>
      </trkpt>
      <trkpt lat="44.51129" lon="2.81282">
        <ele>349.58</ele>
        <time>2012-08-10T12:24:18Z</time>
      </trkpt>
      <trkpt lat="44.51087" lon="2.81167">
        <ele>348.13</ele>
        <time>2012-08-10T12:24:35Z</time>
      </trkpt>
      <trkpt lat="44.51085" lon="2.8116">
        <ele>348.62</ele>
        <time>2012-08-10T12:24:36Z</time>
      </trkpt>
      <trkpt lat="44.51056" lon="2.81066">
        <ele>348.62</ele>
        <time>2012-08-10T12:24:51Z</time>
      </trkpt>
      <trkpt lat="44.51034" lon="2.81">
        <ele>347.65</ele>
        <time>2012-08-10T12:25:01Z</time>
      </trkpt>
      <trkpt lat="44.51019" lon="2.80969">
        <ele>347.17</ele>
        <time>2012-08-10T12:25:06Z</time>
      </trkpt>
      <trkpt lat="44.51016" lon="2.80964">
        <ele>346.69</ele>
        <time>2012-08-10T12:25:07Z</time>
      </trkpt>
      <trkpt lat="44.51004" lon="2.80952">
        <ele>346.21</ele>
        <time>2012-08-10T12:25:10Z</time>
      </trkpt>
      <trkpt lat="44.50952" lon="2.80893">
        <ele>343.33</ele>
        <time>2012-08-10T12:25:23Z</time>
      </trkpt>
      <trkpt lat="44.50906" lon="2.80854">
        <ele>341.41</ele>
        <time>2012-08-10T12:25:35Z</time>
      </trkpt>
      <trkpt lat="44.50869" lon="2.80825">
        <ele>343.33</ele>
        <time>2012-08-10T12:25:46Z</time>
      </trkpt>
      <trkpt lat="44.50865" lon="2.80822">
        <ele>343.81</ele>
        <time>2012-08-10T12:25:47Z</time>
      </trkpt>
      <trkpt lat="44.50862" lon="2.80818">
        <ele>343.81</ele>
        <time>2012-08-10T12:25:48Z</time>
      </trkpt>
      <trkpt lat="44.50859" lon="2.80814">
        <ele>344.29</ele>
        <time>2012-08-10T12:25:49Z</time>
      </trkpt>
      <trkpt lat="44.50857" lon="2.80811">
        <ele>344.77</ele>
        <time>2012-08-10T12:25:50Z</time>
      </trkpt>
      <trkpt lat="44.50822" lon="2.80755">
        <ele>347.65</ele>
        <time>2012-08-10T12:26:04Z</time>
      </trkpt>
      <trkpt lat="44.50795" lon="2.80697">
        <ele>350.06</ele>
        <time>2012-08-10T12:26:17Z</time>
      </trkpt>
      <trkpt lat="44.50778" lon="2.80665">
        <ele>352.46</ele>
        <time>2012-08-10T12:26:24Z</time>
      </trkpt>
      <trkpt lat="44.50759" lon="2.80618">
        <ele>350.06</ele>
        <time>2012-08-10T12:26:35Z</time>
      </trkpt>
      <trkpt lat="44.50754" lon="2.80608">
        <ele>349.58</ele>
        <time>2012-08-10T12:26:38Z</time>
      </trkpt>
      <trkpt lat="44.50737" lon="2.80569">
        <ele>347.65</ele>
        <time>2012-08-10T12:26:51Z</time>
      </trkpt>
      <trkpt lat="44.50734" lon="2.80557">
        <ele>349.1</ele>
        <time>2012-08-10T12:26:54Z</time>
      </trkpt>
      <trkpt lat="44.50733" lon="2.80555">
        <ele>349.1</ele>
        <time>2012-08-10T12:26:55Z</time>
      </trkpt>
      <trkpt lat="44.50733" lon="2.80552">
        <ele>349.1</ele>
        <time>2012-08-10T12:26:56Z</time>
      </trkpt>
      <trkpt lat="44.50733" lon="2.8055">
        <ele>348.62</ele>
        <time>2012-08-10T12:26:57Z</time>
      </trkpt>
      <trkpt lat="44.50732" lon="2.80546">
        <ele>348.13</ele>
        <time>2012-08-10T12:26:58Z</time>
      </trkpt>
      <trkpt lat="44.50731" lon="2.80543">
        <ele>348.13</ele>
        <time>2012-08-10T12:26:59Z</time>
      </trkpt>
      <trkpt lat="44.5073" lon="2.80539">
        <ele>347.65</ele>
        <time>2012-08-10T12:27:00Z</time>
      </trkpt>
      <trkpt lat="44.50728" lon="2.80535">
        <ele>347.65</ele>
        <time>2012-08-10T12:27:01Z</time>
      </trkpt>
      <trkpt lat="44.50727" lon="2.8053">
        <ele>347.65</ele>
        <time>2012-08-10T12:27:02Z</time>
      </trkpt>
      <trkpt lat="44.50717" lon="2.80474">
        <ele>351.98</ele>
        <time>2012-08-10T12:27:13Z</time>
      </trkpt>
      <trkpt lat="44.5072" lon="2.80413">
        <ele>350.06</ele>
        <time>2012-08-10T12:27:23Z</time>
      </trkpt>
      <trkpt lat="44.5072" lon="2.80393">
        <ele>349.1</ele>
        <time>2012-08-10T12:27:26Z</time>
      </trkpt>
      <trkpt lat="44.5072" lon="2.80387">
        <ele>349.1</ele>
        <time>2012-08-10T12:27:27Z</time>
      </trkpt>
      <trkpt lat="44.50718" lon="2.8036">
        <ele>349.1</ele>
        <time>2012-08-10T12:27:31Z</time>
      </trkpt>
      <trkpt lat="44.50716" lon="2.80354">
        <ele>349.1</ele>
        <time>2012-08-10T12:27:32Z</time>
      </trkpt>
      <trkpt lat="44.50715" lon="2.80349">
        <ele>348.62</ele>
        <time>2012-08-10T12:27:33Z</time>
      </trkpt>
      <trkpt lat="44.5069" lon="2.80297">
        <ele>351.02</ele>
        <time>2012-08-10T12:27:45Z</time>
      </trkpt>
      <trkpt lat="44.50668" lon="2.80241">
        <ele>351.5</ele>
        <time>2012-08-10T12:27:57Z</time>
      </trkpt>
      <trkpt lat="44.50668" lon="2.8022">
        <ele>350.54</ele>
        <time>2012-08-10T12:28:03Z</time>
      </trkpt>
      <trkpt lat="44.50667" lon="2.80218">
        <ele>350.54</ele>
        <time>2012-08-10T12:28:04Z</time>
      </trkpt>
      <trkpt lat="44.50668" lon="2.80215">
        <ele>349.58</ele>
        <time>2012-08-10T12:28:17Z</time>
      </trkpt>
      <trkpt lat="44.5067" lon="2.80214">
        <ele>350.06</ele>
        <time>2012-08-10T12:28:44Z</time>
      </trkpt>
      <trkpt lat="44.5067" lon="2.80211">
        <ele>350.54</ele>
        <time>2012-08-10T12:29:01Z</time>
      </trkpt>
      <trkpt lat="44.50667" lon="2.802">
        <ele>350.54</ele>
        <time>2012-08-10T12:29:11Z</time>
      </trkpt>
      <trkpt lat="44.50669" lon="2.80198">
        <ele>351.5</ele>
        <time>2012-08-10T12:29:28Z</time>
      </trkpt>
      <trkpt lat="44.50669" lon="2.80198">
        <ele>351.98</ele>
        <time>2012-08-10T12:29:49Z</time>
      </trkpt>
      <trkpt lat="44.50669" lon="2.80201">
        <ele>352.46</ele>
        <time>2012-08-10T12:30:11Z</time>
      </trkpt>
      <trkpt lat="44.50672" lon="2.80215">
        <ele>351.98</ele>
        <time>2012-08-10T12:30:19Z</time>
      </trkpt>
      <trkpt lat="44.50701" lon="2.80178">
        <ele>354.86</ele>
        <time>2012-08-10T12:30:33Z</time>
      </trkpt>
      <trkpt lat="44.5072" lon="2.8011">
        <ele>354.86</ele>
        <time>2012-08-10T12:30:47Z</time>
      </trkpt>
      <trkpt lat="44.50731" lon="2.80033">
        <ele>354.38</ele>
        <time>2012-08-10T12:31:01Z</time>
      </trkpt>
      <trkpt lat="44.50727" lon="2.79949">
        <ele>357.27</ele>
        <time>2012-08-10T12:31:17Z</time>
      </trkpt>
      <trkpt lat="44.50721" lon="2.79859">
        <ele>358.23</ele>
        <time>2012-08-10T12:31:35Z</time>
      </trkpt>
      <trkpt lat="44.50733" lon="2.79801">
        <ele>359.67</ele>
        <time>2012-08-10T12:31:47Z</time>
      </trkpt>
      <trkpt lat="44.50743" lon="2.79736">
        <ele>358.23</ele>
        <time>2012-08-10T12:32:00Z</time>
      </trkpt>
      <trkpt lat="44.50758" lon="2.79678">
        <ele>358.71</ele>
        <time>2012-08-10T12:32:11Z</time>
      </trkpt>
      <trkpt lat="44.50762" lon="2.79673">
        <ele>358.71</ele>
        <time>2012-08-10T12:32:12Z</time>
      </trkpt>
      <trkpt lat="44.50765" lon="2.79667">
        <ele>359.19</ele>
        <time>2012-08-10T12:32:13Z</time>
      </trkpt>
      <trkpt lat="44.50776" lon="2.79651">
        <ele>358.71</ele>
        <time>2012-08-10T12:32:16Z</time>
      </trkpt>
      <trkpt lat="44.50815" lon="2.79599">
        <ele>358.71</ele>
        <time>2012-08-10T12:32:26Z</time>
      </trkpt>
      <trkpt lat="44.50821" lon="2.79586">
        <ele>358.71</ele>
        <time>2012-08-10T12:32:28Z</time>
      </trkpt>
      <trkpt lat="44.50824" lon="2.7958">
        <ele>358.71</ele>
        <time>2012-08-10T12:32:29Z</time>
      </trkpt>
      <trkpt lat="44.50827" lon="2.79573">
        <ele>358.23</ele>
        <time>2012-08-10T12:32:30Z</time>
      </trkpt>
      <trkpt lat="44.50843" lon="2.79493">
        <ele>357.75</ele>
        <time>2012-08-10T12:32:42Z</time>
      </trkpt>
      <trkpt lat="44.50853" lon="2.79433">
        <ele>358.71</ele>
        <time>2012-08-10T12:32:54Z</time>
      </trkpt>
      <trkpt lat="44.50857" lon="2.7938">
        <ele>356.79</ele>
        <time>2012-08-10T12:33:07Z</time>
      </trkpt>
      <trkpt lat="44.50864" lon="2.79335">
        <ele>354.86</ele>
        <time>2012-08-10T12:33:20Z</time>
      </trkpt>
      <trkpt lat="44.50883" lon="2.79291">
        <ele>354.38</ele>
        <time>2012-08-10T12:33:31Z</time>
      </trkpt>
      <trkpt lat="44.509" lon="2.79274">
        <ele>352.94</ele>
        <time>2012-08-10T12:33:35Z</time>
      </trkpt>
      <trkpt lat="44.50909" lon="2.79268">
        <ele>352.94</ele>
        <time>2012-08-10T12:33:37Z</time>
      </trkpt>
      <trkpt lat="44.50918" lon="2.79261">
        <ele>352.94</ele>
        <time>2012-08-10T12:33:39Z</time>
      </trkpt>
      <trkpt lat="44.50938" lon="2.7924">
        <ele>351.98</ele>
        <time>2012-08-10T12:33:44Z</time>
      </trkpt>
      <trkpt lat="44.5099" lon="2.79183">
        <ele>350.54</ele>
        <time>2012-08-10T12:33:55Z</time>
      </trkpt>
      <trkpt lat="44.51045" lon="2.79138">
        <ele>350.06</ele>
        <time>2012-08-10T12:34:05Z</time>
      </trkpt>
      <trkpt lat="44.51066" lon="2.7911">
        <ele>350.06</ele>
        <time>2012-08-10T12:34:10Z</time>
      </trkpt>
      <trkpt lat="44.5107" lon="2.79103">
        <ele>349.58</ele>
        <time>2012-08-10T12:34:11Z</time>
      </trkpt>
      <trkpt lat="44.51099" lon="2.79048">
        <ele>348.13</ele>
        <time>2012-08-10T12:34:18Z</time>
      </trkpt>
      <trkpt lat="44.51103" lon="2.79038">
        <ele>348.13</ele>
        <time>2012-08-10T12:34:19Z</time>
      </trkpt>
      <trkpt lat="44.51123" lon="2.78974">
        <ele>345.25</ele>
        <time>2012-08-10T12:34:25Z</time>
      </trkpt>
      <trkpt lat="44.51127" lon="2.78964">
        <ele>344.77</ele>
        <time>2012-08-10T12:34:26Z</time>
      </trkpt>
      <trkpt lat="44.51133" lon="2.78955">
        <ele>344.29</ele>
        <time>2012-08-10T12:34:27Z</time>
      </trkpt>
      <trkpt lat="44.5114" lon="2.78947">
        <ele>343.81</ele>
        <time>2012-08-10T12:34:28Z</time>
      </trkpt>
      <trkpt lat="44.51148" lon="2.78941">
        <ele>343.81</ele>
        <time>2012-08-10T12:34:29Z</time>
      </trkpt>
      <trkpt lat="44.51157" lon="2.78937">
        <ele>343.33</ele>
        <time>2012-08-10T12:34:30Z</time>
      </trkpt>
      <trkpt lat="44.51167" lon="2.78936">
        <ele>342.85</ele>
        <time>2012-08-10T12:34:31Z</time>
      </trkpt>
      <trkpt lat="44.51176" lon="2.78935">
        <ele>342.37</ele>
        <time>2012-08-10T12:34:32Z</time>
      </trkpt>
      <trkpt lat="44.51218" lon="2.78926">
        <ele>339.96</ele>
        <time>2012-08-10T12:34:37Z</time>
      </trkpt>
      <trkpt lat="44.51226" lon="2.78921">
        <ele>339.48</ele>
        <time>2012-08-10T12:34:38Z</time>
      </trkpt>
      <trkpt lat="44.51293" lon="2.78855">
        <ele>340.44</ele>
        <time>2012-08-10T12:34:50Z</time>
      </trkpt>
      <trkpt lat="44.51329" lon="2.7881">
        <ele>340.44</ele>
        <time>2012-08-10T12:34:59Z</time>
      </trkpt>
      <trkpt lat="44.51341" lon="2.78798">
        <ele>341.41</ele>
        <time>2012-08-10T12:35:02Z</time>
      </trkpt>
      <trkpt lat="44.51396" lon="2.78775">
        <ele>341.41</ele>
        <time>2012-08-10T12:35:13Z</time>
      </trkpt>
      <trkpt lat="44.51482" lon="2.78756">
        <ele>339.48</ele>
        <time>2012-08-10T12:35:28Z</time>
      </trkpt>
      <trkpt lat="44.51571" lon="2.78713">
        <ele>339.48</ele>
        <time>2012-08-10T12:35:44Z</time>
      </trkpt>
      <trkpt lat="44.51611" lon="2.78685">
        <ele>339.48</ele>
        <time>2012-08-10T12:35:52Z</time>
      </trkpt>
      <trkpt lat="44.51661" lon="2.78641">
        <ele>339</ele>
        <time>2012-08-10T12:36:04Z</time>
      </trkpt>
      <trkpt lat="44.51664" lon="2.78636">
        <ele>339</ele>
        <time>2012-08-10T12:36:05Z</time>
      </trkpt>
      <trkpt lat="44.51668" lon="2.7863">
        <ele>339</ele>
        <time>2012-08-10T12:36:06Z</time>
      </trkpt>
      <trkpt lat="44.51693" lon="2.78537">
        <ele>339.48</ele>
        <time>2012-08-10T12:36:19Z</time>
      </trkpt>
      <trkpt lat="44.51694" lon="2.78531">
        <ele>339</ele>
        <time>2012-08-10T12:36:20Z</time>
      </trkpt>
      <trkpt lat="44.51696" lon="2.78525">
        <ele>339</ele>
        <time>2012-08-10T12:36:21Z</time>
      </trkpt>
      <trkpt lat="44.51697" lon="2.78519">
        <ele>339</ele>
        <time>2012-08-10T12:36:22Z</time>
      </trkpt>
      <trkpt lat="44.51698" lon="2.78512">
        <ele>339</ele>
        <time>2012-08-10T12:36:23Z</time>
      </trkpt>
      <trkpt lat="44.51699" lon="2.78505">
        <ele>339</ele>
        <time>2012-08-10T12:36:24Z</time>
      </trkpt>
      <trkpt lat="44.51701" lon="2.78498">
        <ele>338.52</ele>
        <time>2012-08-10T12:36:25Z</time>
      </trkpt>
      <trkpt lat="44.51706" lon="2.7847">
        <ele>338.04</ele>
        <time>2012-08-10T12:36:29Z</time>
      </trkpt>
      <trkpt lat="44.51708" lon="2.78463">
        <ele>338.04</ele>
        <time>2012-08-10T12:36:30Z</time>
      </trkpt>
      <trkpt lat="44.51717" lon="2.78418">
        <ele>338.04</ele>
        <time>2012-08-10T12:36:36Z</time>
      </trkpt>
      <trkpt lat="44.51719" lon="2.78404">
        <ele>338.52</ele>
        <time>2012-08-10T12:36:38Z</time>
      </trkpt>
      <trkpt lat="44.5172" lon="2.78398">
        <ele>339</ele>
        <time>2012-08-10T12:36:39Z</time>
      </trkpt>
      <trkpt lat="44.51721" lon="2.78391">
        <ele>339</ele>
        <time>2012-08-10T12:36:40Z</time>
      </trkpt>
      <trkpt lat="44.51723" lon="2.78385">
        <ele>339</ele>
        <time>2012-08-10T12:36:41Z</time>
      </trkpt>
      <trkpt lat="44.51725" lon="2.78379">
        <ele>339</ele>
        <time>2012-08-10T12:36:42Z</time>
      </trkpt>
      <trkpt lat="44.51727" lon="2.78373">
        <ele>339.48</ele>
        <time>2012-08-10T12:36:43Z</time>
      </trkpt>
      <trkpt lat="44.51729" lon="2.78367">
        <ele>339.48</ele>
        <time>2012-08-10T12:36:44Z</time>
      </trkpt>
      <trkpt lat="44.51731" lon="2.7836">
        <ele>339.48</ele>
        <time>2012-08-10T12:36:45Z</time>
      </trkpt>
      <trkpt lat="44.5174" lon="2.78327">
        <ele>339.48</ele>
        <time>2012-08-10T12:36:50Z</time>
      </trkpt>
      <trkpt lat="44.51762" lon="2.78275">
        <ele>338.52</ele>
        <time>2012-08-10T12:37:00Z</time>
      </trkpt>
      <trkpt lat="44.51767" lon="2.78257">
        <ele>337.56</ele>
        <time>2012-08-10T12:37:03Z</time>
      </trkpt>
      <trkpt lat="44.51778" lon="2.78228">
        <ele>336.6</ele>
        <time>2012-08-10T12:37:08Z</time>
      </trkpt>
      <trkpt lat="44.51787" lon="2.7819">
        <ele>335.16</ele>
        <time>2012-08-10T12:37:14Z</time>
      </trkpt>
      <trkpt lat="44.51794" lon="2.78158">
        <ele>334.2</ele>
        <time>2012-08-10T12:37:19Z</time>
      </trkpt>
      <trkpt lat="44.518" lon="2.7814">
        <ele>333.71</ele>
        <time>2012-08-10T12:37:22Z</time>
      </trkpt>
      <trkpt lat="44.51801" lon="2.78134">
        <ele>333.23</ele>
        <time>2012-08-10T12:37:23Z</time>
      </trkpt>
      <trkpt lat="44.51803" lon="2.78129">
        <ele>332.75</ele>
        <time>2012-08-10T12:37:24Z</time>
      </trkpt>
      <trkpt lat="44.51804" lon="2.78123">
        <ele>332.27</ele>
        <time>2012-08-10T12:37:25Z</time>
      </trkpt>
      <trkpt lat="44.51807" lon="2.78117">
        <ele>332.27</ele>
        <time>2012-08-10T12:37:26Z</time>
      </trkpt>
      <trkpt lat="44.5181" lon="2.7811">
        <ele>332.27</ele>
        <time>2012-08-10T12:37:27Z</time>
      </trkpt>
      <trkpt lat="44.51812" lon="2.78104">
        <ele>332.27</ele>
        <time>2012-08-10T12:37:28Z</time>
      </trkpt>
      <trkpt lat="44.51815" lon="2.78097">
        <ele>332.27</ele>
        <time>2012-08-10T12:37:29Z</time>
      </trkpt>
      <trkpt lat="44.51846" lon="2.78026">
        <ele>334.2</ele>
        <time>2012-08-10T12:37:41Z</time>
      </trkpt>
      <trkpt lat="44.51867" lon="2.77969">
        <ele>334.68</ele>
        <time>2012-08-10T12:37:53Z</time>
      </trkpt>
      <trkpt lat="44.51894" lon="2.7789">
        <ele>331.79</ele>
        <time>2012-08-10T12:38:06Z</time>
      </trkpt>
      <trkpt lat="44.51899" lon="2.77878">
        <ele>331.31</ele>
        <time>2012-08-10T12:38:08Z</time>
      </trkpt>
      <trkpt lat="44.51902" lon="2.77872">
        <ele>331.31</ele>
        <time>2012-08-10T12:38:09Z</time>
      </trkpt>
      <trkpt lat="44.51904" lon="2.77866">
        <ele>331.31</ele>
        <time>2012-08-10T12:38:10Z</time>
      </trkpt>
      <trkpt lat="44.51908" lon="2.77853">
        <ele>331.31</ele>
        <time>2012-08-10T12:38:12Z</time>
      </trkpt>
      <trkpt lat="44.51918" lon="2.77815">
        <ele>332.27</ele>
        <time>2012-08-10T12:38:18Z</time>
      </trkpt>
      <trkpt lat="44.5192" lon="2.77808">
        <ele>332.27</ele>
        <time>2012-08-10T12:38:19Z</time>
      </trkpt>
      <trkpt lat="44.51952" lon="2.77713">
        <ele>332.27</ele>
        <time>2012-08-10T12:38:33Z</time>
      </trkpt>
      <trkpt lat="44.52001" lon="2.77598">
        <ele>333.71</ele>
        <time>2012-08-10T12:38:49Z</time>
      </trkpt>
      <trkpt lat="44.52029" lon="2.77546">
        <ele>334.68</ele>
        <time>2012-08-10T12:38:58Z</time>
      </trkpt>
      <trkpt lat="44.52035" lon="2.77536">
        <ele>335.16</ele>
        <time>2012-08-10T12:39:00Z</time>
      </trkpt>
      <trkpt lat="44.52077" lon="2.77466">
        <ele>334.2</ele>
        <time>2012-08-10T12:39:16Z</time>
      </trkpt>
      <trkpt lat="44.52107" lon="2.77396">
        <ele>337.08</ele>
        <time>2012-08-10T12:39:29Z</time>
      </trkpt>
      <trkpt lat="44.52116" lon="2.77365">
        <ele>338.04</ele>
        <time>2012-08-10T12:39:34Z</time>
      </trkpt>
      <trkpt lat="44.52118" lon="2.77359">
        <ele>337.56</ele>
        <time>2012-08-10T12:39:35Z</time>
      </trkpt>
      <trkpt lat="44.5212" lon="2.77354">
        <ele>337.08</ele>
        <time>2012-08-10T12:39:36Z</time>
      </trkpt>
      <trkpt lat="44.52129" lon="2.77302">
        <ele>336.12</ele>
        <time>2012-08-10T12:39:46Z</time>
      </trkpt>
      <trkpt lat="44.52131" lon="2.77296">
        <ele>336.12</ele>
        <time>2012-08-10T12:39:47Z</time>
      </trkpt>
      <trkpt lat="44.52171" lon="2.77201">
        <ele>338.04</ele>
        <time>2012-08-10T12:40:03Z</time>
      </trkpt>
      <trkpt lat="44.52172" lon="2.77194">
        <ele>338.04</ele>
        <time>2012-08-10T12:40:04Z</time>
      </trkpt>
      <trkpt lat="44.5218" lon="2.77094">
        <ele>336.6</ele>
        <time>2012-08-10T12:40:18Z</time>
      </trkpt>
      <trkpt lat="44.52172" lon="2.76994">
        <ele>336.6</ele>
        <time>2012-08-10T12:40:32Z</time>
      </trkpt>
      <trkpt lat="44.52171" lon="2.76988">
        <ele>336.6</ele>
        <time>2012-08-10T12:40:33Z</time>
      </trkpt>
      <trkpt lat="44.52172" lon="2.76968">
        <ele>336.6</ele>
        <time>2012-08-10T12:40:36Z</time>
      </trkpt>
      <trkpt lat="44.52171" lon="2.76961">
        <ele>336.6</ele>
        <time>2012-08-10T12:40:37Z</time>
      </trkpt>
      <trkpt lat="44.52169" lon="2.76954">
        <ele>336.6</ele>
        <time>2012-08-10T12:40:38Z</time>
      </trkpt>
      <trkpt lat="44.52168" lon="2.76947">
        <ele>336.6</ele>
        <time>2012-08-10T12:40:39Z</time>
      </trkpt>
      <trkpt lat="44.52166" lon="2.76941">
        <ele>337.08</ele>
        <time>2012-08-10T12:40:40Z</time>
      </trkpt>
      <trkpt lat="44.52151" lon="2.76874">
        <ele>336.12</ele>
        <time>2012-08-10T12:40:49Z</time>
      </trkpt>
      <trkpt lat="44.52148" lon="2.76867">
        <ele>336.12</ele>
        <time>2012-08-10T12:40:50Z</time>
      </trkpt>
      <trkpt lat="44.52146" lon="2.76861">
        <ele>336.6</ele>
        <time>2012-08-10T12:40:51Z</time>
      </trkpt>
      <trkpt lat="44.52101" lon="2.76769">
        <ele>336.6</ele>
        <time>2012-08-10T12:41:06Z</time>
      </trkpt>
      <trkpt lat="44.52091" lon="2.7675">
        <ele>336.6</ele>
        <time>2012-08-10T12:41:09Z</time>
      </trkpt>
      <trkpt lat="44.52087" lon="2.76744">
        <ele>336.6</ele>
        <time>2012-08-10T12:41:10Z</time>
      </trkpt>
      <trkpt lat="44.52084" lon="2.76738">
        <ele>336.6</ele>
        <time>2012-08-10T12:41:11Z</time>
      </trkpt>
      <trkpt lat="44.52074" lon="2.76713">
        <ele>336.12</ele>
        <time>2012-08-10T12:41:15Z</time>
      </trkpt>
      <trkpt lat="44.52071" lon="2.76694">
        <ele>335.64</ele>
        <time>2012-08-10T12:41:18Z</time>
      </trkpt>
      <trkpt lat="44.52045" lon="2.76583">
        <ele>335.16</ele>
        <time>2012-08-10T12:41:34Z</time>
      </trkpt>
      <trkpt lat="44.52043" lon="2.76571">
        <ele>335.16</ele>
        <time>2012-08-10T12:41:36Z</time>
      </trkpt>
      <trkpt lat="44.52043" lon="2.76565">
        <ele>335.16</ele>
        <time>2012-08-10T12:41:37Z</time>
      </trkpt>
      <trkpt lat="44.52044" lon="2.76559">
        <ele>335.16</ele>
        <time>2012-08-10T12:41:38Z</time>
      </trkpt>
      <trkpt lat="44.52054" lon="2.76471">
        <ele>334.68</ele>
        <time>2012-08-10T12:41:52Z</time>
      </trkpt>
      <trkpt lat="44.52054" lon="2.76466">
        <ele>334.68</ele>
        <time>2012-08-10T12:41:53Z</time>
      </trkpt>
      <trkpt lat="44.52055" lon="2.7646">
        <ele>334.68</ele>
        <time>2012-08-10T12:41:54Z</time>
      </trkpt>
      <trkpt lat="44.52072" lon="2.76426">
        <ele>332.75</ele>
        <time>2012-08-10T12:42:04Z</time>
      </trkpt>
      <trkpt lat="44.52114" lon="2.76409">
        <ele>333.71</ele>
        <time>2012-08-10T12:42:16Z</time>
      </trkpt>
      <trkpt lat="44.52136" lon="2.76393">
        <ele>335.64</ele>
        <time>2012-08-10T12:42:24Z</time>
      </trkpt>
      <trkpt lat="44.52149" lon="2.76362">
        <ele>336.6</ele>
        <time>2012-08-10T12:42:34Z</time>
      </trkpt>
      <trkpt lat="44.52147" lon="2.76359">
        <ele>337.08</ele>
        <time>2012-08-10T12:42:35Z</time>
      </trkpt>
      <trkpt lat="44.52145" lon="2.76357">
        <ele>337.56</ele>
        <time>2012-08-10T12:42:36Z</time>
      </trkpt>
      <trkpt lat="44.52143" lon="2.76356">
        <ele>338.04</ele>
        <time>2012-08-10T12:42:37Z</time>
      </trkpt>
      <trkpt lat="44.52141" lon="2.76355">
        <ele>338.52</ele>
        <time>2012-08-10T12:42:38Z</time>
      </trkpt>
      <trkpt lat="44.5214" lon="2.76354">
        <ele>338.52</ele>
        <time>2012-08-10T12:42:39Z</time>
      </trkpt>
      <trkpt lat="44.52136" lon="2.7635">
        <ele>339.96</ele>
        <time>2012-08-10T12:42:43Z</time>
      </trkpt>
      <trkpt lat="44.52135" lon="2.76349">
        <ele>339.96</ele>
        <time>2012-08-10T12:42:44Z</time>
      </trkpt>
      <trkpt lat="44.52135" lon="2.76346">
        <ele>339.96</ele>
        <time>2012-08-10T12:42:45Z</time>
      </trkpt>
      <trkpt lat="44.52136" lon="2.76344">
        <ele>339.48</ele>
        <time>2012-08-10T12:42:46Z</time>
      </trkpt>
      <trkpt lat="44.52137" lon="2.76341">
        <ele>339.48</ele>
        <time>2012-08-10T12:42:47Z</time>
      </trkpt>
      <trkpt lat="44.52138" lon="2.76339">
        <ele>339</ele>
        <time>2012-08-10T12:42:48Z</time>
      </trkpt>
      <trkpt lat="44.52138" lon="2.76337">
        <ele>339</ele>
        <time>2012-08-10T12:42:49Z</time>
      </trkpt>
      <trkpt lat="44.52139" lon="2.76335">
        <ele>338.52</ele>
        <time>2012-08-10T12:42:50Z</time>
      </trkpt>
      <trkpt lat="44.52139" lon="2.76332">
        <ele>339</ele>
        <time>2012-08-10T12:42:51Z</time>
      </trkpt>
      <trkpt lat="44.5214" lon="2.76329">
        <ele>339</ele>
        <time>2012-08-10T12:42:52Z</time>
      </trkpt>
      <trkpt lat="44.52141" lon="2.76326">
        <ele>339</ele>
        <time>2012-08-10T12:42:53Z</time>
      </trkpt>
      <trkpt lat="44.52153" lon="2.76304">
        <ele>338.04</ele>
        <time>2012-08-10T12:43:05Z</time>
      </trkpt>
      <trkpt lat="44.52151" lon="2.76298">
        <ele>339.96</ele>
        <time>2012-08-10T12:43:22Z</time>
      </trkpt>
      <trkpt lat="44.52152" lon="2.76297">
        <ele>341.89</ele>
        <time>2012-08-10T12:43:52Z</time>
      </trkpt>
      <trkpt lat="44.52152" lon="2.76296">
        <ele>341.41</ele>
        <time>2012-08-10T12:44:15Z</time>
      </trkpt>
      <trkpt lat="44.52149" lon="2.76293">
        <ele>340.44</ele>
        <time>2012-08-10T12:44:29Z</time>
      </trkpt>
      <trkpt lat="44.52147" lon="2.76298">
        <ele>342.37</ele>
        <time>2012-08-10T12:44:44Z</time>
      </trkpt>
      <trkpt lat="44.5215" lon="2.76309">
        <ele>350.54</ele>
        <time>2012-08-10T12:45:00Z</time>
      </trkpt>
      <trkpt lat="44.52154" lon="2.7631">
        <ele>352.46</ele>
        <time>2012-08-10T12:45:21Z</time>
      </trkpt>
      <trkpt lat="44.52154" lon="2.76312">
        <ele>352.46</ele>
        <time>2012-08-10T12:45:41Z</time>
      </trkpt>
      <trkpt lat="44.52152" lon="2.76316">
        <ele>352.94</ele>
        <time>2012-08-10T12:45:55Z</time>
      </trkpt>
      <trkpt lat="44.52149" lon="2.76318">
        <ele>352.46</ele>
        <time>2012-08-10T12:45:58Z</time>
      </trkpt>
      <trkpt lat="44.52141" lon="2.76317">
        <ele>352.94</ele>
        <time>2012-08-10T12:46:10Z</time>
      </trkpt>
      <trkpt lat="44.52142" lon="2.7632">
        <ele>352.46</ele>
        <time>2012-08-10T12:46:29Z</time>
      </trkpt>
      <trkpt lat="44.5214" lon="2.76319">
        <ele>351.98</ele>
        <time>2012-08-10T12:46:49Z</time>
      </trkpt>
      <trkpt lat="44.52137" lon="2.76312">
        <ele>352.46</ele>
        <time>2012-08-10T12:47:04Z</time>
      </trkpt>
      <trkpt lat="44.52127" lon="2.76305">
        <ele>355.34</ele>
        <time>2012-08-10T12:47:17Z</time>
      </trkpt>
      <trkpt lat="44.52127" lon="2.76296">
        <ele>353.9</ele>
        <time>2012-08-10T12:47:34Z</time>
      </trkpt>
      <trkpt lat="44.5213" lon="2.76291">
        <ele>353.9</ele>
        <time>2012-08-10T12:47:58Z</time>
      </trkpt>
      <trkpt lat="44.52129" lon="2.76289">
        <ele>353.42</ele>
        <time>2012-08-10T12:48:18Z</time>
      </trkpt>
      <trkpt lat="44.52126" lon="2.76295">
        <ele>351.98</ele>
        <time>2012-08-10T12:48:31Z</time>
      </trkpt>
      <trkpt lat="44.52126" lon="2.76295">
        <ele>351.5</ele>
        <time>2012-08-10T12:48:32Z</time>
      </trkpt>
      <trkpt lat="44.52127" lon="2.76296">
        <ele>351.5</ele>
        <time>2012-08-10T12:48:33Z</time>
      </trkpt>
      <trkpt lat="44.52133" lon="2.76307">
        <ele>350.54</ele>
        <time>2012-08-10T12:48:48Z</time>
      </trkpt>
      <trkpt lat="44.52139" lon="2.76315">
        <ele>347.65</ele>
        <time>2012-08-10T12:48:59Z</time>
      </trkpt>
      <trkpt lat="44.52143" lon="2.76301">
        <ele>342.85</ele>
        <time>2012-08-10T12:49:17Z</time>
      </trkpt>
      <trkpt lat="44.52142" lon="2.763">
        <ele>344.29</ele>
        <time>2012-08-10T12:49:42Z</time>
      </trkpt>
      <trkpt lat="44.52137" lon="2.76299">
        <ele>343.33</ele>
        <time>2012-08-10T12:50:06Z</time>
      </trkpt>
      <trkpt lat="44.52138" lon="2.763">
        <ele>342.85</ele>
        <time>2012-08-10T12:50:28Z</time>
      </trkpt>
      <trkpt lat="44.5214" lon="2.76299">
        <ele>343.81</ele>
        <time>2012-08-10T12:50:46Z</time>
      </trkpt>
      <trkpt lat="44.52142" lon="2.76301">
        <ele>344.29</ele>
        <time>2012-08-10T12:51:09Z</time>
      </trkpt>
      <trkpt lat="44.52142" lon="2.76303">
        <ele>344.77</ele>
        <time>2012-08-10T12:51:28Z</time>
      </trkpt>
      <trkpt lat="44.52144" lon="2.76302">
        <ele>346.21</ele>
        <time>2012-08-10T12:51:47Z</time>
      </trkpt>
      <trkpt lat="44.52145" lon="2.76301">
        <ele>346.69</ele>
        <time>2012-08-10T12:52:13Z</time>
      </trkpt>
      <trkpt lat="44.52146" lon="2.76302">
        <ele>346.21</ele>
        <time>2012-08-10T12:52:31Z</time>
      </trkpt>
      <trkpt lat="44.52147" lon="2.76302">
        <ele>345.73</ele>
        <time>2012-08-10T12:52:47Z</time>
      </trkpt>
      <trkpt lat="44.52149" lon="2.76303">
        <ele>346.21</ele>
        <time>2012-08-10T12:53:11Z</time>
      </trkpt>
      <trkpt lat="44.5215" lon="2.76304">
        <ele>345.73</ele>
        <time>2012-08-10T12:53:32Z</time>
      </trkpt>
      <trkpt lat="44.52151" lon="2.76305">
        <ele>346.21</ele>
        <time>2012-08-10T12:53:57Z</time>
      </trkpt>
      <trkpt lat="44.52151" lon="2.76307">
        <ele>346.69</ele>
        <time>2012-08-10T12:54:19Z</time>
      </trkpt>
      <trkpt lat="44.52151" lon="2.76307">
        <ele>346.69</ele>
        <time>2012-08-10T12:54:38Z</time>
      </trkpt>
      <trkpt lat="44.52148" lon="2.76306">
        <ele>348.13</ele>
        <time>2012-08-10T12:55:02Z</time>
      </trkpt>
      <trkpt lat="44.52152" lon="2.76307">
        <ele>350.06</ele>
        <time>2012-08-10T12:55:26Z</time>
      </trkpt>
      <trkpt lat="44.52151" lon="2.76308">
        <ele>349.58</ele>
        <time>2012-08-10T12:55:48Z</time>
      </trkpt>
      <trkpt lat="44.52151" lon="2.76307">
        <ele>350.06</ele>
        <time>2012-08-10T12:56:10Z</time>
      </trkpt>
      <trkpt lat="44.52151" lon="2.76306">
        <ele>350.54</ele>
        <time>2012-08-10T12:56:36Z</time>
      </trkpt>
      <trkpt lat="44.52151" lon="2.76306">
        <ele>351.02</ele>
        <time>2012-08-10T12:56:57Z</time>
      </trkpt>
      <trkpt lat="44.5215" lon="2.76306">
        <ele>351.02</ele>
        <time>2012-08-10T12:57:16Z</time>
      </trkpt>
      <trkpt lat="44.52149" lon="2.76308">
        <ele>350.54</ele>
        <time>2012-08-10T12:57:34Z</time>
      </trkpt>
      <trkpt lat="44.52149" lon="2.7631">
        <ele>351.5</ele>
        <time>2012-08-10T12:57:54Z</time>
      </trkpt>
      <trkpt lat="44.52149" lon="2.76311">
        <ele>351.5</ele>
        <time>2012-08-10T12:57:55Z</time>
      </trkpt>
      <trkpt lat="44.52151" lon="2.76317">
        <ele>351.98</ele>
        <time>2012-08-10T12:58:00Z</time>
      </trkpt>
      <trkpt lat="44.52144" lon="2.76325">
        <ele>351.5</ele>
        <time>2012-08-10T12:58:06Z</time>
      </trkpt>
      <trkpt lat="44.52145" lon="2.76325">
        <ele>351.02</ele>
        <time>2012-08-10T12:58:07Z</time>
      </trkpt>
      <trkpt lat="44.52143" lon="2.76326">
        <ele>346.69</ele>
        <time>2012-08-10T12:58:23Z</time>
      </trkpt>
      <trkpt lat="44.52141" lon="2.76328">
        <ele>342.85</ele>
        <time>2012-08-10T12:58:54Z</time>
      </trkpt>
      <trkpt lat="44.5214" lon="2.76329">
        <ele>342.37</ele>
        <time>2012-08-10T12:59:21Z</time>
      </trkpt>
      <trkpt lat="44.52139" lon="2.7633">
        <ele>341.41</ele>
        <time>2012-08-10T12:59:42Z</time>
      </trkpt>
      <trkpt lat="44.52139" lon="2.7633">
        <ele>341.89</ele>
        <time>2012-08-10T13:00:07Z</time>
      </trkpt>
      <trkpt lat="44.5214" lon="2.7633">
        <ele>341.89</ele>
        <time>2012-08-10T13:00:30Z</time>
      </trkpt>
      <trkpt lat="44.52142" lon="2.76329">
        <ele>341.89</ele>
        <time>2012-08-10T13:00:51Z</time>
      </trkpt>
      <trkpt lat="44.52143" lon="2.76329">
        <ele>342.37</ele>
        <time>2012-08-10T13:01:22Z</time>
      </trkpt>
      <trkpt lat="44.52143" lon="2.76329">
        <ele>343.33</ele>
        <time>2012-08-10T13:01:46Z</time>
      </trkpt>
      <trkpt lat="44.52144" lon="2.76329">
        <ele>344.29</ele>
        <time>2012-08-10T13:02:13Z</time>
      </trkpt>
      <trkpt lat="44.52144" lon="2.76328">
        <ele>344.77</ele>
        <time>2012-08-10T13:02:34Z</time>
      </trkpt>
      <trkpt lat="44.52145" lon="2.76333">
        <ele>345.25</ele>
        <time>2012-08-10T13:02:39Z</time>
      </trkpt>
      <trkpt lat="44.52133" lon="2.76358">
        <ele>345.73</ele>
        <time>2012-08-10T13:02:51Z</time>
      </trkpt>
      <trkpt lat="44.5213" lon="2.76363">
        <ele>346.21</ele>
        <time>2012-08-10T13:03:02Z</time>
      </trkpt>
      <trkpt lat="44.52093" lon="2.76391">
        <ele>344.77</ele>
        <time>2012-08-10T13:03:16Z</time>
      </trkpt>
      <trkpt lat="44.52058" lon="2.76408">
        <ele>344.77</ele>
        <time>2012-08-10T13:03:31Z</time>
      </trkpt>
      <trkpt lat="44.52045" lon="2.76424">
        <ele>346.69</ele>
        <time>2012-08-10T13:03:45Z</time>
      </trkpt>
      <trkpt lat="44.52048" lon="2.76423">
        <ele>347.17</ele>
        <time>2012-08-10T13:03:46Z</time>
      </trkpt>
      <trkpt lat="44.52051" lon="2.76421">
        <ele>347.17</ele>
        <time>2012-08-10T13:03:47Z</time>
      </trkpt>
      <trkpt lat="44.52053" lon="2.76419">
        <ele>347.17</ele>
        <time>2012-08-10T13:03:48Z</time>
      </trkpt>
      <trkpt lat="44.52055" lon="2.76417">
        <ele>347.65</ele>
        <time>2012-08-10T13:03:49Z</time>
      </trkpt>
      <trkpt lat="44.52097" lon="2.76386">
        <ele>346.21</ele>
        <time>2012-08-10T13:04:03Z</time>
      </trkpt>
      <trkpt lat="44.52119" lon="2.76379">
        <ele>345.73</ele>
        <time>2012-08-10T13:04:12Z</time>
      </trkpt>
      <trkpt lat="44.52118" lon="2.76378">
        <ele>346.21</ele>
        <time>2012-08-10T13:04:16Z</time>
      </trkpt>
      <trkpt lat="44.52118" lon="2.76377">
        <ele>346.21</ele>
        <time>2012-08-10T13:04:17Z</time>
      </trkpt>
      <trkpt lat="44.52127" lon="2.76357">
        <ele>345.25</ele>
        <time>2012-08-10T13:04:24Z</time>
      </trkpt>
      <trkpt lat="44.52127" lon="2.76352">
        <ele>344.77</ele>
        <time>2012-08-10T13:04:25Z</time>
      </trkpt>
      <trkpt lat="44.52129" lon="2.76348">
        <ele>344.29</ele>
        <time>2012-08-10T13:04:26Z</time>
      </trkpt>
      <trkpt lat="44.5213" lon="2.76343">
        <ele>343.81</ele>
        <time>2012-08-10T13:04:27Z</time>
      </trkpt>
      <trkpt lat="44.52131" lon="2.76339">
        <ele>343.33</ele>
        <time>2012-08-10T13:04:28Z</time>
      </trkpt>
      <trkpt lat="44.52146" lon="2.76288">
        <ele>338.52</ele>
        <time>2012-08-10T13:04:39Z</time>
      </trkpt>
      <trkpt lat="44.52148" lon="2.76283">
        <ele>338.52</ele>
        <time>2012-08-10T13:04:40Z</time>
      </trkpt>
      <trkpt lat="44.52168" lon="2.76235">
        <ele>338.52</ele>
        <time>2012-08-10T13:04:53Z</time>
      </trkpt>
      <trkpt lat="44.52172" lon="2.76231">
        <ele>338.52</ele>
        <time>2012-08-10T13:04:56Z</time>
      </trkpt>
      <trkpt lat="44.52183" lon="2.76233">
        <ele>339.96</ele>
        <time>2012-08-10T13:05:09Z</time>
      </trkpt>
      <trkpt lat="44.52186" lon="2.76234">
        <ele>342.37</ele>
        <time>2012-08-10T13:05:37Z</time>
      </trkpt>
      <trkpt lat="44.52186" lon="2.76234">
        <ele>342.37</ele>
        <time>2012-08-10T13:05:38Z</time>
      </trkpt>
      <trkpt lat="44.52187" lon="2.76232">
        <ele>342.37</ele>
        <time>2012-08-10T13:05:39Z</time>
      </trkpt>
      <trkpt lat="44.52187" lon="2.7623">
        <ele>342.37</ele>
        <time>2012-08-10T13:05:40Z</time>
      </trkpt>
      <trkpt lat="44.52187" lon="2.76227">
        <ele>342.37</ele>
        <time>2012-08-10T13:05:41Z</time>
      </trkpt>
      <trkpt lat="44.52186" lon="2.76224">
        <ele>342.85</ele>
        <time>2012-08-10T13:05:42Z</time>
      </trkpt>
      <trkpt lat="44.52185" lon="2.76221">
        <ele>342.85</ele>
        <time>2012-08-10T13:05:43Z</time>
      </trkpt>
      <trkpt lat="44.52183" lon="2.76218">
        <ele>342.85</ele>
        <time>2012-08-10T13:05:44Z</time>
      </trkpt>
      <trkpt lat="44.52142" lon="2.76181">
        <ele>347.65</ele>
        <time>2012-08-10T13:05:59Z</time>
      </trkpt>
      <trkpt lat="44.521" lon="2.76148">
        <ele>349.58</ele>
        <time>2012-08-10T13:06:13Z</time>
      </trkpt>
      <trkpt lat="44.52079" lon="2.7613">
        <ele>350.06</ele>
        <time>2012-08-10T13:06:21Z</time>
      </trkpt>
      <trkpt lat="44.52078" lon="2.76128">
        <ele>350.06</ele>
        <time>2012-08-10T13:06:22Z</time>
      </trkpt>
      <trkpt lat="44.52078" lon="2.76124">
        <ele>350.06</ele>
        <time>2012-08-10T13:06:23Z</time>
      </trkpt>
      <trkpt lat="44.52078" lon="2.76118">
        <ele>350.06</ele>
        <time>2012-08-10T13:06:24Z</time>
      </trkpt>
      <trkpt lat="44.52079" lon="2.76114">
        <ele>349.58</ele>
        <time>2012-08-10T13:06:25Z</time>
      </trkpt>
      <trkpt lat="44.52085" lon="2.76053">
        <ele>346.69</ele>
        <time>2012-08-10T13:06:38Z</time>
      </trkpt>
      <trkpt lat="44.52092" lon="2.75995">
        <ele>344.77</ele>
        <time>2012-08-10T13:06:51Z</time>
      </trkpt>
      <trkpt lat="44.52113" lon="2.75944">
        <ele>343.33</ele>
        <time>2012-08-10T13:07:04Z</time>
      </trkpt>
      <trkpt lat="44.52144" lon="2.75894">
        <ele>340.44</ele>
        <time>2012-08-10T13:07:16Z</time>
      </trkpt>
      <trkpt lat="44.52157" lon="2.75878">
        <ele>340.44</ele>
        <time>2012-08-10T13:07:22Z</time>
      </trkpt>
      <trkpt lat="44.5216" lon="2.75878">
        <ele>340.92</ele>
        <time>2012-08-10T13:07:23Z</time>
      </trkpt>
      <trkpt lat="44.52184" lon="2.75879">
        <ele>343.81</ele>
        <time>2012-08-10T13:07:29Z</time>
      </trkpt>
      <trkpt lat="44.52187" lon="2.75876">
        <ele>343.81</ele>
        <time>2012-08-10T13:07:30Z</time>
      </trkpt>
      <trkpt lat="44.52189" lon="2.75872">
        <ele>343.81</ele>
        <time>2012-08-10T13:07:31Z</time>
      </trkpt>
      <trkpt lat="44.52191" lon="2.75867">
        <ele>343.81</ele>
        <time>2012-08-10T13:07:32Z</time>
      </trkpt>
      <trkpt lat="44.52193" lon="2.75862">
        <ele>343.81</ele>
        <time>2012-08-10T13:07:33Z</time>
      </trkpt>
      <trkpt lat="44.52193" lon="2.75857">
        <ele>343.81</ele>
        <time>2012-08-10T13:07:34Z</time>
      </trkpt>
      <trkpt lat="44.52194" lon="2.75852">
        <ele>343.33</ele>
        <time>2012-08-10T13:07:35Z</time>
      </trkpt>
      <trkpt lat="44.52197" lon="2.75788">
        <ele>342.85</ele>
        <time>2012-08-10T13:07:49Z</time>
      </trkpt>
      <trkpt lat="44.52204" lon="2.75751">
        <ele>345.25</ele>
        <time>2012-08-10T13:08:03Z</time>
      </trkpt>
      <trkpt lat="44.52211" lon="2.75725">
        <ele>347.17</ele>
        <time>2012-08-10T13:08:19Z</time>
      </trkpt>
      <trkpt lat="44.52217" lon="2.7571">
        <ele>349.58</ele>
        <time>2012-08-10T13:08:34Z</time>
      </trkpt>
      <trkpt lat="44.52223" lon="2.75702">
        <ele>351.02</ele>
        <time>2012-08-10T13:08:51Z</time>
      </trkpt>
      <trkpt lat="44.52228" lon="2.75691">
        <ele>351.5</ele>
        <time>2012-08-10T13:09:04Z</time>
      </trkpt>
      <trkpt lat="44.52235" lon="2.75676">
        <ele>352.46</ele>
        <time>2012-08-10T13:09:18Z</time>
      </trkpt>
      <trkpt lat="44.52236" lon="2.75663">
        <ele>352.94</ele>
        <time>2012-08-10T13:09:29Z</time>
      </trkpt>
      <trkpt lat="44.52237" lon="2.75661">
        <ele>352.94</ele>
        <time>2012-08-10T13:09:30Z</time>
      </trkpt>
      <trkpt lat="44.52238" lon="2.75659">
        <ele>353.42</ele>
        <time>2012-08-10T13:09:31Z</time>
      </trkpt>
      <trkpt lat="44.52238" lon="2.75657">
        <ele>353.9</ele>
        <time>2012-08-10T13:09:32Z</time>
      </trkpt>
      <trkpt lat="44.52238" lon="2.75654">
        <ele>353.9</ele>
        <time>2012-08-10T13:09:33Z</time>
      </trkpt>
      <trkpt lat="44.52238" lon="2.75652">
        <ele>353.9</ele>
        <time>2012-08-10T13:09:34Z</time>
      </trkpt>
      <trkpt lat="44.52239" lon="2.7565">
        <ele>353.9</ele>
        <time>2012-08-10T13:09:35Z</time>
      </trkpt>
      <trkpt lat="44.52239" lon="2.75648">
        <ele>353.42</ele>
        <time>2012-08-10T13:09:36Z</time>
      </trkpt>
      <trkpt lat="44.5224" lon="2.75645">
        <ele>352.94</ele>
        <time>2012-08-10T13:09:37Z</time>
      </trkpt>
      <trkpt lat="44.52241" lon="2.75643">
        <ele>352.94</ele>
        <time>2012-08-10T13:09:38Z</time>
      </trkpt>
      <trkpt lat="44.52246" lon="2.75605">
        <ele>351.02</ele>
        <time>2012-08-10T13:09:52Z</time>
      </trkpt>
      <trkpt lat="44.52253" lon="2.75552">
        <ele>351.02</ele>
        <time>2012-08-10T13:10:06Z</time>
      </trkpt>
      <trkpt lat="44.52279" lon="2.75493">
        <ele>352.94</ele>
        <time>2012-08-10T13:10:21Z</time>
      </trkpt>
      <trkpt lat="44.52288" lon="2.75449">
        <ele>352.46</ele>
        <time>2012-08-10T13:10:33Z</time>
      </trkpt>
      <trkpt lat="44.52309" lon="2.75382">
        <ele>352.46</ele>
        <time>2012-08-10T13:10:47Z</time>
      </trkpt>
      <trkpt lat="44.52335" lon="2.75288">
        <ele>352.94</ele>
        <time>2012-08-10T13:11:05Z</time>
      </trkpt>
      <trkpt lat="44.52345" lon="2.75194">
        <ele>357.27</ele>
        <time>2012-08-10T13:11:22Z</time>
      </trkpt>
      <trkpt lat="44.52341" lon="2.75132">
        <ele>358.23</ele>
        <time>2012-08-10T13:11:33Z</time>
      </trkpt>
      <trkpt lat="44.52342" lon="2.75097">
        <ele>359.19</ele>
        <time>2012-08-10T13:11:39Z</time>
      </trkpt>
      <trkpt lat="44.52357" lon="2.75006">
        <ele>360.63</ele>
        <time>2012-08-10T13:11:54Z</time>
      </trkpt>
      <trkpt lat="44.52387" lon="2.74912">
        <ele>360.15</ele>
        <time>2012-08-10T13:12:08Z</time>
      </trkpt>
      <trkpt lat="44.52418" lon="2.74788">
        <ele>360.15</ele>
        <time>2012-08-10T13:12:24Z</time>
      </trkpt>
      <trkpt lat="44.52445" lon="2.74664">
        <ele>359.67</ele>
        <time>2012-08-10T13:12:40Z</time>
      </trkpt>
      <trkpt lat="44.52458" lon="2.7453">
        <ele>360.15</ele>
        <time>2012-08-10T13:12:55Z</time>
      </trkpt>
      <trkpt lat="44.52471" lon="2.74453">
        <ele>358.71</ele>
        <time>2012-08-10T13:13:04Z</time>
      </trkpt>
      <trkpt lat="44.5249" lon="2.74364">
        <ele>358.23</ele>
        <time>2012-08-10T13:13:15Z</time>
      </trkpt>
      <trkpt lat="44.52492" lon="2.74357">
        <ele>358.23</ele>
        <time>2012-08-10T13:13:16Z</time>
      </trkpt>
      <trkpt lat="44.52546" lon="2.74272">
        <ele>360.15</ele>
        <time>2012-08-10T13:13:31Z</time>
      </trkpt>
      <trkpt lat="44.52616" lon="2.74187">
        <ele>358.23</ele>
        <time>2012-08-10T13:13:46Z</time>
      </trkpt>
      <trkpt lat="44.52652" lon="2.74135">
        <ele>356.79</ele>
        <time>2012-08-10T13:13:54Z</time>
      </trkpt>
      <trkpt lat="44.52674" lon="2.74068">
        <ele>355.83</ele>
        <time>2012-08-10T13:14:02Z</time>
      </trkpt>
      <trkpt lat="44.52679" lon="2.74059">
        <ele>355.34</ele>
        <time>2012-08-10T13:14:03Z</time>
      </trkpt>
      <trkpt lat="44.52684" lon="2.74051">
        <ele>354.86</ele>
        <time>2012-08-10T13:14:04Z</time>
      </trkpt>
      <trkpt lat="44.5269" lon="2.74044">
        <ele>354.38</ele>
        <time>2012-08-10T13:14:05Z</time>
      </trkpt>
      <trkpt lat="44.52696" lon="2.74037">
        <ele>353.42</ele>
        <time>2012-08-10T13:14:06Z</time>
      </trkpt>
      <trkpt lat="44.52708" lon="2.74023">
        <ele>351.98</ele>
        <time>2012-08-10T13:14:08Z</time>
      </trkpt>
      <trkpt lat="44.52713" lon="2.74014">
        <ele>351.5</ele>
        <time>2012-08-10T13:14:09Z</time>
      </trkpt>
      <trkpt lat="44.52718" lon="2.74005">
        <ele>351.02</ele>
        <time>2012-08-10T13:14:10Z</time>
      </trkpt>
      <trkpt lat="44.52722" lon="2.73995">
        <ele>350.54</ele>
        <time>2012-08-10T13:14:11Z</time>
      </trkpt>
      <trkpt lat="44.52726" lon="2.73985">
        <ele>349.58</ele>
        <time>2012-08-10T13:14:12Z</time>
      </trkpt>
      <trkpt lat="44.52731" lon="2.73974">
        <ele>348.62</ele>
        <time>2012-08-10T13:14:13Z</time>
      </trkpt>
      <trkpt lat="44.52791" lon="2.73821">
        <ele>339.48</ele>
        <time>2012-08-10T13:14:25Z</time>
      </trkpt>
      <trkpt lat="44.52816" lon="2.73687">
        <ele>335.64</ele>
        <time>2012-08-10T13:14:36Z</time>
      </trkpt>
      <trkpt lat="44.52824" lon="2.73647">
        <ele>334.68</ele>
        <time>2012-08-10T13:14:40Z</time>
      </trkpt>
      <trkpt lat="44.52826" lon="2.73638">
        <ele>334.2</ele>
        <time>2012-08-10T13:14:41Z</time>
      </trkpt>
      <trkpt lat="44.52859" lon="2.73489">
        <ele>332.75</ele>
        <time>2012-08-10T13:14:57Z</time>
      </trkpt>
      <trkpt lat="44.52886" lon="2.73361">
        <ele>333.23</ele>
        <time>2012-08-10T13:15:12Z</time>
      </trkpt>
      <trkpt lat="44.52895" lon="2.73283">
        <ele>332.27</ele>
        <time>2012-08-10T13:15:21Z</time>
      </trkpt>
      <trkpt lat="44.52895" lon="2.73274">
        <ele>331.79</ele>
        <time>2012-08-10T13:15:22Z</time>
      </trkpt>
      <trkpt lat="44.52894" lon="2.73265">
        <ele>331.79</ele>
        <time>2012-08-10T13:15:23Z</time>
      </trkpt>
      <trkpt lat="44.52892" lon="2.73256">
        <ele>331.31</ele>
        <time>2012-08-10T13:15:24Z</time>
      </trkpt>
      <trkpt lat="44.5289" lon="2.73248">
        <ele>331.31</ele>
        <time>2012-08-10T13:15:25Z</time>
      </trkpt>
      <trkpt lat="44.52887" lon="2.7324">
        <ele>331.31</ele>
        <time>2012-08-10T13:15:26Z</time>
      </trkpt>
      <trkpt lat="44.52884" lon="2.73232">
        <ele>330.83</ele>
        <time>2012-08-10T13:15:27Z</time>
      </trkpt>
      <trkpt lat="44.5284" lon="2.7314">
        <ele>328.91</ele>
        <time>2012-08-10T13:15:40Z</time>
      </trkpt>
      <trkpt lat="44.52829" lon="2.73114">
        <ele>327.95</ele>
        <time>2012-08-10T13:15:44Z</time>
      </trkpt>
      <trkpt lat="44.52828" lon="2.73107">
        <ele>327.47</ele>
        <time>2012-08-10T13:15:45Z</time>
      </trkpt>
      <trkpt lat="44.52827" lon="2.731">
        <ele>326.99</ele>
        <time>2012-08-10T13:15:46Z</time>
      </trkpt>
      <trkpt lat="44.52827" lon="2.73092">
        <ele>326.99</ele>
        <time>2012-08-10T13:15:47Z</time>
      </trkpt>
      <trkpt lat="44.52828" lon="2.73086">
        <ele>326.5</ele>
        <time>2012-08-10T13:15:48Z</time>
      </trkpt>
      <trkpt lat="44.5283" lon="2.7308">
        <ele>326.5</ele>
        <time>2012-08-10T13:15:49Z</time>
      </trkpt>
      <trkpt lat="44.52833" lon="2.73076">
        <ele>326.5</ele>
        <time>2012-08-10T13:15:50Z</time>
      </trkpt>
      <trkpt lat="44.52838" lon="2.73073">
        <ele>326.5</ele>
        <time>2012-08-10T13:15:51Z</time>
      </trkpt>
      <trkpt lat="44.52843" lon="2.73072">
        <ele>326.5</ele>
        <time>2012-08-10T13:15:52Z</time>
      </trkpt>
      <trkpt lat="44.5285" lon="2.73072">
        <ele>326.5</ele>
        <time>2012-08-10T13:15:53Z</time>
      </trkpt>
      <trkpt lat="44.52856" lon="2.73073">
        <ele>326.99</ele>
        <time>2012-08-10T13:15:54Z</time>
      </trkpt>
      <trkpt lat="44.52911" lon="2.7308">
        <ele>329.39</ele>
        <time>2012-08-10T13:16:06Z</time>
      </trkpt>
      <trkpt lat="44.52951" lon="2.73069">
        <ele>333.23</ele>
        <time>2012-08-10T13:16:18Z</time>
      </trkpt>
      <trkpt lat="44.52982" lon="2.73029">
        <ele>336.12</ele>
        <time>2012-08-10T13:16:31Z</time>
      </trkpt>
      <trkpt lat="44.53011" lon="2.7299">
        <ele>339.48</ele>
        <time>2012-08-10T13:16:45Z</time>
      </trkpt>
      <trkpt lat="44.53045" lon="2.72941">
        <ele>342.37</ele>
        <time>2012-08-10T13:17:00Z</time>
      </trkpt>
      <trkpt lat="44.53078" lon="2.72886">
        <ele>345.73</ele>
        <time>2012-08-10T13:17:16Z</time>
      </trkpt>
      <trkpt lat="44.53109" lon="2.7285">
        <ele>349.1</ele>
        <time>2012-08-10T13:17:28Z</time>
      </trkpt>
      <trkpt lat="44.53113" lon="2.72847">
        <ele>349.58</ele>
        <time>2012-08-10T13:17:29Z</time>
      </trkpt>
      <trkpt lat="44.53177" lon="2.72811">
        <ele>350.54</ele>
        <time>2012-08-10T13:17:42Z</time>
      </trkpt>
      <trkpt lat="44.5323" lon="2.72794">
        <ele>347.17</ele>
        <time>2012-08-10T13:17:50Z</time>
      </trkpt>
      <trkpt lat="44.53317" lon="2.72724">
        <ele>339</ele>
        <time>2012-08-10T13:18:01Z</time>
      </trkpt>
      <trkpt lat="44.53398" lon="2.7265">
        <ele>333.71</ele>
        <time>2012-08-10T13:18:13Z</time>
      </trkpt>
      <trkpt lat="44.53453" lon="2.72564">
        <ele>331.79</ele>
        <time>2012-08-10T13:18:26Z</time>
      </trkpt>
      <trkpt lat="44.53491" lon="2.72468">
        <ele>332.75</ele>
        <time>2012-08-10T13:18:40Z</time>
      </trkpt>
      <trkpt lat="44.53512" lon="2.7236">
        <ele>333.71</ele>
        <time>2012-08-10T13:18:55Z</time>
      </trkpt>
      <trkpt lat="44.53545" lon="2.72298">
        <ele>333.23</ele>
        <time>2012-08-10T13:19:08Z</time>
      </trkpt>
      <trkpt lat="44.53593" lon="2.72221">
        <ele>330.83</ele>
        <time>2012-08-10T13:19:23Z</time>
      </trkpt>
      <trkpt lat="44.53653" lon="2.72136">
        <ele>329.87</ele>
        <time>2012-08-10T13:19:39Z</time>
      </trkpt>
      <trkpt lat="44.53674" lon="2.72045">
        <ele>328.91</ele>
        <time>2012-08-10T13:19:52Z</time>
      </trkpt>
      <trkpt lat="44.53694" lon="2.71966">
        <ele>331.31</ele>
        <time>2012-08-10T13:20:08Z</time>
      </trkpt>
      <trkpt lat="44.53716" lon="2.71887">
        <ele>333.71</ele>
        <time>2012-08-10T13:20:26Z</time>
      </trkpt>
      <trkpt lat="44.53735" lon="2.71794">
        <ele>336.12</ele>
        <time>2012-08-10T13:20:45Z</time>
      </trkpt>
      <trkpt lat="44.53777" lon="2.71714">
        <ele>338.52</ele>
        <time>2012-08-10T13:21:04Z</time>
      </trkpt>
      <trkpt lat="44.53786" lon="2.71705">
        <ele>338.52</ele>
        <time>2012-08-10T13:21:07Z</time>
      </trkpt>
      <trkpt lat="44.5379" lon="2.71703">
        <ele>338.52</ele>
        <time>2012-08-10T13:21:08Z</time>
      </trkpt>
      <trkpt lat="44.53794" lon="2.71702">
        <ele>338.52</ele>
        <time>2012-08-10T13:21:09Z</time>
      </trkpt>
      <trkpt lat="44.53803" lon="2.717">
        <ele>339</ele>
        <time>2012-08-10T13:21:11Z</time>
      </trkpt>
      <trkpt lat="44.53808" lon="2.717">
        <ele>339</ele>
        <time>2012-08-10T13:21:12Z</time>
      </trkpt>
      <trkpt lat="44.53835" lon="2.71701">
        <ele>338.04</ele>
        <time>2012-08-10T13:21:17Z</time>
      </trkpt>
      <trkpt lat="44.5384" lon="2.717">
        <ele>338.04</ele>
        <time>2012-08-10T13:21:18Z</time>
      </trkpt>
      <trkpt lat="44.53868" lon="2.71693">
        <ele>337.08</ele>
        <time>2012-08-10T13:21:22Z</time>
      </trkpt>
      <trkpt lat="44.53968" lon="2.7162">
        <ele>334.2</ele>
        <time>2012-08-10T13:21:36Z</time>
      </trkpt>
      <trkpt lat="44.54046" lon="2.71532">
        <ele>332.27</ele>
        <time>2012-08-10T13:21:50Z</time>
      </trkpt>
      <trkpt lat="44.54065" lon="2.71493">
        <ele>332.27</ele>
        <time>2012-08-10T13:22:02Z</time>
      </trkpt>
      <trkpt lat="44.54077" lon="2.71456">
        <ele>335.64</ele>
        <time>2012-08-10T13:22:18Z</time>
      </trkpt>
      <trkpt lat="44.54082" lon="2.71426">
        <ele>335.16</ele>
        <time>2012-08-10T13:22:33Z</time>
      </trkpt>
      <trkpt lat="44.54094" lon="2.71391">
        <ele>335.64</ele>
        <time>2012-08-10T13:22:50Z</time>
      </trkpt>
      <trkpt lat="44.541" lon="2.71377">
        <ele>337.56</ele>
        <time>2012-08-10T13:22:56Z</time>
      </trkpt>
      <trkpt lat="44.54101" lon="2.71374">
        <ele>337.56</ele>
        <time>2012-08-10T13:22:57Z</time>
      </trkpt>
      <trkpt lat="44.54101" lon="2.71372">
        <ele>337.56</ele>
        <time>2012-08-10T13:22:58Z</time>
      </trkpt>
      <trkpt lat="44.54102" lon="2.7137">
        <ele>337.56</ele>
        <time>2012-08-10T13:22:59Z</time>
      </trkpt>
      <trkpt lat="44.54102" lon="2.71368">
        <ele>337.56</ele>
        <time>2012-08-10T13:23:00Z</time>
      </trkpt>
      <trkpt lat="44.54103" lon="2.71366">
        <ele>337.56</ele>
        <time>2012-08-10T13:23:01Z</time>
      </trkpt>
      <trkpt lat="44.54103" lon="2.71364">
        <ele>337.56</ele>
        <time>2012-08-10T13:23:02Z</time>
      </trkpt>
      <trkpt lat="44.54104" lon="2.71361">
        <ele>337.08</ele>
        <time>2012-08-10T13:23:04Z</time>
      </trkpt>
      <trkpt lat="44.54104" lon="2.71359">
        <ele>337.08</ele>
        <time>2012-08-10T13:23:05Z</time>
      </trkpt>
      <trkpt lat="44.54105" lon="2.71353">
        <ele>336.6</ele>
        <time>2012-08-10T13:23:09Z</time>
      </trkpt>
      <trkpt lat="44.54106" lon="2.71351">
        <ele>337.08</ele>
        <time>2012-08-10T13:23:10Z</time>
      </trkpt>
      <trkpt lat="44.54109" lon="2.71341">
        <ele>338.04</ele>
        <time>2012-08-10T13:23:15Z</time>
      </trkpt>
      <trkpt lat="44.54118" lon="2.71314">
        <ele>335.64</ele>
        <time>2012-08-10T13:23:28Z</time>
      </trkpt>
      <trkpt lat="44.54118" lon="2.71311">
        <ele>335.64</ele>
        <time>2012-08-10T13:23:29Z</time>
      </trkpt>
      <trkpt lat="44.54119" lon="2.71309">
        <ele>335.64</ele>
        <time>2012-08-10T13:23:30Z</time>
      </trkpt>
      <trkpt lat="44.54119" lon="2.71307">
        <ele>336.12</ele>
        <time>2012-08-10T13:23:31Z</time>
      </trkpt>
      <trkpt lat="44.5412" lon="2.71304">
        <ele>336.12</ele>
        <time>2012-08-10T13:23:32Z</time>
      </trkpt>
      <trkpt lat="44.54121" lon="2.71302">
        <ele>336.12</ele>
        <time>2012-08-10T13:23:33Z</time>
      </trkpt>
      <trkpt lat="44.54121" lon="2.71299">
        <ele>336.6</ele>
        <time>2012-08-10T13:23:34Z</time>
      </trkpt>
      <trkpt lat="44.54122" lon="2.71297">
        <ele>336.6</ele>
        <time>2012-08-10T13:23:35Z</time>
      </trkpt>
      <trkpt lat="44.54123" lon="2.71295">
        <ele>336.6</ele>
        <time>2012-08-10T13:23:36Z</time>
      </trkpt>
      <trkpt lat="44.54123" lon="2.71293">
        <ele>336.12</ele>
        <time>2012-08-10T13:23:37Z</time>
      </trkpt>
      <trkpt lat="44.54123" lon="2.71291">
        <ele>336.12</ele>
        <time>2012-08-10T13:23:38Z</time>
      </trkpt>
      <trkpt lat="44.54123" lon="2.71289">
        <ele>335.64</ele>
        <time>2012-08-10T13:23:39Z</time>
      </trkpt>
      <trkpt lat="44.54124" lon="2.71287">
        <ele>335.64</ele>
        <time>2012-08-10T13:23:40Z</time>
      </trkpt>
      <trkpt lat="44.54125" lon="2.71285">
        <ele>335.64</ele>
        <time>2012-08-10T13:23:41Z</time>
      </trkpt>
      <trkpt lat="44.54138" lon="2.71252">
        <ele>341.41</ele>
        <time>2012-08-10T13:23:55Z</time>
      </trkpt>
      <trkpt lat="44.54148" lon="2.71222">
        <ele>348.13</ele>
        <time>2012-08-10T13:24:09Z</time>
      </trkpt>
      <trkpt lat="44.54154" lon="2.71187">
        <ele>349.58</ele>
        <time>2012-08-10T13:24:24Z</time>
      </trkpt>
      <trkpt lat="44.54159" lon="2.71155">
        <ele>352.94</ele>
        <time>2012-08-10T13:24:38Z</time>
      </trkpt>
      <trkpt lat="44.54161" lon="2.71125">
        <ele>355.34</ele>
        <time>2012-08-10T13:24:52Z</time>
      </trkpt>
      <trkpt lat="44.54162" lon="2.71118">
        <ele>356.31</ele>
        <time>2012-08-10T13:24:55Z</time>
      </trkpt>
      <trkpt lat="44.54162" lon="2.71116">
        <ele>356.31</ele>
        <time>2012-08-10T13:24:56Z</time>
      </trkpt>
      <trkpt lat="44.54162" lon="2.71114">
        <ele>356.79</ele>
        <time>2012-08-10T13:24:57Z</time>
      </trkpt>
      <trkpt lat="44.54162" lon="2.71112">
        <ele>356.79</ele>
        <time>2012-08-10T13:24:58Z</time>
      </trkpt>
      <trkpt lat="44.54162" lon="2.7111">
        <ele>357.27</ele>
        <time>2012-08-10T13:24:59Z</time>
      </trkpt>
      <trkpt lat="44.54163" lon="2.71108">
        <ele>357.27</ele>
        <time>2012-08-10T13:25:00Z</time>
      </trkpt>
      <trkpt lat="44.54164" lon="2.71106">
        <ele>357.75</ele>
        <time>2012-08-10T13:25:01Z</time>
      </trkpt>
      <trkpt lat="44.54165" lon="2.71104">
        <ele>358.23</ele>
        <time>2012-08-10T13:25:02Z</time>
      </trkpt>
      <trkpt lat="44.54166" lon="2.71074">
        <ele>362.55</ele>
        <time>2012-08-10T13:25:15Z</time>
      </trkpt>
      <trkpt lat="44.54165" lon="2.71059">
        <ele>363.52</ele>
        <time>2012-08-10T13:25:21Z</time>
      </trkpt>
      <trkpt lat="44.54165" lon="2.71057">
        <ele>363.52</ele>
        <time>2012-08-10T13:25:22Z</time>
      </trkpt>
      <trkpt lat="44.54165" lon="2.71055">
        <ele>364</ele>
        <time>2012-08-10T13:25:23Z</time>
      </trkpt>
      <trkpt lat="44.54165" lon="2.71053">
        <ele>364.48</ele>
        <time>2012-08-10T13:25:24Z</time>
      </trkpt>
      <trkpt lat="44.54166" lon="2.7105">
        <ele>364.96</ele>
        <time>2012-08-10T13:25:25Z</time>
      </trkpt>
      <trkpt lat="44.54167" lon="2.71046">
        <ele>365.92</ele>
        <time>2012-08-10T13:25:27Z</time>
      </trkpt>
      <trkpt lat="44.54166" lon="2.71043">
        <ele>365.92</ele>
        <time>2012-08-10T13:25:28Z</time>
      </trkpt>
      <trkpt lat="44.54167" lon="2.71041">
        <ele>365.92</ele>
        <time>2012-08-10T13:25:29Z</time>
      </trkpt>
      <trkpt lat="44.54167" lon="2.71039">
        <ele>365.92</ele>
        <time>2012-08-10T13:25:30Z</time>
      </trkpt>
      <trkpt lat="44.54168" lon="2.71037">
        <ele>366.4</ele>
        <time>2012-08-10T13:25:31Z</time>
      </trkpt>
      <trkpt lat="44.54169" lon="2.71035">
        <ele>366.88</ele>
        <time>2012-08-10T13:25:32Z</time>
      </trkpt>
      <trkpt lat="44.5417" lon="2.71033">
        <ele>366.88</ele>
        <time>2012-08-10T13:25:33Z</time>
      </trkpt>
      <trkpt lat="44.5417" lon="2.71031">
        <ele>367.36</ele>
        <time>2012-08-10T13:25:34Z</time>
      </trkpt>
      <trkpt lat="44.54171" lon="2.71028">
        <ele>367.84</ele>
        <time>2012-08-10T13:25:35Z</time>
      </trkpt>
      <trkpt lat="44.54171" lon="2.71025">
        <ele>367.84</ele>
        <time>2012-08-10T13:25:36Z</time>
      </trkpt>
      <trkpt lat="44.54171" lon="2.71023">
        <ele>367.84</ele>
        <time>2012-08-10T13:25:37Z</time>
      </trkpt>
      <trkpt lat="44.54171" lon="2.7102">
        <ele>368.32</ele>
        <time>2012-08-10T13:25:38Z</time>
      </trkpt>
      <trkpt lat="44.54171" lon="2.71018">
        <ele>368.32</ele>
        <time>2012-08-10T13:25:39Z</time>
      </trkpt>
      <trkpt lat="44.54171" lon="2.71016">
        <ele>368.32</ele>
        <time>2012-08-10T13:25:40Z</time>
      </trkpt>
      <trkpt lat="44.54172" lon="2.71008">
        <ele>369.28</ele>
        <time>2012-08-10T13:25:43Z</time>
      </trkpt>
      <trkpt lat="44.54172" lon="2.71005">
        <ele>369.28</ele>
        <time>2012-08-10T13:25:44Z</time>
      </trkpt>
      <trkpt lat="44.54173" lon="2.71003">
        <ele>369.28</ele>
        <time>2012-08-10T13:25:45Z</time>
      </trkpt>
      <trkpt lat="44.54173" lon="2.71">
        <ele>369.28</ele>
        <time>2012-08-10T13:25:46Z</time>
      </trkpt>
      <trkpt lat="44.54174" lon="2.70997">
        <ele>368.8</ele>
        <time>2012-08-10T13:25:47Z</time>
      </trkpt>
      <trkpt lat="44.54175" lon="2.70994">
        <ele>369.28</ele>
        <time>2012-08-10T13:25:48Z</time>
      </trkpt>
      <trkpt lat="44.54185" lon="2.70961">
        <ele>369.76</ele>
        <time>2012-08-10T13:26:03Z</time>
      </trkpt>
      <trkpt lat="44.54192" lon="2.70926">
        <ele>371.21</ele>
        <time>2012-08-10T13:26:19Z</time>
      </trkpt>
      <trkpt lat="44.54192" lon="2.70913">
        <ele>372.65</ele>
        <time>2012-08-10T13:26:25Z</time>
      </trkpt>
      <trkpt lat="44.54192" lon="2.70911">
        <ele>372.65</ele>
        <time>2012-08-10T13:26:26Z</time>
      </trkpt>
      <trkpt lat="44.54192" lon="2.70909">
        <ele>372.65</ele>
        <time>2012-08-10T13:26:27Z</time>
      </trkpt>
      <trkpt lat="44.54192" lon="2.70907">
        <ele>373.13</ele>
        <time>2012-08-10T13:26:28Z</time>
      </trkpt>
      <trkpt lat="44.54193" lon="2.70905">
        <ele>373.13</ele>
        <time>2012-08-10T13:26:29Z</time>
      </trkpt>
      <trkpt lat="44.54197" lon="2.70868">
        <ele>375.05</ele>
        <time>2012-08-10T13:26:45Z</time>
      </trkpt>
      <trkpt lat="44.54197" lon="2.70839">
        <ele>376.49</ele>
        <time>2012-08-10T13:26:57Z</time>
      </trkpt>
      <trkpt lat="44.542" lon="2.7081">
        <ele>377.45</ele>
        <time>2012-08-10T13:27:11Z</time>
      </trkpt>
      <trkpt lat="44.54201" lon="2.70775">
        <ele>376.01</ele>
        <time>2012-08-10T13:27:28Z</time>
      </trkpt>
      <trkpt lat="44.54206" lon="2.70741">
        <ele>373.13</ele>
        <time>2012-08-10T13:27:42Z</time>
      </trkpt>
      <trkpt lat="44.54213" lon="2.70698">
        <ele>374.09</ele>
        <time>2012-08-10T13:27:58Z</time>
      </trkpt>
      <trkpt lat="44.54219" lon="2.70662">
        <ele>375.53</ele>
        <time>2012-08-10T13:28:12Z</time>
      </trkpt>
      <trkpt lat="44.54226" lon="2.7062">
        <ele>376.01</ele>
        <time>2012-08-10T13:28:27Z</time>
      </trkpt>
      <trkpt lat="44.54238" lon="2.70556">
        <ele>375.05</ele>
        <time>2012-08-10T13:28:39Z</time>
      </trkpt>
      <trkpt lat="44.54255" lon="2.70472">
        <ele>371.69</ele>
        <time>2012-08-10T13:28:47Z</time>
      </trkpt>
      <trkpt lat="44.54255" lon="2.7046">
        <ele>371.21</ele>
        <time>2012-08-10T13:28:48Z</time>
      </trkpt>
      <trkpt lat="44.54255" lon="2.70448">
        <ele>370.73</ele>
        <time>2012-08-10T13:28:49Z</time>
      </trkpt>
      <trkpt lat="44.54248" lon="2.70345">
        <ele>367.84</ele>
        <time>2012-08-10T13:28:59Z</time>
      </trkpt>
      <trkpt lat="44.54247" lon="2.70339">
        <ele>367.84</ele>
        <time>2012-08-10T13:29:00Z</time>
      </trkpt>
      <trkpt lat="44.54245" lon="2.70335">
        <ele>367.84</ele>
        <time>2012-08-10T13:29:01Z</time>
      </trkpt>
      <trkpt lat="44.54242" lon="2.70333">
        <ele>368.32</ele>
        <time>2012-08-10T13:29:02Z</time>
      </trkpt>
      <trkpt lat="44.5424" lon="2.70332">
        <ele>368.32</ele>
        <time>2012-08-10T13:29:03Z</time>
      </trkpt>
      <trkpt lat="44.54238" lon="2.70331">
        <ele>368.8</ele>
        <time>2012-08-10T13:29:04Z</time>
      </trkpt>
      <trkpt lat="44.54236" lon="2.7033">
        <ele>369.28</ele>
        <time>2012-08-10T13:29:05Z</time>
      </trkpt>
      <trkpt lat="44.54234" lon="2.70329">
        <ele>369.28</ele>
        <time>2012-08-10T13:29:06Z</time>
      </trkpt>
      <trkpt lat="44.54227" lon="2.70326">
        <ele>371.21</ele>
        <time>2012-08-10T13:29:10Z</time>
      </trkpt>
      <trkpt lat="44.54219" lon="2.70323">
        <ele>371.69</ele>
        <time>2012-08-10T13:29:15Z</time>
      </trkpt>
      <trkpt lat="44.54217" lon="2.70323">
        <ele>371.69</ele>
        <time>2012-08-10T13:29:16Z</time>
      </trkpt>
      <trkpt lat="44.54216" lon="2.70323">
        <ele>371.69</ele>
        <time>2012-08-10T13:29:17Z</time>
      </trkpt>
      <trkpt lat="44.54214" lon="2.70323">
        <ele>372.17</ele>
        <time>2012-08-10T13:29:18Z</time>
      </trkpt>
      <trkpt lat="44.54213" lon="2.70323">
        <ele>372.17</ele>
        <time>2012-08-10T13:29:19Z</time>
      </trkpt>
      <trkpt lat="44.54211" lon="2.70323">
        <ele>372.65</ele>
        <time>2012-08-10T13:29:20Z</time>
      </trkpt>
      <trkpt lat="44.54201" lon="2.70325">
        <ele>374.57</ele>
        <time>2012-08-10T13:29:27Z</time>
      </trkpt>
      <trkpt lat="44.54199" lon="2.70326">
        <ele>374.57</ele>
        <time>2012-08-10T13:29:28Z</time>
      </trkpt>
      <trkpt lat="44.54198" lon="2.70326">
        <ele>374.57</ele>
        <time>2012-08-10T13:29:29Z</time>
      </trkpt>
      <trkpt lat="44.54197" lon="2.70326">
        <ele>374.57</ele>
        <time>2012-08-10T13:29:30Z</time>
      </trkpt>
      <trkpt lat="44.54196" lon="2.70326">
        <ele>375.05</ele>
        <time>2012-08-10T13:29:31Z</time>
      </trkpt>
      <trkpt lat="44.54194" lon="2.70327">
        <ele>375.05</ele>
        <time>2012-08-10T13:29:32Z</time>
      </trkpt>
      <trkpt lat="44.54186" lon="2.70335">
        <ele>376.97</ele>
        <time>2012-08-10T13:29:41Z</time>
      </trkpt>
      <trkpt lat="44.54215" lon="2.70322">
        <ele>375.05</ele>
        <time>2012-08-10T13:29:54Z</time>
      </trkpt>
      <trkpt lat="44.5424" lon="2.70335">
        <ele>370.73</ele>
        <time>2012-08-10T13:30:04Z</time>
      </trkpt>
      <trkpt lat="44.54242" lon="2.70336">
        <ele>370.24</ele>
        <time>2012-08-10T13:30:05Z</time>
      </trkpt>
      <trkpt lat="44.54253" lon="2.70324">
        <ele>368.32</ele>
        <time>2012-08-10T13:30:10Z</time>
      </trkpt>
      <trkpt lat="44.54255" lon="2.70318">
        <ele>367.84</ele>
        <time>2012-08-10T13:30:11Z</time>
      </trkpt>
      <trkpt lat="44.54269" lon="2.70276">
        <ele>366.4</ele>
        <time>2012-08-10T13:30:17Z</time>
      </trkpt>
      <trkpt lat="44.54276" lon="2.70237">
        <ele>364.96</ele>
        <time>2012-08-10T13:30:21Z</time>
      </trkpt>
      <trkpt lat="44.54277" lon="2.70225">
        <ele>364.48</ele>
        <time>2012-08-10T13:30:22Z</time>
      </trkpt>
      <trkpt lat="44.54262" lon="2.70085">
        <ele>360.63</ele>
        <time>2012-08-10T13:30:33Z</time>
      </trkpt>
      <trkpt lat="44.54229" lon="2.69978">
        <ele>355.34</ele>
        <time>2012-08-10T13:30:44Z</time>
      </trkpt>
      <trkpt lat="44.54223" lon="2.6997">
        <ele>354.86</ele>
        <time>2012-08-10T13:30:45Z</time>
      </trkpt>
      <trkpt lat="44.54216" lon="2.69963">
        <ele>353.9</ele>
        <time>2012-08-10T13:30:46Z</time>
      </trkpt>
      <trkpt lat="44.54209" lon="2.69957">
        <ele>353.42</ele>
        <time>2012-08-10T13:30:47Z</time>
      </trkpt>
      <trkpt lat="44.54201" lon="2.69951">
        <ele>352.94</ele>
        <time>2012-08-10T13:30:48Z</time>
      </trkpt>
      <trkpt lat="44.54193" lon="2.69946">
        <ele>351.98</ele>
        <time>2012-08-10T13:30:49Z</time>
      </trkpt>
      <trkpt lat="44.54154" lon="2.69926">
        <ele>347.65</ele>
        <time>2012-08-10T13:30:54Z</time>
      </trkpt>
      <trkpt lat="44.54146" lon="2.6992">
        <ele>346.69</ele>
        <time>2012-08-10T13:30:55Z</time>
      </trkpt>
      <trkpt lat="44.5414" lon="2.69911">
        <ele>345.73</ele>
        <time>2012-08-10T13:30:56Z</time>
      </trkpt>
      <trkpt lat="44.54136" lon="2.69901">
        <ele>344.77</ele>
        <time>2012-08-10T13:30:57Z</time>
      </trkpt>
      <trkpt lat="44.54134" lon="2.6989">
        <ele>343.81</ele>
        <time>2012-08-10T13:30:58Z</time>
      </trkpt>
      <trkpt lat="44.54134" lon="2.69881">
        <ele>343.33</ele>
        <time>2012-08-10T13:30:59Z</time>
      </trkpt>
      <trkpt lat="44.54135" lon="2.69872">
        <ele>342.37</ele>
        <time>2012-08-10T13:31:00Z</time>
      </trkpt>
      <trkpt lat="44.54136" lon="2.69864">
        <ele>341.89</ele>
        <time>2012-08-10T13:31:01Z</time>
      </trkpt>
      <trkpt lat="44.54138" lon="2.69857">
        <ele>340.92</ele>
        <time>2012-08-10T13:31:02Z</time>
      </trkpt>
      <trkpt lat="44.5414" lon="2.69851">
        <ele>340.44</ele>
        <time>2012-08-10T13:31:03Z</time>
      </trkpt>
      <trkpt lat="44.54157" lon="2.69814">
        <ele>338.52</ele>
        <time>2012-08-10T13:31:14Z</time>
      </trkpt>
      <trkpt lat="44.54177" lon="2.6977">
        <ele>339.96</ele>
        <time>2012-08-10T13:31:27Z</time>
      </trkpt>
      <trkpt lat="44.54201" lon="2.69717">
        <ele>342.37</ele>
        <time>2012-08-10T13:31:43Z</time>
      </trkpt>
      <trkpt lat="44.54219" lon="2.69663">
        <ele>344.77</ele>
        <time>2012-08-10T13:31:59Z</time>
      </trkpt>
      <trkpt lat="44.5423" lon="2.696">
        <ele>345.25</ele>
        <time>2012-08-10T13:32:15Z</time>
      </trkpt>
      <trkpt lat="44.5424" lon="2.69531">
        <ele>345.73</ele>
        <time>2012-08-10T13:32:32Z</time>
      </trkpt>
      <trkpt lat="44.54254" lon="2.6945">
        <ele>348.13</ele>
        <time>2012-08-10T13:32:54Z</time>
      </trkpt>
      <trkpt lat="44.54249" lon="2.69391">
        <ele>349.1</ele>
        <time>2012-08-10T13:33:08Z</time>
      </trkpt>
      <trkpt lat="44.54241" lon="2.6935">
        <ele>349.1</ele>
        <time>2012-08-10T13:33:16Z</time>
      </trkpt>
      <trkpt lat="44.54218" lon="2.69233">
        <ele>347.17</ele>
        <time>2012-08-10T13:33:33Z</time>
      </trkpt>
      <trkpt lat="44.54216" lon="2.69119">
        <ele>345.73</ele>
        <time>2012-08-10T13:33:47Z</time>
      </trkpt>
      <trkpt lat="44.54212" lon="2.68959">
        <ele>343.33</ele>
        <time>2012-08-10T13:34:04Z</time>
      </trkpt>
      <trkpt lat="44.54197" lon="2.68841">
        <ele>339.48</ele>
        <time>2012-08-10T13:34:16Z</time>
      </trkpt>
      <trkpt lat="44.54197" lon="2.68829">
        <ele>339.48</ele>
        <time>2012-08-10T13:34:17Z</time>
      </trkpt>
      <trkpt lat="44.54197" lon="2.68817">
        <ele>339.48</ele>
        <time>2012-08-10T13:34:18Z</time>
      </trkpt>
      <trkpt lat="44.54199" lon="2.68804">
        <ele>339</ele>
        <time>2012-08-10T13:34:19Z</time>
      </trkpt>
      <trkpt lat="44.54201" lon="2.68791">
        <ele>339</ele>
        <time>2012-08-10T13:34:20Z</time>
      </trkpt>
      <trkpt lat="44.54205" lon="2.68779">
        <ele>338.52</ele>
        <time>2012-08-10T13:34:21Z</time>
      </trkpt>
      <trkpt lat="44.5421" lon="2.68767">
        <ele>338.04</ele>
        <time>2012-08-10T13:34:22Z</time>
      </trkpt>
      <trkpt lat="44.54215" lon="2.68756">
        <ele>338.04</ele>
        <time>2012-08-10T13:34:23Z</time>
      </trkpt>
      <trkpt lat="44.5422" lon="2.68747">
        <ele>338.04</ele>
        <time>2012-08-10T13:34:24Z</time>
      </trkpt>
      <trkpt lat="44.54226" lon="2.68741">
        <ele>338.04</ele>
        <time>2012-08-10T13:34:25Z</time>
      </trkpt>
      <trkpt lat="44.54254" lon="2.68703">
        <ele>339.96</ele>
        <time>2012-08-10T13:34:34Z</time>
      </trkpt>
      <trkpt lat="44.54263" lon="2.68674">
        <ele>340.92</ele>
        <time>2012-08-10T13:34:40Z</time>
      </trkpt>
      <trkpt lat="44.54266" lon="2.68582">
        <ele>339.48</ele>
        <time>2012-08-10T13:34:56Z</time>
      </trkpt>
      <trkpt lat="44.54271" lon="2.68511">
        <ele>338.04</ele>
        <time>2012-08-10T13:35:10Z</time>
      </trkpt>
      <trkpt lat="44.54305" lon="2.68458">
        <ele>337.56</ele>
        <time>2012-08-10T13:35:24Z</time>
      </trkpt>
      <trkpt lat="44.54343" lon="2.68369">
        <ele>334.2</ele>
        <time>2012-08-10T13:35:36Z</time>
      </trkpt>
      <trkpt lat="44.54366" lon="2.683">
        <ele>332.27</ele>
        <time>2012-08-10T13:35:43Z</time>
      </trkpt>
      <trkpt lat="44.54377" lon="2.68244">
        <ele>330.83</ele>
        <time>2012-08-10T13:35:48Z</time>
      </trkpt>
      <trkpt lat="44.54381" lon="2.68233">
        <ele>329.87</ele>
        <time>2012-08-10T13:35:49Z</time>
      </trkpt>
      <trkpt lat="44.54386" lon="2.68222">
        <ele>329.39</ele>
        <time>2012-08-10T13:35:50Z</time>
      </trkpt>
      <trkpt lat="44.54391" lon="2.68213">
        <ele>329.39</ele>
        <time>2012-08-10T13:35:51Z</time>
      </trkpt>
      <trkpt lat="44.54396" lon="2.68204">
        <ele>328.43</ele>
        <time>2012-08-10T13:35:52Z</time>
      </trkpt>
      <trkpt lat="44.54402" lon="2.68197">
        <ele>327.95</ele>
        <time>2012-08-10T13:35:53Z</time>
      </trkpt>
      <trkpt lat="44.54408" lon="2.6819">
        <ele>327.95</ele>
        <time>2012-08-10T13:35:54Z</time>
      </trkpt>
      <trkpt lat="44.54414" lon="2.68185">
        <ele>327.47</ele>
        <time>2012-08-10T13:35:55Z</time>
      </trkpt>
      <trkpt lat="44.5442" lon="2.68181">
        <ele>326.99</ele>
        <time>2012-08-10T13:35:56Z</time>
      </trkpt>
      <trkpt lat="44.54427" lon="2.68179">
        <ele>326.99</ele>
        <time>2012-08-10T13:35:57Z</time>
      </trkpt>
      <trkpt lat="44.54433" lon="2.68178">
        <ele>326.99</ele>
        <time>2012-08-10T13:35:58Z</time>
      </trkpt>
      <trkpt lat="44.54439" lon="2.68178">
        <ele>326.99</ele>
        <time>2012-08-10T13:35:59Z</time>
      </trkpt>
      <trkpt lat="44.54493" lon="2.68173">
        <ele>328.43</ele>
        <time>2012-08-10T13:36:11Z</time>
      </trkpt>
      <trkpt lat="44.54544" lon="2.68162">
        <ele>328.43</ele>
        <time>2012-08-10T13:36:27Z</time>
      </trkpt>
      <trkpt lat="44.54584" lon="2.68171">
        <ele>328.91</ele>
        <time>2012-08-10T13:36:40Z</time>
      </trkpt>
      <trkpt lat="44.54624" lon="2.68192">
        <ele>329.39</ele>
        <time>2012-08-10T13:36:53Z</time>
      </trkpt>
      <trkpt lat="44.54647" lon="2.68255">
        <ele>330.35</ele>
        <time>2012-08-10T13:37:07Z</time>
      </trkpt>
      <trkpt lat="44.54681" lon="2.68323">
        <ele>334.68</ele>
        <time>2012-08-10T13:37:23Z</time>
      </trkpt>
      <trkpt lat="44.54697" lon="2.68348">
        <ele>334.68</ele>
        <time>2012-08-10T13:37:28Z</time>
      </trkpt>
      <trkpt lat="44.54707" lon="2.68374">
        <ele>334.2</ele>
        <time>2012-08-10T13:37:32Z</time>
      </trkpt>
      <trkpt lat="44.54718" lon="2.68422">
        <ele>334.2</ele>
        <time>2012-08-10T13:37:39Z</time>
      </trkpt>
      <trkpt lat="44.54729" lon="2.68475">
        <ele>333.71</ele>
        <time>2012-08-10T13:37:48Z</time>
      </trkpt>
      <trkpt lat="44.54735" lon="2.68499">
        <ele>333.23</ele>
        <time>2012-08-10T13:37:52Z</time>
      </trkpt>
      <trkpt lat="44.54737" lon="2.68505">
        <ele>333.23</ele>
        <time>2012-08-10T13:37:53Z</time>
      </trkpt>
      <trkpt lat="44.54764" lon="2.68592">
        <ele>334.2</ele>
        <time>2012-08-10T13:38:06Z</time>
      </trkpt>
      <trkpt lat="44.54796" lon="2.68679">
        <ele>334.68</ele>
        <time>2012-08-10T13:38:19Z</time>
      </trkpt>
      <trkpt lat="44.54809" lon="2.68702">
        <ele>334.2</ele>
        <time>2012-08-10T13:38:23Z</time>
      </trkpt>
      <trkpt lat="44.54814" lon="2.68713">
        <ele>334.68</ele>
        <time>2012-08-10T13:38:25Z</time>
      </trkpt>
      <trkpt lat="44.54833" lon="2.68738">
        <ele>334.68</ele>
        <time>2012-08-10T13:38:30Z</time>
      </trkpt>
      <trkpt lat="44.54837" lon="2.68742">
        <ele>334.68</ele>
        <time>2012-08-10T13:38:31Z</time>
      </trkpt>
      <trkpt lat="44.54841" lon="2.68746">
        <ele>334.68</ele>
        <time>2012-08-10T13:38:32Z</time>
      </trkpt>
      <trkpt lat="44.54846" lon="2.6875">
        <ele>334.68</ele>
        <time>2012-08-10T13:38:33Z</time>
      </trkpt>
      <trkpt lat="44.5485" lon="2.68753">
        <ele>334.68</ele>
        <time>2012-08-10T13:38:34Z</time>
      </trkpt>
      <trkpt lat="44.54916" lon="2.68783">
        <ele>334.68</ele>
        <time>2012-08-10T13:38:48Z</time>
      </trkpt>
      <trkpt lat="44.54921" lon="2.68782">
        <ele>334.68</ele>
        <time>2012-08-10T13:38:49Z</time>
      </trkpt>
      <trkpt lat="44.54926" lon="2.68779">
        <ele>334.68</ele>
        <time>2012-08-10T13:38:50Z</time>
      </trkpt>
      <trkpt lat="44.54935" lon="2.6877">
        <ele>334.2</ele>
        <time>2012-08-10T13:38:52Z</time>
      </trkpt>
      <trkpt lat="44.54939" lon="2.68765">
        <ele>334.2</ele>
        <time>2012-08-10T13:38:53Z</time>
      </trkpt>
      <trkpt lat="44.54943" lon="2.6876">
        <ele>334.2</ele>
        <time>2012-08-10T13:38:54Z</time>
      </trkpt>
      <trkpt lat="44.54946" lon="2.68754">
        <ele>334.2</ele>
        <time>2012-08-10T13:38:55Z</time>
      </trkpt>
      <trkpt lat="44.54949" lon="2.68748">
        <ele>334.2</ele>
        <time>2012-08-10T13:38:56Z</time>
      </trkpt>
      <trkpt lat="44.54951" lon="2.68741">
        <ele>334.2</ele>
        <time>2012-08-10T13:38:57Z</time>
      </trkpt>
      <trkpt lat="44.54953" lon="2.68734">
        <ele>334.2</ele>
        <time>2012-08-10T13:38:58Z</time>
      </trkpt>
      <trkpt lat="44.54955" lon="2.68727">
        <ele>334.68</ele>
        <time>2012-08-10T13:38:59Z</time>
      </trkpt>
      <trkpt lat="44.54956" lon="2.6872">
        <ele>334.68</ele>
        <time>2012-08-10T13:39:00Z</time>
      </trkpt>
      <trkpt lat="44.54956" lon="2.68713">
        <ele>334.68</ele>
        <time>2012-08-10T13:39:01Z</time>
      </trkpt>
      <trkpt lat="44.54956" lon="2.68704">
        <ele>335.16</ele>
        <time>2012-08-10T13:39:02Z</time>
      </trkpt>
      <trkpt lat="44.54951" lon="2.68664">
        <ele>335.16</ele>
        <time>2012-08-10T13:39:06Z</time>
      </trkpt>
      <trkpt lat="44.54946" lon="2.68637">
        <ele>335.16</ele>
        <time>2012-08-10T13:39:09Z</time>
      </trkpt>
      <trkpt lat="44.54946" lon="2.68628">
        <ele>334.68</ele>
        <time>2012-08-10T13:39:10Z</time>
      </trkpt>
      <trkpt lat="44.54946" lon="2.68612">
        <ele>334.2</ele>
        <time>2012-08-10T13:39:12Z</time>
      </trkpt>
      <trkpt lat="44.54949" lon="2.68566">
        <ele>334.2</ele>
        <time>2012-08-10T13:39:18Z</time>
      </trkpt>
      <trkpt lat="44.54938" lon="2.68462">
        <ele>333.71</ele>
        <time>2012-08-10T13:39:31Z</time>
      </trkpt>
      <trkpt lat="44.54927" lon="2.68369">
        <ele>336.12</ele>
        <time>2012-08-10T13:39:44Z</time>
      </trkpt>
      <trkpt lat="44.54925" lon="2.68318">
        <ele>337.56</ele>
        <time>2012-08-10T13:39:51Z</time>
      </trkpt>
      <trkpt lat="44.54924" lon="2.68312">
        <ele>337.56</ele>
        <time>2012-08-10T13:39:52Z</time>
      </trkpt>
      <trkpt lat="44.54923" lon="2.68299">
        <ele>338.04</ele>
        <time>2012-08-10T13:39:54Z</time>
      </trkpt>
      <trkpt lat="44.54922" lon="2.68293">
        <ele>338.04</ele>
        <time>2012-08-10T13:39:55Z</time>
      </trkpt>
      <trkpt lat="44.54921" lon="2.68287">
        <ele>338.04</ele>
        <time>2012-08-10T13:39:56Z</time>
      </trkpt>
      <trkpt lat="44.54919" lon="2.68281">
        <ele>338.04</ele>
        <time>2012-08-10T13:39:57Z</time>
      </trkpt>
      <trkpt lat="44.54917" lon="2.68275">
        <ele>337.56</ele>
        <time>2012-08-10T13:39:58Z</time>
      </trkpt>
      <trkpt lat="44.54897" lon="2.68227">
        <ele>337.08</ele>
        <time>2012-08-10T13:40:06Z</time>
      </trkpt>
      <trkpt lat="44.54869" lon="2.68122">
        <ele>339</ele>
        <time>2012-08-10T13:40:20Z</time>
      </trkpt>
      <trkpt lat="44.54864" lon="2.68089">
        <ele>339.48</ele>
        <time>2012-08-10T13:40:24Z</time>
      </trkpt>
      <trkpt lat="44.54863" lon="2.68074">
        <ele>339.48</ele>
        <time>2012-08-10T13:40:26Z</time>
      </trkpt>
      <trkpt lat="44.54863" lon="2.68066">
        <ele>339.96</ele>
        <time>2012-08-10T13:40:27Z</time>
      </trkpt>
      <trkpt lat="44.54864" lon="2.68059">
        <ele>339.96</ele>
        <time>2012-08-10T13:40:28Z</time>
      </trkpt>
      <trkpt lat="44.5487" lon="2.6802">
        <ele>340.44</ele>
        <time>2012-08-10T13:40:33Z</time>
      </trkpt>
      <trkpt lat="44.54878" lon="2.67973">
        <ele>339.96</ele>
        <time>2012-08-10T13:40:39Z</time>
      </trkpt>
      <trkpt lat="44.54913" lon="2.67884">
        <ele>338.04</ele>
        <time>2012-08-10T13:40:51Z</time>
      </trkpt>
      <trkpt lat="44.54917" lon="2.67877">
        <ele>337.56</ele>
        <time>2012-08-10T13:40:52Z</time>
      </trkpt>
      <trkpt lat="44.54974" lon="2.67811">
        <ele>330.83</ele>
        <time>2012-08-10T13:41:05Z</time>
      </trkpt>
      <trkpt lat="44.55008" lon="2.6778">
        <ele>328.43</ele>
        <time>2012-08-10T13:41:12Z</time>
      </trkpt>
      <trkpt lat="44.55031" lon="2.6775">
        <ele>327.47</ele>
        <time>2012-08-10T13:41:17Z</time>
      </trkpt>
      <trkpt lat="44.55036" lon="2.67744">
        <ele>327.95</ele>
        <time>2012-08-10T13:41:18Z</time>
      </trkpt>
      <trkpt lat="44.5507" lon="2.67694">
        <ele>328.43</ele>
        <time>2012-08-10T13:41:27Z</time>
      </trkpt>
      <trkpt lat="44.55074" lon="2.67689">
        <ele>328.43</ele>
        <time>2012-08-10T13:41:28Z</time>
      </trkpt>
      <trkpt lat="44.55081" lon="2.67679">
        <ele>328.43</ele>
        <time>2012-08-10T13:41:30Z</time>
      </trkpt>
      <trkpt lat="44.55096" lon="2.67634">
        <ele>326.5</ele>
        <time>2012-08-10T13:41:37Z</time>
      </trkpt>
      <trkpt lat="44.5513" lon="2.67526">
        <ele>327.47</ele>
        <time>2012-08-10T13:41:53Z</time>
      </trkpt>
      <trkpt lat="44.55183" lon="2.67458">
        <ele>326.99</ele>
        <time>2012-08-10T13:42:06Z</time>
      </trkpt>
      <trkpt lat="44.55186" lon="2.67455">
        <ele>326.5</ele>
        <time>2012-08-10T13:42:07Z</time>
      </trkpt>
      <trkpt lat="44.5519" lon="2.67452">
        <ele>326.5</ele>
        <time>2012-08-10T13:42:08Z</time>
      </trkpt>
      <trkpt lat="44.552" lon="2.67441">
        <ele>326.02</ele>
        <time>2012-08-10T13:42:11Z</time>
      </trkpt>
      <trkpt lat="44.55203" lon="2.67437">
        <ele>326.02</ele>
        <time>2012-08-10T13:42:12Z</time>
      </trkpt>
      <trkpt lat="44.55206" lon="2.67432">
        <ele>325.54</ele>
        <time>2012-08-10T13:42:13Z</time>
      </trkpt>
      <trkpt lat="44.55225" lon="2.67402">
        <ele>325.54</ele>
        <time>2012-08-10T13:42:19Z</time>
      </trkpt>
      <trkpt lat="44.55238" lon="2.67374">
        <ele>325.06</ele>
        <time>2012-08-10T13:42:24Z</time>
      </trkpt>
      <trkpt lat="44.55239" lon="2.67368">
        <ele>325.06</ele>
        <time>2012-08-10T13:42:25Z</time>
      </trkpt>
      <trkpt lat="44.55241" lon="2.67362">
        <ele>324.58</ele>
        <time>2012-08-10T13:42:26Z</time>
      </trkpt>
      <trkpt lat="44.55242" lon="2.67355">
        <ele>324.58</ele>
        <time>2012-08-10T13:42:27Z</time>
      </trkpt>
      <trkpt lat="44.55243" lon="2.67349">
        <ele>324.1</ele>
        <time>2012-08-10T13:42:28Z</time>
      </trkpt>
      <trkpt lat="44.55246" lon="2.67306">
        <ele>323.14</ele>
        <time>2012-08-10T13:42:34Z</time>
      </trkpt>
      <trkpt lat="44.55244" lon="2.67223">
        <ele>323.14</ele>
        <time>2012-08-10T13:42:48Z</time>
      </trkpt>
      <trkpt lat="44.55246" lon="2.67216">
        <ele>323.14</ele>
        <time>2012-08-10T13:42:50Z</time>
      </trkpt>
      <trkpt lat="44.55248" lon="2.67213">
        <ele>323.62</ele>
        <time>2012-08-10T13:42:51Z</time>
      </trkpt>
      <trkpt lat="44.5525" lon="2.67211">
        <ele>323.62</ele>
        <time>2012-08-10T13:42:52Z</time>
      </trkpt>
      <trkpt lat="44.55252" lon="2.67208">
        <ele>324.1</ele>
        <time>2012-08-10T13:42:53Z</time>
      </trkpt>
      <trkpt lat="44.55254" lon="2.67206">
        <ele>324.1</ele>
        <time>2012-08-10T13:42:54Z</time>
      </trkpt>
      <trkpt lat="44.55257" lon="2.67203">
        <ele>324.58</ele>
        <time>2012-08-10T13:42:55Z</time>
      </trkpt>
      <trkpt lat="44.5526" lon="2.67201">
        <ele>325.06</ele>
        <time>2012-08-10T13:42:56Z</time>
      </trkpt>
      <trkpt lat="44.55263" lon="2.67201">
        <ele>325.06</ele>
        <time>2012-08-10T13:42:57Z</time>
      </trkpt>
      <trkpt lat="44.55267" lon="2.672">
        <ele>325.54</ele>
        <time>2012-08-10T13:42:58Z</time>
      </trkpt>
      <trkpt lat="44.5527" lon="2.67201">
        <ele>325.06</ele>
        <time>2012-08-10T13:42:59Z</time>
      </trkpt>
      <trkpt lat="44.55274" lon="2.67201">
        <ele>324.58</ele>
        <time>2012-08-10T13:43:00Z</time>
      </trkpt>
      <trkpt lat="44.55314" lon="2.67191">
        <ele>322.18</ele>
        <time>2012-08-10T13:43:11Z</time>
      </trkpt>
      <trkpt lat="44.55342" lon="2.67194">
        <ele>319.78</ele>
        <time>2012-08-10T13:43:22Z</time>
      </trkpt>
      <trkpt lat="44.55345" lon="2.672">
        <ele>320.26</ele>
        <time>2012-08-10T13:43:24Z</time>
      </trkpt>
      <trkpt lat="44.55345" lon="2.67204">
        <ele>320.26</ele>
        <time>2012-08-10T13:43:25Z</time>
      </trkpt>
      <trkpt lat="44.55345" lon="2.67208">
        <ele>320.74</ele>
        <time>2012-08-10T13:43:26Z</time>
      </trkpt>
      <trkpt lat="44.55345" lon="2.67212">
        <ele>320.74</ele>
        <time>2012-08-10T13:43:27Z</time>
      </trkpt>
      <trkpt lat="44.55345" lon="2.67216">
        <ele>321.22</ele>
        <time>2012-08-10T13:43:28Z</time>
      </trkpt>
      <trkpt lat="44.55347" lon="2.67219">
        <ele>321.7</ele>
        <time>2012-08-10T13:43:29Z</time>
      </trkpt>
      <trkpt lat="44.55349" lon="2.67222">
        <ele>321.7</ele>
        <time>2012-08-10T13:43:30Z</time>
      </trkpt>
      <trkpt lat="44.55352" lon="2.67224">
        <ele>321.7</ele>
        <time>2012-08-10T13:43:31Z</time>
      </trkpt>
      <trkpt lat="44.55354" lon="2.67225">
        <ele>321.7</ele>
        <time>2012-08-10T13:43:32Z</time>
      </trkpt>
      <trkpt lat="44.55356" lon="2.67224">
        <ele>321.7</ele>
        <time>2012-08-10T13:43:33Z</time>
      </trkpt>
      <trkpt lat="44.55358" lon="2.67223">
        <ele>321.7</ele>
        <time>2012-08-10T13:43:34Z</time>
      </trkpt>
      <trkpt lat="44.55372" lon="2.67219">
        <ele>321.7</ele>
        <time>2012-08-10T13:43:45Z</time>
      </trkpt>
      <trkpt lat="44.554" lon="2.67212">
        <ele>321.7</ele>
        <time>2012-08-10T13:44:03Z</time>
      </trkpt>
      <trkpt lat="44.55408" lon="2.67222">
        <ele>322.18</ele>
        <time>2012-08-10T13:44:12Z</time>
      </trkpt>
      <trkpt lat="44.55411" lon="2.67221">
        <ele>322.18</ele>
        <time>2012-08-10T13:44:13Z</time>
      </trkpt>
      <trkpt lat="44.55413" lon="2.6722">
        <ele>322.18</ele>
        <time>2012-08-10T13:44:14Z</time>
      </trkpt>
      <trkpt lat="44.55438" lon="2.67215">
        <ele>321.7</ele>
        <time>2012-08-10T13:44:28Z</time>
      </trkpt>
      <trkpt lat="44.5544" lon="2.67214">
        <ele>321.7</ele>
        <time>2012-08-10T13:44:29Z</time>
      </trkpt>
      <trkpt lat="44.55469" lon="2.67199">
        <ele>322.66</ele>
        <time>2012-08-10T13:44:41Z</time>
      </trkpt>
      <trkpt lat="44.55471" lon="2.67203">
        <ele>322.66</ele>
        <time>2012-08-10T13:44:45Z</time>
      </trkpt>
      <trkpt lat="44.55473" lon="2.67208">
        <ele>322.66</ele>
        <time>2012-08-10T13:45:03Z</time>
      </trkpt>
      <trkpt lat="44.55474" lon="2.67202">
        <ele>322.66</ele>
        <time>2012-08-10T13:45:24Z</time>
      </trkpt>
      <trkpt lat="44.55474" lon="2.67199">
        <ele>322.66</ele>
        <time>2012-08-10T13:45:49Z</time>
      </trkpt>
      <trkpt lat="44.55474" lon="2.67194">
        <ele>323.14</ele>
        <time>2012-08-10T13:46:14Z</time>
      </trkpt>
      <trkpt lat="44.55478" lon="2.67188">
        <ele>323.14</ele>
        <time>2012-08-10T13:46:36Z</time>
      </trkpt>
      <trkpt lat="44.55477" lon="2.67192">
        <ele>322.66</ele>
        <time>2012-08-10T13:47:02Z</time>
      </trkpt>
      <trkpt lat="44.5547" lon="2.67196">
        <ele>322.66</ele>
        <time>2012-08-10T13:47:27Z</time>
      </trkpt>
      <trkpt lat="44.55477" lon="2.67208">
        <ele>322.66</ele>
        <time>2012-08-10T13:47:52Z</time>
      </trkpt>
      <trkpt lat="44.55479" lon="2.67211">
        <ele>323.14</ele>
        <time>2012-08-10T13:48:09Z</time>
      </trkpt>
      <trkpt lat="44.5548" lon="2.67221">
        <ele>324.58</ele>
        <time>2012-08-10T13:48:29Z</time>
      </trkpt>
      <trkpt lat="44.55476" lon="2.67231">
        <ele>331.31</ele>
        <time>2012-08-10T13:48:49Z</time>
      </trkpt>
      <trkpt lat="44.55475" lon="2.67239">
        <ele>335.64</ele>
        <time>2012-08-10T13:49:04Z</time>
      </trkpt>
      <trkpt lat="44.55473" lon="2.67243">
        <ele>333.71</ele>
        <time>2012-08-10T13:49:07Z</time>
      </trkpt>
      <trkpt lat="44.55472" lon="2.67243">
        <ele>333.23</ele>
        <time>2012-08-10T13:49:08Z</time>
      </trkpt>
      <trkpt lat="44.55467" lon="2.67241">
        <ele>330.83</ele>
        <time>2012-08-10T13:49:12Z</time>
      </trkpt>
      <trkpt lat="44.55464" lon="2.67241">
        <ele>330.35</ele>
        <time>2012-08-10T13:49:15Z</time>
      </trkpt>
      <trkpt lat="44.55459" lon="2.67249">
        <ele>332.27</ele>
        <time>2012-08-10T13:49:28Z</time>
      </trkpt>
      <trkpt lat="44.55462" lon="2.67245">
        <ele>332.75</ele>
        <time>2012-08-10T13:49:34Z</time>
      </trkpt>
      <trkpt lat="44.55467" lon="2.67241">
        <ele>331.31</ele>
        <time>2012-08-10T13:49:45Z</time>
      </trkpt>
      <trkpt lat="44.5547" lon="2.6724">
        <ele>332.27</ele>
        <time>2012-08-10T13:49:55Z</time>
      </trkpt>
      <trkpt lat="44.55474" lon="2.67238">
        <ele>332.27</ele>
        <time>2012-08-10T13:49:58Z</time>
      </trkpt>
      <trkpt lat="44.55479" lon="2.67229">
        <ele>333.23</ele>
        <time>2012-08-10T13:50:09Z</time>
      </trkpt>
      <trkpt lat="44.55478" lon="2.67223">
        <ele>332.75</ele>
        <time>2012-08-10T13:50:14Z</time>
      </trkpt>
      <trkpt lat="44.55488" lon="2.67216">
        <ele>332.75</ele>
        <time>2012-08-10T13:50:29Z</time>
      </trkpt>
      <trkpt lat="44.55499" lon="2.67221">
        <ele>332.27</ele>
        <time>2012-08-10T13:50:45Z</time>
      </trkpt>
      <trkpt lat="44.55509" lon="2.6722">
        <ele>330.35</ele>
        <time>2012-08-10T13:51:01Z</time>
      </trkpt>
      <trkpt lat="44.55509" lon="2.67218">
        <ele>330.35</ele>
        <time>2012-08-10T13:51:28Z</time>
      </trkpt>
      <trkpt lat="44.55507" lon="2.67213">
        <ele>330.83</ele>
        <time>2012-08-10T13:51:52Z</time>
      </trkpt>
      <trkpt lat="44.55507" lon="2.67212">
        <ele>331.31</ele>
        <time>2012-08-10T13:52:17Z</time>
      </trkpt>
      <trkpt lat="44.55508" lon="2.67208">
        <ele>330.83</ele>
        <time>2012-08-10T13:52:41Z</time>
      </trkpt>
      <trkpt lat="44.55507" lon="2.67204">
        <ele>330.83</ele>
        <time>2012-08-10T13:53:01Z</time>
      </trkpt>
      <trkpt lat="44.55505" lon="2.67194">
        <ele>330.83</ele>
        <time>2012-08-10T13:53:14Z</time>
      </trkpt>
      <trkpt lat="44.55501" lon="2.67182">
        <ele>330.35</ele>
        <time>2012-08-10T13:53:36Z</time>
      </trkpt>
      <trkpt lat="44.55503" lon="2.67192">
        <ele>330.35</ele>
        <time>2012-08-10T13:53:56Z</time>
      </trkpt>
      <trkpt lat="44.55504" lon="2.67194">
        <ele>330.35</ele>
        <time>2012-08-10T13:53:58Z</time>
      </trkpt>
      <trkpt lat="44.55509" lon="2.67213">
        <ele>329.87</ele>
        <time>2012-08-10T13:54:23Z</time>
      </trkpt>
      <trkpt lat="44.55511" lon="2.6722">
        <ele>330.35</ele>
        <time>2012-08-10T13:54:48Z</time>
      </trkpt>
      <trkpt lat="44.67106" lon="3.03861">
        <ele>1213.32</ele>
        <time>2012-08-09T15:19:24Z</time>
      </trkpt>
      <trkpt lat="44.67081" lon="3.03883">
        <ele>1172.95</ele>
        <time>2012-08-09T15:05:02Z</time>
      </trkpt>
      <trkpt lat="44.67081" lon="3.03883">
        <ele>1172.95</ele>
        <time>2012-08-09T15:04:55Z</time>
      </trkpt>
      <trkpt lat="44.6708" lon="3.03883">
        <ele>1172.47</ele>
        <time>2012-08-09T15:04:24Z</time>
      </trkpt>
      <trkpt lat="44.6708" lon="3.03885">
        <ele>1171.5</ele>
        <time>2012-08-09T15:03:53Z</time>
      </trkpt>
      <trkpt lat="44.67079" lon="3.03884">
        <ele>1171.5</ele>
        <time>2012-08-09T15:03:20Z</time>
      </trkpt>
      <trkpt lat="44.6708" lon="3.03883">
        <ele>1172.95</ele>
        <time>2012-08-09T15:02:53Z</time>
      </trkpt>
      <trkpt lat="44.67081" lon="3.03884">
        <ele>1175.83</ele>
        <time>2012-08-09T15:02:20Z</time>
      </trkpt>
      <trkpt lat="44.67079" lon="3.03893">
        <ele>1183.04</ele>
        <time>2012-08-09T15:01:55Z</time>
      </trkpt>
      <trkpt lat="44.66231" lon="3.04641">
        <ele>1179.67</ele>
        <time>2012-08-09T13:52:32Z</time>
      </trkpt>
      <trkpt lat="44.66231" lon="3.04641">
        <ele>1179.67</ele>
        <time>2012-08-09T13:52:26Z</time>
      </trkpt>
      <trkpt lat="44.66231" lon="3.04641">
        <ele>1179.67</ele>
        <time>2012-08-09T13:52:26Z</time>
      </trkpt>
    </trkseg>
  </trk>
</gpx>